[[{"header":{"parameterUnit":"m.s-1","parameterCategory":1,"la1":31.0,"la2":29.5877,"lo1":-88.7671,"lo2":-86.6584,"dy":0.0162,"dx":0.0185,"nx":115,"ny":88,"refTime":"2023-07-20T12:00:00:Z","depth":0,"parameterNumber":2,"parameterNumberName":"U-component_of_WINDS"},"data":[0.0,0.0,0.0,0.0,0.0,0.0,0.0,0.0,0.0,0.0,0.0,0.0,0.0,0.0,0.0,0.0,0.0,0.0,0.0,0.0,0.0,0.0,0.0,0.0,0.0,0.0,0.0,0.0,0.0,0.0,0.0,0.0,0.0,0.0,0.0,0.0,0.0,0.0,0.0,0.0,0.0,0.0,0.0,0.0,0.0,0.0,0.0,0.0,0.0,0.0,0.0,0.0,0.0,0.0,0.0,0.0,0.0,0.0,0.0,0.0,0.0,0.0,0.0,0.0,0.0,0.0,0.0,0.0,0.0,0.0,0.0,0.0,0.0,0.0,0.0,0.0,0.0,0.0,0.0,0.0,0.0,0.0,0.0,0.0,0.0,0.0,0.0,0.0,0.0,0.0,0.0,0.0,0.0,0.0,0.0,0.0,0.0,0.0,0.0,0.0,0.0,0.0,0.0,0.0,0.0,0.0,0.0,0.0,0.0,0.0,0.0,0.0,0.0,0.0,0.0,0.0,0.0,0.0,0.0,0.0,0.0,0.0,0.0,0.0,0.0,0.0,0.0,0.0,0.0,0.0,0.0,0.0,0.0,0.0,0.0,0.0,0.0,0.0,0.0,0.0,0.0,0.0,0.0,0.0,0.0,0.0,0.0,0.0,0.0,0.0,0.0,0.0,0.0,0.0,0.0,0.0,0.0,0.0,0.0,0.0,0.0,0.0,0.0,0.0,0.0,0.0,0.0,0.0,0.0,0.0,0.0,0.0,0.0,0.0,0.0,0.0,0.0,0.0,0.0,0.0,0.0,0.0,0.0,0.0,0.0,0.0,0.0,0.0,0.0,0.0,0.0,0.0,0.0,0.0,0.0,0.0,0.0,0.0,0.0,0.0,0.0,0.0,0.0,0.0,0.0,0.0,0.0,0.0,0.0,0.0,0.0,0.0,0.0,0.0,0.0,0.0,0.0,0.0,0.0,0.0,0.0,0.0,0.0,0.0,0.0,0.0,0.0,0.0,0.0,0.0,0.0,0.0,0.0,0.0,0.0,0.0,0.0,0.0,0.0,0.0,0.0,0.0,0.0,0.0,0.0,0.0,0.0,0.0,0.0,0.0,0.0,0.0,0.0,0.0,0.0,0.0,0.0,0.0,0.0,0.0,0.0,0.0,0.0,0.0,0.0,0.0,0.0,0.0,0.0,0.0,0.0,0.0,0.0,0.0,0.0,0.0,0.0,0.0,0.0,0.0,0.0,0.0,0.0,0.0,0.0,0.0,0.0,0.0,0.0,0.0,0.0,0.0,0.0,0.0,0.0,0.0,0.0,0.0,0.0,0.0,0.0,0.0,0.0,0.0,0.0,0.0,0.0,0.0,0.0,0.0,0.0,0.0,0.0,0.0,0.0,0.0,0.0,0.0,0.0,0.0,0.0,0.0,0.0,0.0,0.0,0.0,0.0,0.0,0.0,0.0,0.0,0.0,0.0,0.0,0.0,0.0,0.0,0.0,0.0,0.0,0.0,0.0,0.0,0.0,0.0,0.0,0.0,0.0,0.0,0.0,0.0,0.0,0.0,0.0,0.0,0.0,0.0,0.0,0.0,0.0,0.0,0.0,0.0,0.0,0.0,0.0,0.0,0.0,0.0,0.0,0.0,0.0,0.0,0.0,0.0,0.0,0.0,0.0,0.0,0.0,0.0,0.0,0.0,0.0,0.0,0.0,0.0,0.0,0.0,0.0,0.0,0.0,0.0,0.0,0.0,0.0,0.0,0.0,0.0,0.0,0.0,0.0,0.0,0.0,0.0,0.0,0.0,0.0,0.0,0.0,0.0,0.0,0.0,0.0,0.0,0.0,0.0,0.0,0.0,0.0,0.0,0.0,0.0,0.0,0.0,0.0,0.0,0.0,0.0,0.0,0.0,0.0,0.0,0.0,0.0,0.0,0.0,0.0,0.0,0.0,0.0,0.0,0.0,0.0,0.0,0.0,0.0,0.0,0.0,0.0,0.0,0.0,0.0,0.0,0.0,0.0,0.0,0.0,0.0,0.0,0.0,0.0,0.0,0.0,0.0,0.0,0.0,0.0,0.0,0.0,0.0,0.0,0.0,0.0,0.0,0.0,0.0,0.0,0.0,0.0,0.0,0.0,0.0,0.0,0.0,0.0,0.0,0.0,0.0,0.0,0.0,0.0,0.0,0.0,0.0,0.0,0.0,0.0,0.0,0.0,0.0,0.0,0.0,0.0,0.0,0.0,0.0,0.0,0.0,0.0,0.0,0.0,0.0,0.0,0.0,0.0,0.0,0.0,0.0,0.0,0.0,0.0,0.0,0.0,0.0,0.0,0.0,0.0,0.0,0.0,0.0,0.0,0.0,0.0,0.0,0.0,0.0,0.0,0.0,0.0,0.0,0.0,0.0,0.0,0.0,0.0,0.0,0.0,0.0,0.0,0.0,0.0,0.0,0.0,0.0,0.0,0.0,0.0,0.0,0.0,0.0,0.0,0.0,0.0,0.0,0.0,0.0,0.0,0.0,0.0,0.0,0.0,0.0,0.0,0.0,0.0,0.0,0.0,0.0,0.0,0.0,0.0,0.0,0.0,0.0,0.0,0.0,0.0,0.0,0.0,0.0,0.0,0.0,0.0,0.0,0.0,0.0,0.0,0.0,0.0,0.0,0.0,0.0,0.0,0.0,0.0,0.0,0.0,0.0,0.0,0.0,0.0,0.0,0.0,0.0,0.0,0.0,0.0,0.0,0.0,0.0,0.0,0.0,0.0,0.0,0.0,0.0,0.0,0.0,0.0,0.0,0.0,0.0,0.0,0.0,0.0,0.0,0.0,0.0,0.0,0.0,0.0,0.0,0.0,0.0,0.0,0.0,0.0,0.0,0.0,0.0,0.0,0.0,0.0,0.0,0.0,0.0,0.0,0.0,0.0,0.0,0.0,0.0,0.0,0.0,0.0,0.0,0.0,0.0,0.0,0.0,0.0,0.0,0.0,0.0,0.0,0.0,0.0,0.0,0.0,0.0,0.0,0.0,0.0,0.0,0.0,0.0,0.0,0.0,0.0,0.0,0.0,0.0,0.0,0.0,0.0,0.0,0.0,0.0,0.0,0.0,0.0,0.0,0.0,0.0,0.0,0.0,0.0,0.0,0.0,0.0,0.0,0.0,0.0,0.0,0.0,0.0,0.0,0.0,0.0,0.0,0.0,0.0,0.0,0.0,0.0,0.0,0.0,0.0,0.0,0.0,0.0,0.0,0.0,0.0,0.0,0.0,0.0,0.0,0.0,0.0,0.0,0.0,0.0,0.0,0.0,0.0,0.0,0.0,0.0,0.0,0.0,0.0,0.0,0.0,0.0,0.0,0.0,0.0,0.0,0.0,0.0,0.0,0.0,0.0,0.0,0.0,0.0,0.0,0.0,0.0,0.0,0.0,0.0,0.0,0.0,0.0,0.0,0.0,0.0,0.0,0.0,0.0,0.0,0.0,0.0,0.0,0.0,0.0,0.0,0.0,0.0,0.0,0.0,0.0,0.0,0.0,0.0,0.0,0.0,0.0,0.0,0.0,0.0,0.0,0.0,0.0,0.0,0.0,0.0,0.0,0.0,0.0,0.0,0.0,0.0,0.0,0.0,0.0,0.0,0.0,0.0,0.0,0.0,0.0,0.0,0.0,0.0,0.0,0.0,0.0,0.0,0.0,0.0,0.0,0.0,0.0,0.0,0.0,0.0,0.0,0.0,0.0,0.0,0.0,0.0,0.0,0.0,0.0,0.0,0.0,0.0,0.0,0.0,0.0,0.0,0.0,0.0,0.0,0.0,0.0,0.0,0.0,0.0,0.0,0.0,0.0,0.0,0.0,0.0,0.0,0.0,0.0,0.0,0.0,0.0,0.0,0.0,0.0,0.0,0.0,0.0,0.0,0.0,0.0,0.0,0.0,0.0,0.0,0.0,0.0,0.0,0.0,0.0,0.0,0.0,0.0,0.0,0.0,0.0,0.0,0.0,0.0,0.0,0.0,0.0,0.0,0.0,0.0,0.0,0.0,0.0,0.0,0.0,0.0,0.0,0.0,0.0,0.0,0.0,0.0,0.0,0.0,0.0,0.0,0.0,0.0,0.0,0.0,0.0,0.0,0.0,0.0,0.0,0.0,0.0,0.0,0.0,0.0,0.0,0.0,0.0,0.0,0.0,0.0,0.0,0.0,0.0,0.0,0.0,0.0,0.0,0.0,0.0,0.0,0.0,0.0,0.0,0.0,0.0,0.0,0.0,0.0,0.0,0.0,0.0,-2.4216,0.0,0.0,0.0,0.0,0.0,0.0,0.0,0.0,0.0,0.0,0.0,0.0,0.0,0.0,0.0,0.0,0.0,0.0,0.0,0.0,0.0,0.0,0.0,0.0,0.0,0.0,0.0,0.0,0.0,0.0,0.0,0.0,0.0,0.0,0.0,0.0,0.0,0.0,0.0,0.0,0.0,0.0,0.0,0.0,0.0,0.0,0.0,0.0,0.0,0.0,0.0,0.0,0.0,0.0,0.0,0.0,0.0,0.0,0.0,0.0,0.0,0.0,0.0,0.0,0.0,0.0,0.0,0.0,0.0,0.0,0.0,0.0,0.0,0.0,0.0,0.0,0.0,0.0,0.0,0.0,0.0,0.0,0.0,0.0,0.0,0.0,0.0,0.0,0.0,0.0,0.0,0.0,0.0,0.0,0.0,0.0,0.0,0.0,0.0,0.0,0.0,0.0,0.0,0.0,0.0,0.0,0.0,0.0,0.0,0.0,-2.5356,-2.4948,-2.6051,-2.6106,-2.4948,0.0,0.0,0.0,0.0,0.0,0.0,0.0,0.0,0.0,0.0,0.0,0.0,0.0,0.0,0.0,0.0,0.0,0.0,0.0,0.0,0.0,0.0,0.0,0.0,0.0,0.0,0.0,0.0,0.0,0.0,0.0,0.0,0.0,0.0,0.0,0.0,0.0,0.0,0.0,0.0,0.0,0.0,0.0,0.0,0.0,0.0,0.0,0.0,0.0,0.0,0.0,0.0,0.0,0.0,0.0,0.0,0.0,0.0,0.0,0.0,0.0,0.0,0.0,0.0,0.0,0.0,0.0,0.0,0.0,0.0,0.0,0.0,0.0,0.0,0.0,0.0,0.0,0.0,0.0,0.0,0.0,0.0,0.0,0.0,0.0,0.0,0.0,0.0,0.0,0.0,0.0,0.0,0.0,0.0,0.0,0.0,0.0,0.0,0.0,0.0,0.0,0.0,0.0,0.0,0.0,0.0,0.0,0.0,0.0,0.0,0.0,0.0,-2.7507,-2.7563,-2.6553,0.0,0.0,0.0,0.0,0.0,0.0,0.0,0.0,0.0,0.0,0.0,0.0,0.0,0.0,0.0,0.0,0.0,0.0,0.0,0.0,0.0,0.0,0.0,0.0,0.0,0.0,0.0,0.0,0.0,0.0,0.0,0.0,0.0,0.0,0.0,0.0,0.0,0.0,0.0,0.0,0.0,0.0,0.0,0.0,0.0,0.0,0.0,0.0,0.0,0.0,0.0,0.0,0.0,0.0,0.0,0.0,0.0,0.0,0.0,0.0,0.0,0.0,0.0,0.0,0.0,0.0,0.0,0.0,0.0,0.0,0.0,0.0,0.0,0.0,0.0,0.0,0.0,0.0,0.0,0.0,0.0,0.0,0.0,0.0,0.0,0.0,0.0,0.0,0.0,0.0,0.0,0.0,0.0,0.0,0.0,0.0,0.0,0.0,0.0,0.0,0.0,0.0,0.0,0.0,0.0,0.0,0.0,0.0,0.0,0.0,-2.7524,-2.9851,-3.0646,0.0,-2.9925,0.0,0.0,0.0,0.0,0.0,0.0,0.0,0.0,0.0,0.0,0.0,0.0,0.0,0.0,0.0,0.0,0.0,0.0,0.0,0.0,0.0,0.0,0.0,0.0,0.0,0.0,0.0,0.0,0.0,0.0,0.0,0.0,0.0,0.0,0.0,0.0,0.0,0.0,0.0,0.0,0.0,0.0,0.0,0.0,0.0,0.0,0.0,0.0,0.0,0.0,0.0,0.0,0.0,0.0,0.0,0.0,0.0,0.0,0.0,0.0,0.0,0.0,0.0,0.0,0.0,0.0,0.0,0.0,0.0,0.0,0.0,0.0,0.0,0.0,0.0,0.0,0.0,0.0,0.0,0.0,0.0,0.0,0.0,0.0,0.0,0.0,0.0,0.0,0.0,0.0,0.0,0.0,0.0,0.0,0.0,0.0,0.0,0.0,0.0,0.0,0.0,0.0,0.0,0.0,0.0,0.0,0.0,0.0,0.0,0.0,-2.8751,-3.0984,-3.1351,-3.0994,0.0,0.0,0.0,0.0,0.0,0.0,0.0,0.0,0.0,0.0,0.0,0.0,0.0,0.0,0.0,0.0,0.0,0.0,0.0,0.0,0.0,0.0,0.0,0.0,0.0,0.0,0.0,0.0,0.0,0.0,0.0,0.0,0.0,0.0,0.0,0.0,0.0,0.0,0.0,0.0,0.0,0.0,0.0,0.0,0.0,0.0,0.0,0.0,0.0,0.0,0.0,0.0,0.0,0.0,0.0,0.0,0.0,0.0,0.0,0.0,0.0,0.0,0.0,0.0,0.0,0.0,0.0,0.0,0.0,0.0,0.0,0.0,0.0,0.0,0.0,0.0,0.0,0.0,0.0,0.0,0.0,0.0,0.0,0.0,0.0,0.0,0.0,0.0,0.0,0.0,0.0,0.0,0.0,0.0,0.0,0.0,0.0,0.0,0.0,0.0,0.0,0.0,0.0,0.0,0.0,0.0,0.0,0.0,0.0,0.0,-2.881,-3.0043,-3.2139,-3.1765,-3.1091,-3.0148,0.0,0.0,0.0,0.0,0.0,0.0,0.0,0.0,0.0,0.0,0.0,0.0,0.0,0.0,0.0,0.0,0.0,0.0,0.0,0.0,0.0,0.0,0.0,0.0,0.0,0.0,0.0,0.0,0.0,0.0,0.0,0.0,0.0,0.0,0.0,0.0,0.0,0.0,0.0,0.0,0.0,0.0,0.0,0.0,0.0,0.0,0.0,0.0,0.0,0.0,0.0,0.0,0.0,0.0,0.0,0.0,0.0,0.0,0.0,0.0,0.0,0.0,0.0,0.0,0.0,0.0,0.0,0.0,0.0,0.0,0.0,0.0,0.0,0.0,0.0,0.0,0.0,0.0,0.0,0.0,0.0,0.0,0.0,0.0,0.0,0.0,0.0,0.0,0.0,0.0,0.0,0.0,0.0,0.0,0.0,0.0,0.0,0.0,0.0,0.0,0.0,0.0,0.0,0.0,0.0,0.0,0.0,0.0,-3.2736,-3.1309,-3.1646,-3.4173,-3.2527,-3.1509,0.0,0.0,0.0,0.0,0.0,0.0,0.0,0.0,0.0,0.0,0.0,0.0,0.0,0.0,0.0,0.0,0.0,0.0,0.0,0.0,0.0,0.0,0.0,0.0,0.0,0.0,0.0,0.0,0.0,0.0,0.0,0.0,0.0,0.0,0.0,0.0,0.0,0.0,0.0,0.0,0.0,0.0,0.0,0.0,0.0,0.0,0.0,0.0,0.0,0.0,0.0,0.0,0.0,0.0,0.0,0.0,0.0,0.0,0.0,0.0,0.0,0.0,0.0,0.0,0.0,0.0,0.0,0.0,0.0,0.0,0.0,0.0,0.0,0.0,0.0,0.0,0.0,0.0,0.0,0.0,0.0,0.0,0.0,0.0,0.0,0.0,0.0,0.0,0.0,0.0,0.0,0.0,0.0,0.0,0.0,0.0,0.0,0.0,0.0,0.0,0.0,0.0,0.0,0.0,0.0,0.0,0.0,0.0,0.0,-2.9622,-3.0981,-3.2591,-3.4355,-3.294,-3.2091,0.0,0.0,0.0,0.0,0.0,0.0,0.0,0.0,0.0,0.0,0.0,0.0,0.0,0.0,0.0,0.0,0.0,0.0,0.0,0.0,0.0,0.0,0.0,0.0,0.0,0.0,0.0,0.0,0.0,0.0,0.0,0.0,0.0,0.0,0.0,0.0,0.0,0.0,0.0,0.0,0.0,0.0,0.0,0.0,0.0,0.0,0.0,0.0,0.0,0.0,0.0,0.0,0.0,0.0,0.0,0.0,0.0,0.0,0.0,0.0,0.0,0.0,0.0,0.0,0.0,0.0,0.0,0.0,0.0,0.0,0.0,0.0,0.0,0.0,0.0,0.0,0.0,0.0,0.0,0.0,0.0,0.0,0.0,0.0,0.0,0.0,0.0,0.0,0.0,0.0,0.0,0.0,0.0,0.0,0.0,0.0,0.0,0.0,0.0,0.0,0.0,0.0,0.0,0.0,0.0,0.0,0.0,0.0,0.0,-2.9598,0.0,-3.4229,-3.4467,-3.3455,-3.2327,0.0,0.0,0.0,0.0,0.0,0.0,0.0,0.0,0.0,0.0,0.0,0.0,0.0,0.0,0.0,0.0,0.0,0.0,0.0,0.0,0.0,0.0,0.0,0.0,0.0,0.0,0.0,0.0,0.0,0.0,0.0,0.0,0.0,0.0,0.0,0.0,0.0,0.0,0.0,0.0,0.0,0.0,0.0,0.0,0.0,0.0,0.0,0.0,0.0,0.0,0.0,0.0,0.0,0.0,0.0,0.0,0.0,0.0,0.0,0.0,0.0,0.0,0.0,0.0,0.0,0.0,0.0,0.0,0.0,0.0,0.0,0.0,0.0,0.0,0.0,0.0,0.0,0.0,0.0,0.0,0.0,0.0,0.0,0.0,0.0,0.0,0.0,0.0,0.0,0.0,0.0,0.0,0.0,0.0,0.0,0.0,0.0,0.0,0.0,0.0,0.0,0.0,0.0,0.0,0.0,0.0,0.0,0.0,-2.9583,-3.3432,-3.6131,-3.657,-3.4739,-3.4116,-3.2211,0.0,0.0,0.0,0.0,0.0,0.0,0.0,0.0,0.0,0.0,0.0,0.0,0.0,0.0,0.0,0.0,0.0,0.0,0.0,0.0,0.0,0.0,0.0,0.0,0.0,0.0,0.0,0.0,0.0,0.0,0.0,0.0,0.0,0.0,0.0,0.0,0.0,0.0,0.0,0.0,0.0,0.0,0.0,0.0,0.0,0.0,0.0,0.0,0.0,0.0,0.0,0.0,0.0,0.0,0.0,0.0,0.0,0.0,0.0,0.0,0.0,0.0,0.0,0.0,0.0,0.0,0.0,0.0,0.0,0.0,0.0,0.0,0.0,0.0,0.0,0.0,0.0,0.0,0.0,0.0,0.0,0.0,0.0,0.0,0.0,0.0,0.0,0.0,0.0,0.0,0.0,0.0,0.0,0.0,0.0,0.0,0.0,0.0,0.0,0.0,0.0,0.0,0.0,0.0,0.0,0.0,0.0,0.0,0.0,-3.1659,-3.4265,-3.6533,-3.8178,-3.4888,-3.3456,0.0,0.0,0.0,0.0,0.0,0.0,0.0,0.0,0.0,0.0,0.0,0.0,0.0,0.0,0.0,0.0,0.0,0.0,0.0,0.0,0.0,0.0,0.0,0.0,0.0,0.0,0.0,0.0,0.0,0.0,0.0,0.0,0.0,0.0,0.0,0.0,0.0,0.0,0.0,0.0,0.0,0.0,0.0,0.0,0.0,0.0,0.0,0.0,0.0,0.0,0.0,0.0,0.0,0.0,0.0,0.0,0.0,0.0,0.0,0.0,0.0,0.0,0.0,0.0,0.0,0.0,0.0,0.0,0.0,0.0,0.0,0.0,0.0,0.0,0.0,0.0,0.0,0.0,0.0,0.0,0.0,0.0,0.0,0.0,0.0,0.0,0.0,0.0,0.0,0.0,0.0,0.0,0.0,0.0,0.0,0.0,0.0,0.0,0.0,0.0,0.0,0.0,0.0,0.0,0.0,0.0,0.0,0.0,0.0,-3.3909,-3.6486,-3.8723,-4.0484,-3.7026,-3.5203,-3.5252,0.0,0.0,0.0,0.0,0.0,0.0,0.0,0.0,0.0,0.0,0.0,0.0,0.0,0.0,0.0,0.0,0.0,0.0,0.0,0.0,0.0,0.0,0.0,0.0,0.0,0.0,0.0,0.0,0.0,0.0,0.0,0.0,0.0,0.0,0.0,0.0,0.0,0.0,0.0,0.0,0.0,0.0,0.0,0.0,0.0,0.0,0.0,0.0,0.0,0.0,0.0,0.0,0.0,0.0,0.0,0.0,0.0,0.0,0.0,0.0,0.0,0.0,0.0,0.0,0.0,0.0,0.0,0.0,0.0,0.0,0.0,0.0,0.0,0.0,0.0,0.0,0.0,0.0,0.0,0.0,0.0,0.0,0.0,0.0,0.0,0.0,0.0,0.0,0.0,0.0,0.0,0.0,0.0,0.0,0.0,0.0,0.0,0.0,0.0,0.0,0.0,0.0,0.0,0.0,0.0,0.0,0.0,0.0,-3.9301,-4.2108,-4.288,-4.1721,-4.0064,-3.7365,0.0,0.0,0.0,0.0,0.0,0.0,0.0,0.0,0.0,0.0,0.0,0.0,0.0,0.0,0.0,0.0,0.0,0.0,0.0,0.0,0.0,0.0,0.0,0.0,0.0,0.0,0.0,0.0,0.0,0.0,0.0,0.0,0.0,0.0,0.0,0.0,0.0,0.0,0.0,0.0,0.0,0.0,0.0,0.0,0.0,0.0,0.0,0.0,0.0,0.0,0.0,0.0,0.0,0.0,0.0,0.0,0.0,0.0,0.0,0.0,0.0,0.0,0.0,0.0,0.0,0.0,0.0,0.0,0.0,0.0,0.0,0.0,0.0,0.0,0.0,0.0,0.0,0.0,0.0,0.0,0.0,0.0,0.0,0.0,0.0,0.0,0.0,0.0,0.0,0.0,0.0,0.0,0.0,0.0,0.0,0.0,0.0,0.0,0.0,0.0,0.0,0.0,0.0,0.0,0.0,0.0,0.0,0.0,0.0,-4.1494,-4.5166,-4.6981,-4.6562,-4.188,-3.8675,0.0,0.0,0.0,0.0,0.0,0.0,0.0,0.0,0.0,0.0,0.0,0.0,0.0,0.0,0.0,0.0,0.0,0.0,0.0,0.0,0.0,0.0,0.0,0.0,0.0,0.0,0.0,0.0,0.0,0.0,0.0,0.0,0.0,0.0,0.0,0.0,0.0,0.0,0.0,0.0,0.0,0.0,0.0,0.0,0.0,0.0,0.0,0.0,0.0,0.0,0.0,0.0,0.0,0.0,0.0,0.0,0.0,0.0,0.0,0.0,0.0,0.0,0.0,0.0,0.0,0.0,0.0,0.0,0.0,0.0,0.0,0.0,0.0,0.0,0.0,0.0,0.0,0.0,0.0,0.0,0.0,0.0,0.0,0.0,0.0,0.0,0.0,0.0,0.0,0.0,0.0,0.0,0.0,0.0,0.0,0.0,0.0,0.0,0.0,0.0,0.0,0.0,0.0,0.0,0.0,0.0,0.0,0.0,-3.8846,-4.317,-4.6526,-4.8722,-4.9726,-4.5516,-4.1884,0.0,0.0,0.0,0.0,0.0,0.0,0.0,0.0,0.0,0.0,0.0,0.0,0.0,0.0,0.0,0.0,0.0,0.0,0.0,0.0,0.0,0.0,0.0,0.0,0.0,0.0,0.0,0.0,0.0,0.0,0.0,0.0,0.0,0.0,0.0,0.0,0.0,0.0,0.0,0.0,0.0,0.0,0.0,0.0,0.0,0.0,0.0,0.0,0.0,0.0,0.0,0.0,0.0,0.0,0.0,0.0,0.0,0.0,0.0,0.0,0.0,0.0,0.0,0.0,0.0,0.0,0.0,0.0,0.0,0.0,0.0,0.0,0.0,0.0,0.0,0.0,0.0,0.0,0.0,0.0,0.0,0.0,0.0,0.0,0.0,0.0,0.0,0.0,0.0,0.0,0.0,0.0,0.0,0.0,0.0,0.0,0.0,0.0,0.0,0.0,0.0,0.0,0.0,0.0,0.0,0.0,0.0,0.0,-4.0455,-4.4375,-4.6755,-4.8967,-5.1119,-4.9192,-4.5351,0.0,0.0,0.0,0.0,0.0,0.0,0.0,0.0,0.0,0.0,0.0,0.0,0.0,0.0,0.0,0.0,0.0,0.0,0.0,0.0,0.0,0.0,0.0,0.0,0.0,0.0,0.0,0.0,0.0,0.0,0.0,0.0,0.0,0.0,0.0,0.0,0.0,0.0,0.0,0.0,0.0,0.0,0.0,0.0,0.0,0.0,0.0,0.0,0.0,0.0,0.0,0.0,0.0,0.0,0.0,0.0,0.0,0.0,0.0,0.0,0.0,0.0,0.0,0.0,0.0,0.0,0.0,0.0,0.0,0.0,0.0,0.0,0.0,0.0,0.0,0.0,0.0,0.0,0.0,0.0,0.0,0.0,0.0,0.0,0.0,0.0,0.0,0.0,0.0,0.0,0.0,0.0,0.0,0.0,0.0,0.0,0.0,0.0,0.0,0.0,0.0,0.0,0.0,0.0,0.0,0.0,0.0,0.0,-4.0735,-4.3999,-4.7092,-4.9313,-5.0527,-4.6882,-4.3407,0.0,0.0,0.0,0.0,0.0,0.0,0.0,0.0,0.0,0.0,0.0,0.0,0.0,0.0,0.0,0.0,0.0,0.0,0.0,0.0,0.0,0.0,0.0,0.0,0.0,0.0,0.0,0.0,0.0,0.0,0.0,0.0,0.0,0.0,0.0,0.0,0.0,0.0,0.0,0.0,0.0,0.0,0.0,0.0,0.0,0.0,0.0,0.0,-3.5524,0.0,0.0,0.0,0.0,0.0,0.0,0.0,0.0,0.0,0.0,0.0,0.0,0.0,0.0,0.0,0.0,0.0,0.0,0.0,0.0,0.0,0.0,0.0,0.0,0.0,0.0,0.0,0.0,0.0,0.0,0.0,0.0,0.0,0.0,0.0,0.0,0.0,0.0,0.0,0.0,0.0,0.0,0.0,0.0,0.0,0.0,0.0,0.0,0.0,0.0,0.0,0.0,0.0,0.0,0.0,0.0,0.0,0.0,0.0,-4.0682,-4.3407,-4.6232,-4.8368,-4.9441,-4.6623,-4.3625,0.0,0.0,0.0,0.0,0.0,0.0,0.0,0.0,0.0,0.0,0.0,0.0,0.0,0.0,0.0,0.0,0.0,0.0,0.0,0.0,0.0,0.0,0.0,0.0,0.0,0.0,0.0,0.0,0.0,0.0,0.0,0.0,0.0,0.0,0.0,0.0,0.0,0.0,0.0,0.0,0.0,0.0,0.0,0.0,0.0,0.0,0.0,0.0,0.0,0.0,0.0,0.0,0.0,0.0,0.0,0.0,0.0,0.0,0.0,0.0,0.0,0.0,0.0,0.0,0.0,0.0,0.0,0.0,0.0,0.0,0.0,0.0,0.0,0.0,0.0,0.0,0.0,0.0,0.0,0.0,0.0,0.0,0.0,0.0,0.0,0.0,0.0,0.0,0.0,0.0,0.0,0.0,0.0,0.0,0.0,0.0,0.0,0.0,0.0,0.0,0.0,0.0,0.0,0.0,0.0,0.0,0.0,-3.718,-4.0383,-4.2762,-4.4996,-4.6849,-4.8327,-4.7159,-4.4659,-4.1009,0.0,0.0,0.0,0.0,0.0,0.0,0.0,0.0,0.0,0.0,0.0,0.0,0.0,0.0,0.0,0.0,0.0,0.0,0.0,0.0,0.0,0.0,0.0,0.0,0.0,0.0,0.0,0.0,0.0,0.0,0.0,0.0,0.0,0.0,0.0,0.0,0.0,0.0,-2.8808,-3.1035,0.0,0.0,0.0,0.0,0.0,0.0,0.0,0.0,-3.8762,0.0,0.0,0.0,0.0,0.0,0.0,0.0,0.0,0.0,0.0,0.0,0.0,0.0,0.0,0.0,0.0,0.0,0.0,0.0,0.0,0.0,0.0,0.0,0.0,0.0,0.0,0.0,0.0,0.0,0.0,0.0,0.0,0.0,0.0,0.0,0.0,0.0,0.0,0.0,0.0,0.0,0.0,0.0,0.0,0.0,0.0,0.0,0.0,0.0,0.0,0.0,0.0,0.0,0.0,0.0,0.0,-3.5774,-3.7644,-3.9884,-4.2439,-4.4398,-4.5852,-4.668,-4.6991,-4.5042,-4.0708,0.0,0.0,0.0,0.0,0.0,0.0,0.0,0.0,0.0,0.0,0.0,0.0,0.0,0.0,0.0,0.0,0.0,0.0,0.0,0.0,0.0,0.0,0.0,0.0,0.0,0.0,0.0,0.0,0.0,0.0,0.0,0.0,0.0,0.0,0.0,0.0,0.0,0.0,0.0,-3.347,-3.45,0.0,0.0,0.0,0.0,0.0,0.0,0.0,0.0,-4.0546,0.0,0.0,0.0,0.0,0.0,0.0,0.0,0.0,0.0,0.0,0.0,0.0,0.0,0.0,0.0,0.0,0.0,0.0,0.0,0.0,0.0,0.0,0.0,0.0,0.0,0.0,0.0,0.0,0.0,0.0,0.0,0.0,0.0,0.0,0.0,0.0,0.0,0.0,0.0,0.0,0.0,0.0,0.0,0.0,0.0,0.0,0.0,0.0,0.0,0.0,0.0,0.0,0.0,0.0,0.0,-3.5385,-3.7734,-3.9873,-4.1833,-4.3778,-4.511,-4.5738,-4.5469,-4.3883,0.0,0.0,0.0,0.0,0.0,0.0,0.0,0.0,0.0,0.0,0.0,0.0,0.0,0.0,0.0,0.0,0.0,0.0,0.0,0.0,0.0,0.0,0.0,0.0,0.0,0.0,0.0,0.0,0.0,0.0,0.0,0.0,0.0,0.0,0.0,0.0,0.0,0.0,0.0,0.0,-3.4876,-3.5868,-3.6709,0.0,0.0,0.0,0.0,0.0,0.0,-3.9862,-4.0411,0.0,0.0,0.0,0.0,0.0,0.0,0.0,0.0,0.0,0.0,0.0,0.0,0.0,0.0,0.0,0.0,0.0,0.0,0.0,0.0,0.0,0.0,0.0,0.0,0.0,0.0,0.0,0.0,0.0,0.0,0.0,0.0,0.0,0.0,0.0,0.0,0.0,0.0,0.0,0.0,0.0,0.0,0.0,0.0,0.0,0.0,0.0,0.0,0.0,0.0,0.0,0.0,0.0,0.0,0.0,-3.4696,-3.7674,-3.9918,-4.1384,-4.3299,-4.4571,-4.505,-4.4242,-4.2955,0.0,0.0,0.0,0.0,0.0,0.0,0.0,0.0,0.0,0.0,0.0,0.0,0.0,0.0,0.0,0.0,0.0,0.0,0.0,0.0,0.0,0.0,0.0,0.0,0.0,0.0,0.0,0.0,0.0,0.0,0.0,0.0,0.0,0.0,0.0,0.0,0.0,0.0,0.0,0.0,0.0,-3.7274,-3.7914,-3.7626,0.0,0.0,0.0,0.0,-3.856,-4.0163,0.0,0.0,0.0,0.0,0.0,0.0,0.0,0.0,0.0,0.0,0.0,0.0,0.0,0.0,0.0,0.0,0.0,0.0,0.0,0.0,0.0,0.0,0.0,0.0,0.0,0.0,0.0,0.0,0.0,0.0,0.0,0.0,0.0,0.0,0.0,0.0,0.0,0.0,0.0,0.0,0.0,0.0,0.0,0.0,0.0,0.0,0.0,0.0,0.0,0.0,0.0,0.0,0.0,0.0,0.0,0.0,-3.5355,-3.7449,-3.9454,-4.1354,-4.3284,-4.4347,-4.4436,-4.484,-4.3643,0.0,0.0,0.0,0.0,0.0,0.0,0.0,0.0,0.0,0.0,0.0,0.0,0.0,0.0,0.0,0.0,0.0,0.0,0.0,0.0,0.0,0.0,0.0,0.0,0.0,0.0,0.0,0.0,0.0,0.0,0.0,0.0,0.0,0.0,0.0,0.0,0.0,0.0,0.0,0.0,0.0,-3.8994,-3.8128,-3.7965,-3.8095,0.0,0.0,-4.0331,-4.3162,-4.5445,0.0,0.0,0.0,0.0,0.0,0.0,0.0,0.0,0.0,0.0,0.0,0.0,0.0,0.0,0.0,0.0,0.0,0.0,0.0,0.0,0.0,0.0,0.0,0.0,0.0,0.0,0.0,0.0,0.0,0.0,0.0,0.0,0.0,0.0,0.0,0.0,0.0,0.0,0.0,0.0,0.0,0.0,0.0,0.0,0.0,0.0,0.0,0.0,0.0,0.0,0.0,0.0,0.0,0.0,0.0,-3.3215,-3.5489,-3.7793,-3.9753,-4.1354,-4.2925,-4.3928,-4.4302,-4.3165,-4.1863,0.0,0.0,0.0,0.0,0.0,0.0,0.0,0.0,0.0,0.0,0.0,0.0,0.0,0.0,0.0,0.0,0.0,0.0,0.0,0.0,0.0,0.0,0.0,0.0,0.0,0.0,0.0,0.0,0.0,0.0,0.0,0.0,0.0,0.0,0.0,0.0,0.0,0.0,0.0,0.0,0.0,0.0,-3.9358,-3.9433,0.0,0.0,0.0,-3.9972,-4.1788,0.0,0.0,0.0,0.0,0.0,0.0,0.0,0.0,0.0,0.0,0.0,0.0,0.0,0.0,0.0,0.0,0.0,0.0,0.0,0.0,0.0,0.0,0.0,0.0,0.0,0.0,0.0,0.0,0.0,0.0,0.0,0.0,0.0,0.0,0.0,0.0,0.0,0.0,0.0,0.0,0.0,0.0,0.0,0.0,0.0,0.0,0.0,0.0,0.0,0.0,0.0,0.0,0.0,0.0,0.0,0.0,0.0,-3.5504,-3.8078,-4.0053,-4.1354,-4.2656,-4.3494,-4.3778,-4.1758,0.0,0.0,0.0,0.0,0.0,0.0,0.0,0.0,0.0,0.0,0.0,0.0,0.0,0.0,0.0,0.0,0.0,0.0,0.0,0.0,0.0,0.0,0.0,0.0,0.0,0.0,0.0,-2.6345,0.0,0.0,0.0,0.0,0.0,0.0,0.0,0.0,0.0,0.0,0.0,0.0,0.0,0.0,-3.8555,-4.0099,-4.0651,-4.1078,0.0,0.0,-4.0121,-4.1376,-4.197,-4.1399,0.0,0.0,0.0,0.0,0.0,0.0,0.0,0.0,0.0,0.0,0.0,0.0,0.0,0.0,0.0,0.0,0.0,0.0,0.0,0.0,0.0,0.0,0.0,0.0,0.0,0.0,0.0,0.0,0.0,0.0,0.0,0.0,0.0,0.0,0.0,0.0,0.0,0.0,0.0,0.0,0.0,0.0,0.0,0.0,0.0,0.0,0.0,0.0,0.0,0.0,0.0,0.0,0.0,0.0,-3.4128,-3.5534,-3.8093,-4.0053,-4.1354,-4.2671,-4.306,-4.2506,-4.1728,-4.0442,0.0,0.0,0.0,0.0,0.0,0.0,0.0,0.0,0.0,0.0,0.0,0.0,0.0,0.0,0.0,0.0,0.0,0.0,0.0,0.0,0.0,0.0,0.0,0.0,0.0,0.0,0.0,0.0,0.0,0.0,0.0,0.0,0.0,0.0,0.0,0.0,0.0,0.0,0.0,0.0,0.0,-3.8429,-3.9584,-4.1065,-4.2585,0.0,-4.2974,-4.2614,-4.4359,-4.6104,-4.5235,-3.9401,0.0,0.0,0.0,0.0,0.0,0.0,0.0,0.0,0.0,0.0,0.0,0.0,0.0,0.0,0.0,0.0,0.0,0.0,0.0,0.0,0.0,0.0,0.0,0.0,0.0,0.0,0.0,0.0,0.0,0.0,0.0,0.0,0.0,0.0,0.0,0.0,0.0,0.0,0.0,0.0,0.0,0.0,0.0,0.0,0.0,0.0,0.0,0.0,0.0,0.0,0.0,0.0,0.0,-3.4158,-3.5504,-3.7659,-3.9619,-4.1324,-4.2267,-4.2806,-4.2955,-4.1336,-3.9733,0.0,0.0,0.0,0.0,0.0,0.0,0.0,0.0,0.0,0.0,0.0,0.0,0.0,0.0,0.0,0.0,0.0,0.0,0.0,0.0,0.0,0.0,0.0,0.0,0.0,0.0,0.0,0.0,-2.7067,-2.7005,-2.6678,0.0,0.0,0.0,0.0,0.0,0.0,0.0,0.0,0.0,0.0,-3.9195,-4.0965,-4.2045,0.0,0.0,-4.3463,-4.2793,-4.4543,-4.363,-4.1787,-3.8679,-3.7378,0.0,0.0,0.0,0.0,0.0,0.0,0.0,0.0,0.0,0.0,0.0,0.0,0.0,0.0,0.0,0.0,0.0,0.0,0.0,0.0,0.0,0.0,0.0,0.0,0.0,0.0,0.0,0.0,0.0,0.0,0.0,0.0,0.0,0.0,0.0,0.0,0.0,0.0,0.0,0.0,0.0,0.0,0.0,0.0,0.0,0.0,0.0,0.0,0.0,0.0,0.0,0.0,-3.4158,-3.5489,-3.7614,-3.9574,-4.1339,-4.1867,-4.2258,-4.24,-4.0357,-3.8617,0.0,0.0,0.0,0.0,0.0,0.0,0.0,0.0,0.0,0.0,0.0,0.0,0.0,0.0,0.0,0.0,0.0,0.0,0.0,0.0,0.0,0.0,0.0,0.0,0.0,0.0,0.0,0.0,-2.7833,-2.7708,-2.7318,0.0,0.0,0.0,0.0,0.0,0.0,0.0,0.0,0.0,0.0,-3.9735,-4.1417,-4.2421,-4.3388,-4.4568,-4.3137,-4.2308,-4.3463,-4.1831,-3.976,-3.7826,0.0,0.0,0.0,0.0,0.0,0.0,0.0,0.0,0.0,0.0,0.0,0.0,0.0,0.0,0.0,0.0,0.0,0.0,0.0,0.0,0.0,0.0,0.0,0.0,0.0,0.0,0.0,0.0,0.0,0.0,-3.4412,0.0,0.0,0.0,0.0,0.0,0.0,0.0,0.0,0.0,0.0,0.0,0.0,0.0,0.0,0.0,0.0,0.0,0.0,0.0,0.0,0.0,0.0,-3.4173,-3.5519,-3.7978,-3.9949,-4.1293,-4.1522,-4.127,-4.0627,-3.8879,-3.7125,-3.5361,0.0,0.0,0.0,0.0,0.0,0.0,0.0,0.0,0.0,0.0,0.0,0.0,0.0,0.0,0.0,0.0,0.0,0.0,0.0,0.0,0.0,0.0,0.0,0.0,0.0,0.0,-2.8863,-2.7946,-2.7318,0.0,0.0,0.0,0.0,0.0,0.0,0.0,0.0,0.0,0.0,-3.7249,-3.9898,-4.0501,-4.1944,-4.3011,-4.3074,-4.212,-4.1417,-4.153,-4.1781,-4.0802,0.0,0.0,0.0,0.0,0.0,0.0,0.0,0.0,0.0,0.0,0.0,0.0,0.0,0.0,0.0,0.0,0.0,0.0,0.0,0.0,0.0,0.0,0.0,0.0,0.0,0.0,0.0,-3.6761,-3.6746,0.0,0.0,0.0,0.0,0.0,0.0,0.0,0.0,0.0,0.0,0.0,-3.6462,-3.712,0.0,0.0,0.0,0.0,0.0,0.0,0.0,0.0,0.0,0.0,0.0,0.0,-3.4053,-3.559,-3.6327,-3.7664,-3.9666,-3.9802,-3.9872,-4.0082,-3.8388,-3.6127,-3.3303,0.0,0.0,0.0,0.0,0.0,0.0,0.0,0.0,0.0,0.0,0.0,0.0,0.0,0.0,0.0,0.0,0.0,0.0,0.0,0.0,0.0,0.0,0.0,0.0,0.0,-2.934,0.0,0.0,0.0,0.0,0.0,0.0,0.0,0.0,0.0,0.0,0.0,-3.4938,-3.5458,-3.7939,-4.0023,-4.094,-4.2158,-4.3112,0.0,0.0,0.0,0.0,0.0,0.0,0.0,0.0,0.0,0.0,0.0,0.0,0.0,0.0,-4.0162,-3.6508,-3.5378,-3.5052,-3.5228,0.0,0.0,0.0,0.0,0.0,0.0,0.0,0.0,0.0,0.0,0.0,0.0,0.0,0.0,-3.8018,0.0,-3.7943,0.0,0.0,0.0,0.0,0.0,0.0,0.0,0.0,-3.7701,-3.8104,-3.7868,-3.8324,-3.7652,0.0,-3.6425,-3.5669,0.0,0.0,0.0,0.0,0.0,0.0,0.0,0.0,-3.3521,-3.4848,-3.5363,-3.6515,-3.8242,-3.8314,-3.8551,-3.8945,-3.7263,-3.5313,-3.3131,-3.1851,-3.0746,0.0,0.0,0.0,0.0,0.0,0.0,0.0,0.0,0.0,0.0,0.0,0.0,0.0,0.0,0.0,0.0,0.0,0.0,0.0,0.0,0.0,0.0,0.0,-2.9566,0.0,0.0,0.0,0.0,0.0,0.0,0.0,0.0,0.0,-3.3957,-3.518,-3.6122,-3.6855,-3.8693,-4.0237,-4.0953,0.0,0.0,0.0,0.0,0.0,0.0,0.0,-4.0626,-4.0777,-3.903,-3.8066,-3.9611,-4.1566,-4.2925,-4.2559,0.0,0.0,-3.932,-3.8078,-3.7688,-3.8065,-3.8404,-3.863,-3.863,-3.9371,-3.9699,0.0,0.0,0.0,0.0,0.0,0.0,0.0,0.0,-3.8586,-3.929,0.0,-3.9095,0.0,0.0,0.0,0.0,0.0,-3.8426,0.0,0.0,-4.0271,-4.0416,-3.8732,-3.8713,-3.81,-3.7071,-3.8601,-3.791,-3.5004,-3.2746,0.0,0.0,0.0,0.0,0.0,0.0,-3.2822,-3.3482,-3.5159,-3.6436,-3.7043,-3.715,-3.7237,-3.725,-3.5609,-3.47,-3.4625,-3.3056,-3.1926,-3.1373,-3.0859,0.0,0.0,0.0,0.0,0.0,0.0,0.0,0.0,0.0,0.0,0.0,0.0,0.0,0.0,0.0,0.0,0.0,0.0,0.0,0.0,-2.9453,0.0,0.0,0.0,0.0,0.0,0.0,0.0,0.0,0.0,0.0,-3.624,-3.7456,-3.8108,-3.8038,0.0,0.0,0.0,0.0,-4.1178,-4.0714,-4.1492,-4.202,-4.153,-4.2672,-4.3112,-4.163,0.0,0.0,-4.5845,-4.6178,-4.5451,-4.3438,-4.3463,-4.3966,-4.4392,-4.2547,-4.1459,-4.2399,-4.176,-4.1272,-4.1309,-4.1547,-4.1902,-4.2865,0.0,0.0,0.0,0.0,-4.0442,-4.1055,-4.1908,-4.1923,-4.1878,-4.1743,-4.0891,0.0,0.0,0.0,0.0,0.0,0.0,-3.8696,-3.8594,-3.9154,-3.927,-3.8894,-3.9349,-3.891,-3.7798,-3.7879,-3.6644,-3.4301,-3.3173,-3.2435,-3.1954,0.0,0.0,0.0,0.0,-3.2595,-3.3594,-3.3888,-3.4418,-3.5373,-3.5468,-3.5659,-3.6042,-3.5171,-3.455,-3.4148,-3.2905,-3.1788,-3.0884,-3.0696,0.0,0.0,0.0,0.0,0.0,0.0,0.0,0.0,0.0,0.0,0.0,0.0,0.0,0.0,0.0,0.0,0.0,0.0,0.0,-2.9503,-2.9704,-2.9729,0.0,0.0,0.0,0.0,0.0,0.0,0.0,0.0,0.0,-3.8278,-3.9686,-3.9947,0.0,0.0,-4.0526,-4.0526,-4.0978,-4.1417,-4.1643,-4.2283,0.0,-4.2534,-4.2233,-4.2158,-4.2446,-4.275,-4.3425,-4.4852,-4.5043,-4.4913,-4.4192,-4.3953,-4.3966,-4.4392,-4.3175,-4.1767,-4.1314,-4.157,-4.1743,-4.1347,-4.1975,-4.2708,-4.6157,-4.4003,-4.2716,-4.2177,-4.2192,-4.2432,-4.2985,-4.3718,-4.3718,-4.3808,-4.3853,-4.2671,-4.1489,-4.0262,-3.8841,0.0,0.0,0.0,-3.9244,-3.9067,-3.9125,-3.8911,-3.8594,-3.8729,-3.8345,-3.7481,-3.7271,-3.6184,-3.4223,-3.4069,-3.3442,-3.2442,0.0,0.0,-3.1527,-3.1889,-3.2391,-3.3088,-3.3107,-3.3407,-3.4048,-3.4274,-3.4663,-3.5177,-3.4901,-3.4575,-3.4223,-3.3357,-3.2491,-3.1637,-3.116,-3.0419,0.0,0.0,0.0,0.0,0.0,0.0,0.0,0.0,0.0,0.0,0.0,-2.8348,-2.7356,0.0,0.0,0.0,-2.8812,-2.949,-3.0055,-3.0495,0.0,0.0,0.0,0.0,0.0,0.0,0.0,-3.2091,-3.42,-3.6714,-3.9398,-4.0273,-4.0478,-3.9964,-4.0237,-4.0664,-4.1103,0.0,-4.1781,-4.2108,-4.2811,-4.3313,-4.33,-4.2748,-4.2607,-4.3517,-4.3662,-4.3438,-4.3224,-4.3612,-4.3989,-4.3851,-4.3221,-4.268,-4.2778,-4.133,-4.0716,-4.1795,-4.2646,-4.2722,-4.1564,-4.1795,-4.2275,-4.888,-4.8027,-4.499,-4.3688,-4.3703,-4.4302,-4.4541,-4.4541,-4.4556,-4.5214,-4.6157,-4.4272,-4.328,-4.2932,-4.0621,0.0,-3.9624,-4.0256,-4.0238,-3.9686,-3.9655,-3.9107,-3.8044,-3.7432,-3.686,-3.6439,-3.6884,-3.6251,-3.4866,-3.5227,-3.4373,-3.2353,-3.1838,-3.1524,-3.1424,-3.1926,-3.2202,-3.2215,-3.278,-3.3081,-3.3093,-3.3608,-3.4135,-3.4638,-3.4663,-3.465,-3.4638,-3.411,-3.3571,-3.3006,-3.1964,-3.0922,-2.9905,0.0,0.0,0.0,0.0,0.0,0.0,0.0,0.0,0.0,0.0,0.0,0.0,0.0,0.0,0.0,-2.9264,0.0,-3.0553,-3.1492,0.0,0.0,0.0,-3.1392,-3.192,-3.3391,-3.4125,-3.3436,0.0,0.0,-3.9697,-3.9737,-4.0016,-4.0989,-4.0746,-4.0902,-4.1944,-4.2045,-4.2095,-4.2057,-4.2949,-4.3627,-4.3401,-4.3363,-4.3424,-4.3945,-4.4377,-4.3419,-4.1716,-4.1508,-4.2275,-4.2538,-4.1537,-4.0354,-3.9855,-3.8341,-3.8309,-4.2872,-4.3718,-4.313,-4.1117,-4.0514,-4.0671,-4.888,-4.8177,-4.6905,-4.6367,-4.6381,-4.6516,-4.6591,-4.6591,-4.6591,-4.6501,-4.6217,-4.4751,-4.2998,-4.1126,-4.101,-4.0684,-4.0235,-4.0526,-4.0295,-3.9748,-3.8814,-3.8112,-3.7438,-3.6874,-3.6483,-3.6452,-3.6489,-3.6147,-3.5341,-3.5046,-3.4426,-3.3533,-3.337,-3.2667,-3.1461,-3.1938,-3.2202,-3.2202,-3.278,-3.3081,-3.3093,-3.3608,-3.396,-3.4085,-3.4098,-3.4098,-3.4085,-3.3571,-3.3006,-3.2441,-3.1763,-3.1085,-3.0444,-2.9352,0.0,0.0,0.0,0.0,0.0,0.0,0.0,0.0,0.0,-2.9076,-2.7406,0.0,-2.9051,0.0,-3.0236,-3.076,-3.0708,-3.0802,0.0,0.0,-3.2284,-3.2581,-3.25,-3.4844,-3.6296,-3.5705,-3.7213,-3.8776,-3.9615,-3.973,-3.9798,-4.0045,-4.0301,-4.0764,-4.143,-4.153,-4.1543,-4.1605,-4.2133,-4.2384,-4.2057,-4.1919,-4.1907,-4.2011,-4.2061,-4.1547,-4.0301,-3.8351,-3.7769,-3.9459,-3.8805,-3.7828,-3.76,-3.7247,-3.7189,-3.847,-3.87,-3.8331,-3.7033,-3.7311,-3.7942,-4.888,-4.8252,-4.7893,-4.7563,-4.7309,-4.7309,-4.7309,-4.7309,-4.7309,-4.71,-4.6681,-4.5349,-4.3827,-4.2216,-4.193,-4.1721,-4.1325,-4.0813,-4.02,-3.9329,-3.8412,-3.7713,-3.7174,-3.6621,-3.637,-3.637,-3.637,-3.6081,-3.5542,-3.4989,-3.4449,-3.3909,-3.3646,-3.3068,-3.2215,-3.2692,-3.2968,-3.2968,-3.3031,-3.3081,-3.3093,-3.337,-3.3533,-3.352,-3.3282,-3.3156,-3.3144,-3.2616,-3.2177,-3.1851,-3.1336,-3.0909,-3.0608,-2.9553,-2.88,0.0,0.0,0.0,0.0,0.0,0.0,0.0,0.0,0.0,0.0,0.0,-2.9658,-3.0139,-3.0877,-3.1193,-3.1109,-3.1516,-3.1813,-3.1961,-3.2406,-3.2677,-3.2632,-3.3939,-3.5025,-3.5666,-3.6296,-3.7508,-3.9346,-3.7405,-3.634,-3.757,-3.801,-3.8982,-4.0819,-4.1329,-4.1329,-4.1342,-4.1605,-4.1605,-4.1053,-4.0978,-4.089,-4.0545,-3.9841,-3.8885,-3.7881,-3.6306,-3.568,-3.7019,-3.6365,-3.5534,-3.5233,-3.4619,-3.4231,-3.4008,-3.3955,-3.4169,-3.4739,-3.5263,-3.5496,-4.876,-4.8147,-4.8162,-4.7833,-4.7309,-4.7309,-4.7309,-4.7309,-4.7309,-4.7204,-4.698,-4.5708,-4.4803,-4.4095,-4.2837,-4.235,-4.2328,-4.1046,-3.9908,-3.9045,-3.8379,-3.7814,-3.7274,-3.6722,-3.6433,-3.637,-3.637,-3.6107,-3.5642,-3.5027,-3.4474,-3.3997,-3.3458,-3.3181,-3.3206,-3.3658,-3.3784,-3.3784,-3.3382,-3.3156,-3.3081,-3.3144,-3.3119,-3.2955,-3.2478,-3.2177,-3.2102,-3.1637,-3.1386,-3.1373,-3.0884,-3.0645,-3.0616,-2.9576,-2.895,0.0,-2.8437,0.0,0.0,0.0,0.0,0.0,0.0,0.0,0.0,-2.9737,-3.0486,-3.0731,-3.1259,-3.1504,-3.1565,-3.2592,-3.2915,-3.2168,-3.2237,-3.2355,-3.2453,-3.2292,-3.2696,-3.4039,-3.473,-3.6087,-3.7781,-3.4011,-3.2075,-3.4469,-3.5378,-3.6742,-3.9852,-4.0687,-4.0711,-4.0819,-4.0902,-4.0677,-4.0302,-4.019,-4.017,-3.964,-3.836,-3.6425,-3.5158,-3.4702,-3.469,-3.4947,-3.4324,-3.3424,-3.2924,-3.1737,-3.079,-3.0581,-3.0586,-3.1177,-3.296,-3.3465,-3.2973,-4.8072,-4.7504,-4.7489,-4.7429,-4.7309,-4.7309,-4.7309,-4.7309,-4.7309,-4.6696,-4.5633,-4.484,-4.4181,-4.3473,-4.2205,-4.1701,-4.1714,-4.0501,-3.9726,-3.9521,-3.8969,-3.8404,-3.7839,-3.7287,-3.6797,-3.6383,-3.637,-3.6307,-3.6182,-3.5203,-3.4675,-3.4562,-3.401,-3.3746,-3.3746,0.0,0.0,0.0,-3.3483,-3.3433,-3.2847,-3.3433,-3.3307,-3.2416,-3.2265,0.0,-3.1574,-3.1449,-3.1386,-3.1373,-3.0896,0.0,0.0,0.0,0.0,0.0,0.0,0.0,0.0,0.0,0.0,0.0,-3.0495,-3.0294,-2.9708,-3.0618,-3.1209,-3.1162,-3.1465,-3.1773,-3.1926,-3.1586,-3.1704,-3.2372,-3.2616,-3.2463,-3.183,-3.3398,-3.3865,-3.1218,-3.2884,-3.3824,-3.2767,-3.1899,-3.1788,-3.2441,-3.4,-3.5699,-3.7141,-3.8227,-3.8563,-3.8132,-3.8785,-3.9253,-3.913,-3.9118,-3.9322,-3.9334,-3.8648,-3.6437,-3.3493,-3.2951,-3.3295,-3.3679,-3.2706,-3.1772,-3.1441,-3.0817,-3.0312,-3.0205,-2.9922,-2.9868,-3.0442,-3.0545,-3.0383,-4.7623,0.0,-4.7309,-4.7309,0.0,-4.7309,-4.713,-4.6815,-4.6815,-4.6052,-4.4811,-4.4811,-4.4614,-4.422,-4.2711,-4.2096,-4.2016,-4.013,-3.9132,-3.8831,-3.8291,-3.7877,-3.7588,-3.7048,-3.6634,-3.637,-3.637,-3.637,-3.6307,-3.5265,-3.4726,-3.4713,-3.3884,-3.3395,-3.3308,-3.3058,-3.2834,-3.255,-3.2909,-3.2921,-3.2574,-3.2909,-3.2872,-3.2326,-3.2027,0.0,0.0,0.0,0.0,0.0,0.0,0.0,0.0,0.0,0.0,-2.9917,-2.9671,-2.9567,-2.9744,-2.9792,-3.0041,-3.0749,-3.0882,-3.0895,-3.0528,-3.081,-3.1062,-3.1252,-3.1478,-3.1703,-3.1701,-3.1715,-3.1757,-3.2086,-3.2151,-3.1848,-3.1476,-3.2073,-3.192,-3.0289,-3.098,-3.1474,-3.079,-3.0984,-3.1095,-3.1197,-3.1913,-3.2899,-3.3584,-3.5648,-3.724,-3.7619,-3.8185,-3.8643,-3.8631,-3.8619,-3.8704,-3.903,-3.7953,-3.6002,-3.3541,-3.2675,-3.2468,-3.2519,-3.1777,-3.1169,-3.0692,-3.0351,-3.0068,-2.9668,-2.9394,-2.917,-2.9023,-2.9268,-2.958,-4.7309,-4.7309,-4.7309,-4.7309,-4.7309,-4.7309,-4.686,-4.6127,0.0,0.0,0.0,-4.4766,-4.502,-4.4974,-4.305,-4.233,-4.2347,-3.9946,-3.8454,-3.799,-3.7538,-3.7274,-3.7161,-3.6709,-3.6458,-3.637,-3.637,-3.637,-3.632,-3.5253,-3.4726,-3.4625,-3.3621,-3.2896,-3.255,-3.2388,-3.2313,-3.23,-3.2486,-3.2486,-3.2313,-3.2486,-3.2449,-3.2253,-3.1798,-3.1503,-3.132,-3.0891,-3.0741,-3.0741,-3.0741,-3.0707,-3.0793,-3.0719,-3.0624,-3.0626,-3.054,-3.0469,-3.0398,-3.0326,-3.0567,-3.0901,-3.124,-3.1323,-3.1245,-3.0934,-3.0885,-3.1222,-3.1548,-3.1611,-3.1425,-3.1899,-3.2165,-3.1739,-3.1419,-3.1243,-3.0947,-3.0401,-3.0073,-2.9619,-2.9828,-2.9908,-3.0318,-3.0168,-3.0085,-3.0066,-3.0188,-3.0128,-3.0929,-3.3537,-3.6016,-3.7307,-3.7658,-3.7859,-3.7895,-3.7847,-3.8028,-3.8303,-3.6823,-3.5406,-3.4461,-3.3205,-3.2117,-3.1536,-3.1357,-3.0813,-3.028,-2.999,-2.9736,-2.9062,-2.8857,-2.8711,-2.8447,-2.8838,-2.9287,-4.7309,-4.7309,-4.7309,-4.7309,-4.7309,-4.7309,-4.6606,-4.5409,-4.4855,-4.4481,-4.4287,-4.3808,-4.3928,-4.4288,-4.1962,-4.1321,-4.1636,-3.9239,-3.8078,-3.8002,-3.7927,-3.7638,-3.7186,-3.7111,-3.6822,-3.6383,-3.637,-3.637,-3.6245,-3.5253,-3.4726,-3.4497,-3.3433,-3.255,-3.2125,-3.2038,-3.1937,-3.1849,-3.2665,-3.2766,-3.205,-3.2754,-3.2621,-3.1712,-3.1516,-3.1234,-3.0876,-3.0719,-3.0741,-3.0741,-3.0741,-3.0866,-3.1065,-3.07,-3.0459,-3.0515,-3.0071,-2.9951,-3.0229,-3.019,-3.0413,-3.092,-3.1415,-3.1577,-3.1359,-3.1423,-3.1445,-3.1355,-3.1517,-3.1812,-3.1922,-3.1636,-3.1506,-3.1556,-3.1127,-3.0809,-3.0517,-3.0535,-3.0335,-3.0002,-3.0265,-3.0138,-2.9739,-2.9111,-2.8833,-2.8813,-2.9471,-3.0221,-3.1251,-3.2724,-3.4283,-3.556,-3.5998,-3.5998,-3.6117,-3.6022,-3.6386,-3.7208,-3.6215,-3.5051,-3.4367,-3.3084,-3.1892,-3.1278,-3.0923,-3.0458,-2.977,-2.9336,-2.9121,-2.8877,-2.8643,-2.8389,-2.8301,-2.8457,-2.8525,-4.7309,-4.7309,-4.7309,-4.7309,-4.7249,-4.6516,-4.5873,-4.5214,-4.4212,-4.3778,-4.3793,-4.3823,-4.4032,-4.4072,-4.2176,-4.1225,-4.1093,-3.8644,-3.74,-3.7123,-3.7111,-3.6985,-3.6747,-3.6734,-3.6609,-3.637,-3.637,-3.6207,-3.5868,-3.5102,-3.4485,-3.3968,-3.2845,-3.2201,-3.2038,-3.1937,-3.1849,-3.1661,-3.218,-3.2192,-3.1685,-3.2002,-3.1882,-3.1237,-3.1225,-3.1117,-3.0877,-3.0939,-3.0939,-3.0865,-3.0939,-3.1048,-3.1125,-3.0834,-3.0723,-3.0761,-3.056,-3.0461,-3.0608,-3.0631,-3.0843,-3.1337,-3.1308,-3.1379,-3.1518,-3.1623,-3.1669,-3.1504,-3.1654,-3.1653,-3.1506,-3.145,-3.14,-3.1208,-3.0817,-3.0505,-3.0401,-3.0149,-2.9976,-2.9677,-2.9967,-2.9951,-2.9439,-2.9016,-2.8721,-2.879,-2.9444,-3.0199,-3.1052,-3.183,-3.2993,-3.4509,-3.4959,-3.4959,-3.4947,-3.4959,-3.5213,-3.5759,-3.5152,-3.4157,-3.3202,-3.1867,-3.0936,-3.0239,-3.0279,-3.0138,-2.9398,-2.9072,-2.8857,-2.8594,-2.8457,-2.831,-2.8301,-2.8301,-2.8301,-4.7309,-4.7309,-4.7309,-4.7219,-4.6995,-4.5978,-4.5364,-4.4975,-4.4003,-4.3479,-4.3419,-4.3868,-4.4092,-4.3879,-4.2162,-4.1018,-4.0337,-3.8062,-3.6759,-3.6395,-3.637,-3.637,-3.637,-3.637,-3.6307,-3.6194,-3.6169,-3.5906,-3.5353,-3.4813,-3.407,-3.3281,-3.2409,-3.195,-3.1937,-3.1761,-3.1661,-3.1572,-3.1572,-3.1484,-3.1306,-3.1217,-3.1151,-3.0984,-3.0984,-3.0984,-3.0984,-3.1139,-3.1139,-3.0972,-3.1139,-3.1139,-3.0972,-3.0984,-3.0972,-3.0883,-3.1,-3.0936,-3.0938,-3.0961,-3.1112,-3.1484,-3.1249,-3.1206,-3.1654,-3.1718,-3.1632,-3.1598,-3.169,-3.1473,-3.1149,-3.1197,-3.123,-3.0827,-3.0505,-3.0297,-3.0183,-2.9869,-2.9554,-2.9353,-2.953,-2.9686,-2.9349,-2.9359,-2.9232,-2.9288,-2.9669,-3.0099,-3.062,-3.1127,-3.1979,-3.3202,-3.3794,-3.3957,-3.4003,-3.3969,-3.4014,-3.4207,-3.3915,-3.2977,-3.1668,-3.056,-2.9914,-2.9421,-2.9679,-2.964,-2.8947,-2.8769,-2.8633,-2.8389,-2.831,-2.8301,-2.8301,-2.8077,-2.8164,-4.7309,-4.7309,-4.7279,-4.6965,-4.6411,-4.6232,-4.5499,-4.4481,-4.4242,-4.3883,-4.3374,-4.3404,-4.3449,-4.3085,-4.1114,-4.0078,-3.9807,-3.7505,-3.6408,-3.6345,-3.637,-3.637,-3.6332,-3.6332,-3.6094,-3.5667,-3.5617,-3.5341,-3.4788,-3.4236,-3.3433,-3.2598,-3.215,-3.1937,-3.1749,-3.1661,-3.1572,-3.1306,-3.1306,-3.1306,-3.1306,-3.1151,-3.0972,-3.0984,-3.0996,-3.0984,-3.1019,-3.0972,-3.1074,-3.0984,-3.0984,-3.0984,-3.0984,-3.0984,-3.0883,-3.0703,-3.0836,-3.0924,-3.0869,-3.0948,-3.0926,-3.1038,-3.1386,-3.1558,-3.1647,-3.1628,-3.1493,-3.144,-3.1482,-3.1407,-3.1165,-3.1002,-3.0713,-3.0401,-3.0193,-2.9994,-2.9774,-2.9659,-2.9554,-2.9554,-2.9367,-2.9316,-2.9669,-2.9836,-2.9731,-2.9564,-2.9659,-2.9869,-3.0401,-3.0505,-3.0827,-3.1576,-3.2101,-3.2644,-3.2678,-3.2701,-3.2643,-3.2552,-3.2608,-3.1979,-3.0778,-3.0151,-2.9784,-2.9287,-2.911,-2.9023,-2.8662,-2.8359,-2.8369,-2.834,-2.8291,-2.8291,-2.8242,-2.7796,-2.7612,-4.707,-4.6726,-4.6726,-4.6337,-4.5723,-4.5304,-4.4825,-4.4302,-4.3898,-4.3569,-4.3359,-4.3344,-4.3344,-4.317,-4.093,-3.9706,-3.9202,-3.7272,-3.6182,-3.5893,-3.5893,-3.5881,-3.5843,-3.5529,-3.5265,-3.5077,-3.5064,-3.4763,-3.4134,-3.342,-3.2772,-3.2412,-3.2038,-3.1761,-3.1661,-3.1572,-3.1395,-3.1318,-3.1164,-3.1042,-3.1031,-3.0951,-3.1009,-3.1193,-3.1041,-3.088,-3.0802,-3.1042,-3.0994,-3.0636,-3.0793,-3.0883,-3.051,-3.0697,-3.0675,-3.0606,-3.0782,-3.0954,-3.0879,-3.089,-3.1013,-3.139,-3.1307,-3.1329,-3.1616,-3.1327,-3.1041,-3.1025,-3.1122,-3.092,-3.0609,-3.0401,-3.0099,-2.9774,-2.9669,-2.9669,-2.9659,-2.9554,-2.9659,-2.9544,-2.9347,-2.9191,-2.9472,-2.9764,-2.991,-2.9669,-2.9669,-2.9973,-3.0287,-3.0391,-3.0599,-3.0931,-3.1343,-3.1538,-3.1742,-3.1742,-3.1662,-3.1625,-3.1745,-3.1424,-3.0442,-2.962,-2.9357,-2.9112,-2.9026,-2.8717,-2.8427,-2.8291,-2.8301,-2.8271,-2.8155,-2.8009,-2.7757,-2.7362,-2.7141,-4.6486,-4.6082,-4.6037,-4.5648,-4.5005,-4.4721,-4.4377,-4.4047,-4.3718,-4.3524,-4.3344,-4.3344,-4.324,-4.2823,-4.0926,-3.9716,-3.8858,-3.7181,-3.5957,-3.5341,-3.5316,-3.5328,-3.5278,-3.4926,-3.4638,-3.4525,-3.4487,-3.4134,-3.3596,-3.2784,-3.24,-3.2213,-3.1925,-3.1673,-3.1584,-3.1395,-3.1288,-3.1184,-3.0986,-3.1006,-3.1069,-3.102,-3.1038,-3.1145,-3.0975,-3.0796,-3.0649,-3.1004,-3.0926,-3.0479,-3.0744,-3.0836,-3.0468,-3.0612,-3.0672,-3.0841,-3.0868,-3.0951,-3.0975,-3.0986,-3.1141,-3.1373,-3.1026,-3.0976,-3.1246,-3.092,-3.0724,-3.0713,-3.062,-3.0412,-3.0203,-2.9984,-2.9669,-2.9343,-2.9448,-2.9448,-2.9353,-2.9448,-2.9448,-2.9438,-2.9398,-2.9357,-2.9377,-2.9733,-2.9889,-2.9774,-2.9879,-3.0099,-3.0183,-3.0287,-3.0401,-3.062,-3.0724,-3.0827,-3.1034,-3.1127,-3.1056,-3.1109,-3.1309,-3.1102,-3.0266,-2.9692,-2.8981,-2.882,-2.8784,-2.8621,-2.8398,-2.8291,-2.8067,-2.8019,-2.7873,-2.7526,-2.7131,-2.6684,-2.6389,-4.5364,-4.5349,-4.5334,-4.496,-4.4407,-4.4915,-4.4496,-4.3479,-4.3958,-4.3898,-4.3329,-4.3299,-4.2985,-4.2369,-4.1062,-3.9995,-3.8849,-3.707,-3.5773,-3.4841,-3.4751,-3.4763,-3.4763,-3.4726,-3.4424,-3.396,-3.3935,-3.3583,-3.281,-3.25,-3.23,-3.2038,-3.1837,-3.1572,-3.1395,-3.1306,-3.1196,-3.094,-3.0892,-3.1149,-3.1491,-3.1131,-3.0943,-3.0916,-3.0912,-3.0935,-3.0845,-3.0942,-3.0919,-3.0897,-3.0948,-3.0863,-3.0897,-3.093,-3.096,-3.1174,-3.1274,-3.1195,-3.1138,-3.1192,-3.1122,-3.0867,-3.0845,-3.0785,-3.0806,-3.0609,-3.0401,-3.0391,-3.0203,-3.0099,-3.0297,-2.9869,-2.9564,-2.9448,-2.9237,-2.9026,-2.8834,-2.9036,-2.9132,-2.9237,-2.9554,-2.9869,-2.9869,-2.9994,-2.9994,-2.9994,-2.9994,-2.9994,-2.9994,-2.9994,-3.0193,-3.0297,-3.0391,-3.0505,-3.0724,-3.0827,-3.0827,-3.0756,-3.0704,-3.084,-3.0464,-2.9963,-2.9126,-2.8559,-2.8552,-2.8504,-2.8398,-2.8067,-2.7863,-2.7631,-2.7285,-2.6979,-2.6389,-2.5777,-2.5449,-4.505,-4.4661,-4.4661,-4.4287,-4.3748,-4.3943,-4.3763,-4.3374,-4.3569,-4.3329,-4.2776,-4.2716,-4.2581,-4.2327,-4.0648,-3.9159,-3.7827,-3.6802,-3.5525,-3.4312,-3.4198,-3.4198,-3.4161,-3.3859,-3.3583,-3.3407,-3.3382,-3.3183,-3.2748,-3.2475,-3.23,-3.2038,-3.1837,-3.1572,-3.1306,-3.1151,-3.1038,-3.0962,-3.0918,-3.0946,-3.1197,-3.1124,-3.0997,-3.0835,-3.0824,-3.0885,-3.0888,-3.1053,-3.1007,-3.0901,-3.1072,-3.1072,-3.0912,-3.0909,-3.0986,-3.1211,-3.1084,-3.0955,-3.0899,-3.092,-3.0931,-3.0827,-3.062,-3.0516,-3.0505,-3.0308,-3.0203,-3.0099,-2.9879,-2.9879,-2.9994,-2.9669,-2.9132,-2.8814,-2.8824,-2.8834,-2.8834,-2.9142,-2.9448,-2.9448,-2.9784,-2.9994,-2.9994,-2.9994,-2.9994,-2.9994,-2.9994,-2.9994,-2.9994,-2.9994,-3.0068,-3.0088,-3.0099,-3.0203,-3.0214,-3.0401,-3.0505,-3.0318,-3.0255,-3.0287,-3.0056,-2.9554,-2.8724,-2.8259,-2.8367,-2.8163,-2.7959,-2.7466,-2.7207,-2.6949,-2.673,-2.6248,-2.5665,-2.5181,-2.4913,-4.4407,-4.4032,-4.3988,-4.3748,-4.3359,-4.3344,-4.3344,-4.3344,-4.3329,-4.3075,-4.2731,-4.2686,-4.2462,-4.1936,-4.0734,-3.891,-3.6971,-3.632,-3.515,-3.3746,-3.3633,-3.3633,-3.3583,-3.3257,-3.3081,-3.3081,-3.3081,-3.2896,-3.2636,-3.2475,-3.2213,-3.1937,-3.1761,-3.1496,-3.1229,-3.1074,-3.0914,-3.0687,-3.0615,-3.0592,-3.06,-3.0647,-3.0609,-3.0412,-3.0297,-3.0472,-3.0665,-3.0835,-3.0895,-3.08,-3.0954,-3.0954,-3.091,-3.0885,-3.0906,-3.1084,-3.092,-3.0724,-3.0724,-3.0724,-3.062,-3.0516,-3.0401,-3.0297,-3.0297,-3.0088,-2.9994,-2.9994,-2.9879,-2.9774,-2.9774,-2.9554,-2.9132,-2.8824,-2.893,-2.894,-2.8834,-2.9343,-2.9554,-2.9764,-2.9879,-2.9994,-2.9994,-2.9994,-2.9994,-2.9994,-2.9994,-2.9963,-2.9704,-2.9766,-2.959,-2.9373,-2.9281,-2.926,-2.9219,-2.9271,-2.9839,-2.9735,-2.9984,-2.9931,-2.9618,-2.9041,-2.8394,-2.8084,-2.7851,-2.7725,-2.7396,-2.6888,-2.6593,-2.6235,-2.5954,-2.5637,-2.5181,-2.4785,-2.4646,-4.3389,-4.3389,-4.3344,-4.3374,-4.3329,-4.3269,-4.3299,-4.3254,-4.3225,-4.303,-4.2821,-4.309,-4.2312,-4.1549,-4.1037,-3.932,-3.6719,-3.5878,-3.4743,-3.3268,-3.3144,-3.3144,-3.3144,-3.3106,-3.3081,-3.3081,-3.3081,-3.2822,-3.2475,-3.24,-3.2213,-3.1761,-3.1749,-3.1496,-3.0972,-3.1019,-3.0721,-3.0267,-3.0219,-3.0138,-2.9953,-2.9953,-2.9869,-2.9774,-2.9438,-2.9649,-3.0359,-3.0453,-3.0411,-3.0411,-3.0514,-3.0578,-3.0813,-3.0764,-3.0817,-3.0806,-3.0724,-3.062,-3.0401,-3.0391,-3.0297,-3.0099,-2.9994,-2.9994,-2.9994,-2.9994,-2.9994,-2.9994,-2.9994,-2.9869,-2.9628,-2.9587,-2.9503,-2.9554,-2.9448,-2.9343,-2.9237,-2.9343,-2.9649,-2.9953,-2.9942,-2.9984,-2.9963,-2.9724,-2.9673,-2.9693,-2.9704,-2.9486,-2.9055,-2.9096,-2.8799,-2.834,-2.835,-2.8564,-2.8208,-2.8006,-2.8614,-2.9248,-2.963,-2.9733,-2.9143,-2.8491,-2.7578,-2.712,-2.705,-2.6914,-2.665,-2.627,-2.5876,-2.5541,-2.5254,-2.4978,-2.4701,-2.4435,-2.4389,-4.3748,-4.3359,-4.3344,-4.3344,-4.3269,-4.2851,-4.2656,-4.2596,-4.2192,-4.1743,-4.1369,-4.1309,-4.107,-4.0636,-3.9883,-3.8603,-3.6874,-3.5918,-3.4653,-3.3316,-3.3081,-3.3081,-3.3081,-3.3081,-3.3081,-3.3081,-3.3081,-3.2822,-3.2487,-3.24,-3.2125,-3.1761,-3.1661,-3.1496,-3.0984,-3.1008,-3.0686,-3.0309,-3.0519,-3.0515,-3.0408,-3.0543,-3.0599,-3.0401,-3.0183,-3.0078,-3.0099,-3.0088,-3.0297,-3.0599,-3.0724,-3.0724,-3.0724,-3.0609,-3.0505,-3.0505,-3.0308,-3.0203,-3.0193,-3.0078,-3.0057,-2.9984,-2.9984,-2.9994,-2.9994,-2.9963,-2.9963,-2.9973,-2.9994,-2.9891,-2.9487,-2.9405,-2.9311,-2.9303,-2.9237,-2.9187,-2.9157,-2.9408,-2.9661,-2.9901,-2.9973,-2.9703,-2.9156,-2.8829,-2.8656,-2.8809,-2.8707,-2.8513,-2.8289,-2.833,-2.833,-2.7955,-2.7925,-2.7794,-2.7623,-2.7362,-2.7612,-2.8206,-2.8674,-2.9042,-2.8528,-2.7693,-2.6792,-2.6356,-2.6285,-2.6179,-2.591,-2.5594,-2.5205,-2.4974,-2.4699,-2.4498,-2.4297,-2.4161,-2.4161,-4.3703,-4.3344,-4.3344,-4.318,-4.2955,-4.2506,-4.2207,-4.1953,-4.1564,-4.1145,-4.0831,-4.0786,-4.0621,-4.0278,-3.9665,-3.8388,-3.6899,-3.6076,-3.4769,-3.3278,-3.3081,-3.3081,-3.3081,-3.3081,-3.3081,-3.3081,-3.3081,-3.2822,-3.24,-3.24,-3.2113,-3.1761,-3.1661,-3.1496,-3.1074,-3.0996,-3.0674,-3.0214,-3.0252,-3.0252,-2.9995,-3.0125,-3.0081,-2.9979,-2.9764,-2.9672,-2.958,-2.96,-2.9776,-2.9984,-3.0003,-3.0,-3.0,-2.9764,-2.9774,-2.9682,-2.9569,-2.9466,-2.9487,-2.9425,-2.9487,-2.9477,-2.9477,-2.9477,-2.9477,-2.9487,-2.9477,-2.9487,-2.9456,-2.9363,-2.9104,-2.9042,-2.8983,-2.891,-2.891,-2.895,-2.895,-2.895,-2.9353,-2.9638,-2.9709,-2.9102,-2.8348,-2.7663,-2.7673,-2.7965,-2.8016,-2.7723,-2.7663,-2.7583,-2.7442,-2.7332,-2.7033,-2.6993,-2.6983,-2.6884,-2.6774,-2.7122,-2.7592,-2.7953,-2.7809,-2.6793,-2.5746,-2.5657,-2.5567,-2.5448,-2.5192,-2.4989,-2.465,-2.4449,-2.4251,-2.4152,-2.4053,-2.4053,-2.3963,-4.3344,-4.3344,-4.3284,-4.2925,-4.2417,-4.2222,-4.1818,-4.1369,-4.1205,-4.11,-4.1115,-4.098,-4.0786,-4.0397,-4.0085,-3.8667,-3.6545,-3.6201,-3.5032,-3.3569,-3.3081,-3.3081,-3.3081,-3.3081,-3.3081,-3.3081,-3.3081,-3.2822,-3.24,-3.24,-3.2113,-3.1749,-3.1673,-3.1508,-3.1074,-3.0984,-3.0651,-2.9985,-2.9635,-2.9547,-2.9162,-2.8938,-2.8859,-2.898,-2.889,-2.9011,-2.9263,-2.9221,-2.9057,-2.8962,-2.8918,-2.8853,-2.8659,-2.8618,-2.87,-2.8742,-2.8649,-2.87,-2.8659,-2.8773,-2.8752,-2.8763,-2.8763,-2.8618,-2.8752,-2.8804,-2.8804,-2.8783,-2.8752,-2.8669,-2.8618,-2.8576,-2.8576,-2.8545,-2.859,-2.8641,-2.8549,-2.8368,-2.8714,-2.9352,-2.9078,-2.8237,-2.7372,-2.6873,-2.7162,-2.7552,-2.7703,-2.7222,-2.6943,-2.6784,-2.6537,-2.6438,-2.629,-2.631,-2.6428,-2.633,-2.6231,-2.623,-2.6645,-2.6932,-2.6989,-2.5915,-2.5167,-2.506,-2.4956,-2.4792,-2.4665,-2.4449,-2.4341,-2.4152,-2.4053,-2.4053,-2.3954,-2.3854,-2.3773,-4.3344,-4.3299,-4.2806,-4.2521,-4.2222,-4.1354,-4.0846,-4.0591,-4.0142,-4.0038,-3.9963,-3.9933,-3.9918,-3.9694,-3.9621,-3.835,-3.6632,-3.6198,-3.5116,-3.3398,-3.3081,-3.3081,-3.3081,-3.3081,-3.3081,-3.3081,-3.3081,-3.2822,-3.24,-3.24,-3.2125,-3.1749,-3.1661,-3.1496,-3.1074,-3.0984,-3.058,-3.0032,-3.0173,-3.0058,-2.9855,-3.0099,-3.0274,-3.0274,-3.0046,-2.9938,-3.0025,-2.9473,-2.9136,-2.9252,-2.9011,-2.8927,-2.8875,-2.8655,-2.8535,-2.8535,-2.8566,-2.8597,-2.8587,-2.8576,-2.8587,-2.8618,-2.8524,-2.8618,-2.8618,-2.8607,-2.8618,-2.8618,-2.8607,-2.8452,-2.8193,-2.811,-2.7976,-2.7759,-2.8162,-2.8425,-2.8235,-2.8287,-2.8366,-2.8431,-2.8161,-2.7458,-2.6605,-2.6408,-2.6585,-2.6703,-2.6527,-2.6428,-2.6222,-2.6163,-2.6094,-2.5947,-2.5898,-2.5781,-2.5781,-2.5771,-2.5693,-2.5635,-2.5751,-2.5956,-2.5807,-2.5248,-2.474,-2.4538,-2.4684,-2.4557,-2.4458,-2.4251,-2.4152,-2.3954,-2.3854,-2.3854,-2.3655,-2.3447,-2.3473,-4.3344,-4.3299,-4.2925,-4.2447,-4.1893,-4.113,-4.0502,-3.9978,-3.9604,-3.9424,-3.9424,-3.9424,-3.9424,-3.9424,-3.9352,-3.8204,-3.6355,-3.6198,-3.5021,-3.3398,-3.3081,-3.3081,-3.3081,-3.3081,-3.3081,-3.3081,-3.2982,-3.2723,-3.24,-3.23,-3.2038,-3.1761,-3.1661,-3.1508,-3.1074,-3.0984,-3.0703,-3.0205,-3.0261,-3.0201,-3.0154,-3.0191,-3.0209,-3.0242,-3.0147,-3.0041,-2.9807,-2.9314,-2.9031,-2.8966,-2.875,-2.8536,-2.8536,-2.8429,-2.8331,-2.8244,-2.8136,-2.8125,-2.8038,-2.8038,-2.8038,-2.8038,-2.8048,-2.8038,-2.8028,-2.8048,-2.8048,-2.8017,-2.8048,-2.7914,-2.7728,-2.7645,-2.7521,-2.7417,-2.7738,-2.795,-2.7645,-2.7506,-2.7476,-2.7276,-2.7087,-2.6761,-2.5799,-2.5994,-2.612,-2.614,-2.5995,-2.5898,-2.5762,-2.5732,-2.5732,-2.5732,-2.5635,-2.5635,-2.5538,-2.5538,-2.544,-2.5254,-2.5175,-2.5312,-2.4951,-2.459,-2.4501,-2.4322,-2.4332,-2.435,-2.4152,-2.4053,-2.3845,-2.3746,-2.3646,-2.3546,-2.3347,-2.3247,-2.3173,-4.3225,-4.321,-4.309,-4.2357,-4.1354,-4.116,-4.0412,-3.9589,-3.9439,-3.9424,-3.9424,-3.9424,-3.9424,-3.9424,-3.9352,-3.8219,-3.6198,-3.6198,-3.487,-3.3628,-3.3081,-3.3081,-3.3081,-3.3081,-3.3081,-3.3081,-3.2797,-3.2636,-3.2388,-3.2125,-3.1937,-3.1761,-3.1661,-3.1407,-3.1062,-3.0984,-3.0679,-3.0216,-3.0091,-3.0057,-2.9965,-2.993,-2.9872,-2.986,-2.9768,-2.9561,-2.925,-2.8916,-2.8798,-2.8711,-2.8305,-2.8115,-2.8051,-2.8019,-2.7862,-2.7641,-2.7587,-2.7567,-2.7398,-2.7396,-2.7334,-2.7386,-2.7365,-2.7272,-2.7376,-2.7417,-2.7427,-2.7438,-2.7282,-2.7355,-2.7345,-2.7293,-2.7293,-2.7282,-2.7314,-2.7102,-2.689,-2.6592,-2.6516,-2.6373,-2.5976,-2.581,-2.5674,-2.5684,-2.5732,-2.5927,-2.582,-2.5732,-2.5732,-2.5732,-2.5732,-2.5732,-2.5635,-2.5528,-2.544,-2.5342,-2.5147,-2.5058,-2.4871,-2.4782,-2.4421,-2.4187,-2.4205,-2.4125,-2.4143,-2.4053,-2.3854,-2.3755,-2.3646,-2.3447,-2.3347,-2.3247,-2.3046,-2.2946,-2.2963,-4.2581,-4.2476,-4.1444,-4.0876,-4.0546,-4.0068,-3.9694,-3.9439,-3.9424,-3.9424,-3.9424,-3.9424,-3.9424,-3.9424,-3.9265,-3.8219,-3.6355,-3.6039,-3.5021,-3.3313,-3.3081,-3.3081,-3.3081,-3.3081,-3.3081,-3.3081,-3.2797,-3.2636,-3.2388,-3.2125,-3.1862,-3.1661,-3.1484,-3.1229,-3.1074,-3.0781,-3.0578,-3.0216,-3.0136,-3.0136,-3.0136,-3.0034,-2.9943,-2.9943,-2.9863,-2.9497,-2.9209,-2.9024,-2.8987,-2.8762,-2.8459,-2.8196,-2.7998,-2.7809,-2.7631,-2.7441,-2.7452,-2.7347,-2.7357,-2.7272,-2.7272,-2.7272,-2.7272,-2.7272,-2.7272,-2.7272,-2.7272,-2.7272,-2.7272,-2.7272,-2.7262,-2.7262,-2.7177,-2.7081,-2.6986,-2.6794,-2.64,-2.64,-2.6314,-2.5936,-2.5839,-2.5723,-2.5703,-2.5713,-2.5732,-2.5732,-2.5732,-2.5732,-2.5732,-2.5732,-2.5635,-2.5635,-2.5538,-2.543,-2.5137,-2.5039,-2.4852,-2.4763,-2.4585,-2.426,-2.3908,-2.3782,-2.38,-2.3827,-2.3854,-2.3755,-2.3555,-2.3456,-2.3347,-2.3247,-2.3046,-2.2946,-2.2846,-2.2745,-2.2567,-4.2177,-4.1848,-4.1145,-4.0681,-4.0367,-4.0023,-3.9709,-3.9469,-3.9424,-3.9424,-3.9424,-3.9424,-3.9424,-3.9352,-3.8855,-3.7648,-3.6212,-3.5116,-3.4178,-3.324,-3.3081,-3.3081,-3.3081,-3.3081,-3.3081,-3.3081,-3.2736,-3.2475,-3.23,-3.2025,-3.1749,-3.1661,-3.1395,-3.1229,-3.0972,-3.0769,-3.0487,-3.0216,-3.0216,-3.0216,-3.0216,-3.0125,-2.9954,-2.9852,-2.968,-2.9312,-2.9128,-2.885,-2.8757,-2.8571,-2.8384,-2.8196,-2.8196,-2.7904,-2.7726,-2.7536,-2.7452,-2.7347,-2.7347,-2.7272,-2.7272,-2.7272,-2.7272,-2.7272,-2.7272,-2.7272,-2.7272,-2.7262,-2.7167,-2.7071,-2.6976,-2.688,-2.6794,-2.6794,-2.6699,-2.6506,-2.6197,-2.6197,-2.6207,-2.583,-2.5732,-2.5732,-2.5732,-2.5732,-2.5732,-2.5732,-2.5732,-2.5732,-2.5732,-2.5635,-2.5538,-2.5538,-2.544,-2.5235,-2.4932,-2.4745,-2.4557,-2.4477,-2.4396,-2.4053,-2.3692,-2.3484,-2.3384,-2.352,-2.3655,-2.3447,-2.3347,-2.3247,-2.3147,-2.2946,-2.2745,-2.2745,-2.2576,-2.2347,-2.2161,-4.1743,-4.1205,-4.113,-4.0756,-4.0307,-4.0202,-3.9888,-3.9469,-3.9424,-3.9424,-3.9424,-3.9424,-3.9424,-3.9192,-3.862,-3.7405,-3.5894,-3.4249,-3.324,-3.3167,-3.3081,-3.3081,-3.3081,-3.3081,-3.3081,-3.3081,-3.2661,-3.24,-3.23,-3.1925,-3.1661,-3.1572,-3.1407,-3.1139,-3.0871,-3.0679,-3.0397,-3.0216,-3.0216,-3.0136,-3.0136,-2.9966,-2.9783,-2.9497,-2.9312,-2.9128,-2.8943,-2.8675,-2.8395,-2.8301,-2.8102,-2.8102,-2.8102,-2.8092,-2.7809,-2.7536,-2.7536,-2.7452,-2.7357,-2.7272,-2.7272,-2.7272,-2.7272,-2.7262,-2.7262,-2.7177,-2.7071,-2.7071,-2.6976,-2.6794,-2.6506,-2.6592,-2.6496,-2.6496,-2.64,-2.6294,-2.61,-2.6004,-2.5917,-2.5732,-2.5732,-2.5732,-2.5732,-2.5732,-2.5732,-2.5732,-2.5732,-2.5635,-2.5635,-2.5635,-2.544,-2.5342,-2.5137,-2.4941,-2.4637,-2.444,-2.426,-2.4288,-2.4207,-2.3755,-2.3402,-2.3176,-2.3085,-2.322,-2.3347,-2.3147,-2.3046,-2.2946,-2.2846,-2.2644,-2.2449,-2.2247,-2.2036,-2.1827,-2.1618,-4.0651,-4.0516,-3.9978,-3.9679,-3.9604,-3.9589,-3.9544,-3.9439,-3.9424,-3.9424,-3.9424,-3.9424,-3.9424,-3.9265,-3.9265,-3.7965,-3.5814,-3.4024,-3.3081,-3.3081,-3.3081,-3.3081,-3.3081,-3.3081,-3.3081,-3.2995,-3.2661,-3.24,-3.2313,-3.1937,-3.1572,-3.1395,-3.1151,-3.0972,-3.0679,-3.0397,-3.0306,-3.0227,-3.0136,-3.0136,-2.9966,-2.9874,-2.96,-2.922,-2.9035,-2.885,-2.8571,-2.8488,-2.8301,-2.8092,-2.782,-2.7715,-2.7726,-2.7726,-2.7536,-2.7441,-2.7347,-2.7357,-2.7272,-2.7262,-2.7272,-2.7272,-2.7081,-2.6986,-2.689,-2.6794,-2.6784,-2.6688,-2.6592,-2.6506,-2.6496,-2.64,-2.64,-2.6207,-2.611,-2.611,-2.583,-2.583,-2.582,-2.5732,-2.5732,-2.5732,-2.5732,-2.5635,-2.5635,-2.5635,-2.5538,-2.5538,-2.5528,-2.543,-2.5333,-2.5137,-2.4833,-2.4646,-2.4251,-2.4152,-2.3963,-2.4108,-2.3918,-2.3582,-2.3229,-2.2785,-2.2785,-2.2929,-2.3046,-2.2946,-2.2846,-2.2728,-2.2576,-2.2315,-2.207,-2.1801,-2.1559,-2.1318,-2.0817,-4.0202,-3.9873,-3.9544,-3.9424,-3.9424,-3.9424,-3.9424,-3.9424,-3.9424,-3.9424,-3.9424,-3.9424,-3.9424,-3.9104,-3.804,-3.6618,-3.4788,-3.37,-3.3081,-3.3081,-3.3081,-3.3081,-3.3056,-3.3068,-3.3081,-3.2995,-3.2649,-3.24,-3.24,-3.1937,-3.1572,-3.1318,-3.1062,-3.0883,-3.0578,-3.0306,-3.0136,-3.0045,-3.0057,-2.9954,-2.9691,-2.96,-2.9231,-2.8861,-2.8768,-2.8571,-2.8279,-2.8008,-2.7914,-2.7726,-2.7536,-2.7441,-2.7441,-2.7452,-2.7347,-2.7262,-2.7262,-2.7167,-2.7081,-2.7081,-2.6986,-2.688,-2.6784,-2.6699,-2.6699,-2.6602,-2.64,-2.6294,-2.6294,-2.6197,-2.611,-2.612,-2.6024,-2.5917,-2.5917,-2.583,-2.5732,-2.5732,-2.5635,-2.5635,-2.5635,-2.5635,-2.5732,-2.5635,-2.5635,-2.5538,-2.544,-2.543,-2.5333,-2.5235,-2.503,-2.4833,-2.4538,-2.435,-2.4053,-2.3854,-2.3764,-2.3809,-2.3718,-2.3282,-2.3055,-2.2702,-2.2601,-2.2736,-2.2736,-2.2676,-2.255,-2.2398,-2.2238,-2.2028,-2.1559,-2.1137,-2.1037,-2.0693,-2.0279,-3.9738,-3.902,-3.917,-3.914,-3.9035,-3.9005,-3.899,-3.9005,-3.8975,-3.8945,-3.902,-3.8975,-3.8945,-3.8427,-3.6826,-3.4955,-3.3296,-3.3077,-3.2641,-3.2629,-3.2629,-3.2717,-3.288,-3.293,-3.293,-3.2982,-3.2649,-3.24,-3.23,-3.1937,-3.1572,-3.1229,-3.1074,-3.0793,-3.0487,-3.0227,-3.0045,-2.9966,-2.9783,-2.968,-2.9405,-2.9128,-2.885,-2.8395,-2.8395,-2.8196,-2.7914,-2.7726,-2.7641,-2.7536,-2.7441,-2.7262,-2.7272,-2.7272,-2.7177,-2.7167,-2.7167,-2.7081,-2.689,-2.6805,-2.6699,-2.6602,-2.6496,-2.64,-2.64,-2.6304,-2.6207,-2.61,-2.6004,-2.5907,-2.582,-2.5732,-2.5732,-2.5732,-2.5732,-2.5645,-2.5635,-2.5538,-2.5538,-2.5538,-2.5547,-2.5655,-2.5664,-2.5323,-2.5226,-2.5352,-2.5254,-2.5137,-2.5128,-2.4932,-2.4735,-2.444,-2.4143,-2.4053,-2.3755,-2.3646,-2.3564,-2.36,-2.34,-2.2972,-2.2846,-2.2619,-2.2492,-2.2298,-2.2264,-2.2195,-2.2087,-2.1977,-2.1601,-2.1293,-2.0848,-2.0586,-2.0408,-2.0115,-1.9579,-3.8781,-3.7704,-3.8272,-3.8182,-3.7734,-3.7719,-3.7689,-3.7719,-3.7749,-3.7644,-3.7823,-3.7704,-3.7679,-3.709,-3.5631,-3.4527,-3.3721,-3.2581,-3.1876,-3.1926,-3.1938,-3.219,-3.234,-3.2315,-3.2742,-3.292,-3.2649,-3.24,-3.2313,-3.1937,-3.1496,-3.1151,-3.0972,-3.0781,-3.0318,-3.0057,-2.9874,-2.9886,-2.968,-2.9393,-2.9128,-2.8757,-2.8488,-2.829,-2.8196,-2.7914,-2.7726,-2.7547,-2.7547,-2.7357,-2.7262,-2.7177,-2.6996,-2.6996,-2.6794,-2.6794,-2.6794,-2.6805,-2.6602,-2.6506,-2.6506,-2.64,-2.6294,-2.6197,-2.611,-2.6014,-2.583,-2.5732,-2.5732,-2.5732,-2.5732,-2.5635,-2.5732,-2.5635,-2.5635,-2.5538,-2.544,-2.5333,-2.5333,-2.5245,-2.5245,-2.5381,-2.5508,-2.5156,-2.4922,-2.4951,-2.5068,-2.4951,-2.4833,-2.4637,-2.444,-2.4143,-2.3945,-2.3755,-2.3555,-2.3347,-2.3264,-2.3291,-2.3081,-2.2754,-2.2627,-2.2366,-2.1837,-2.1661,-2.1611,-2.1593,-2.1377,-2.1137,-2.0881,-2.0603,-2.0205,-2.0091,-1.9906,-1.9475,-1.9071,-3.8153,-3.7958,-3.7868,-3.7674,-3.7419,-3.7404,-3.7404,-3.7404,-3.7404,-3.7404,-3.7404,-3.7404,-3.6807,-3.5755,-3.4701,-3.3747,-3.2817,-3.2008,-3.1838,-3.1863,-3.2039,-3.239,-3.2679,-3.2704,-3.2905,-3.2895,-3.2649,-3.24,-3.2213,-3.1761,-3.1318,-3.1074,-3.0793,-3.051,-3.0136,-2.9977,-2.9691,-2.9416,-2.9035,-2.8839,-2.8664,-2.8384,-2.8102,-2.8008,-2.7809,-2.762,-2.7536,-2.7452,-2.7262,-2.7177,-2.7081,-2.6986,-2.6794,-2.6699,-2.6506,-2.6304,-2.64,-2.64,-2.6304,-2.6294,-2.6207,-2.611,-2.5917,-2.5917,-2.582,-2.582,-2.5732,-2.5732,-2.5732,-2.5732,-2.5635,-2.5538,-2.5538,-2.544,-2.544,-2.5235,-2.5137,-2.5137,-2.5039,-2.4941,-2.4852,-2.5087,-2.5204,-2.496,-2.4618,-2.4618,-2.4637,-2.4548,-2.444,-2.4251,-2.4053,-2.3945,-2.3646,-2.3456,-2.3247,-2.3147,-2.2946,-2.2972,-2.2872,-2.2644,-2.24,-2.208,-2.1296,-2.0786,-2.0703,-2.0702,-2.0636,-2.0424,-2.0181,-1.9939,-1.969,-1.9507,-1.9426,-1.9252,-1.8883,-3.7464,-3.7868,-3.7375,-3.709,-3.6941,-3.6941,-3.6911,-3.6911,-3.6896,-3.6896,-3.6926,-3.6813,-3.593,-3.4534,-3.3951,-3.3014,-3.1481,-3.1574,-3.1574,-3.1775,-3.2039,-3.224,-3.2353,-3.2541,-3.2717,-3.3081,-3.2661,-3.24,-3.2125,-3.1673,-3.1139,-3.0984,-3.0781,-3.042,-2.9966,-2.9794,-2.9508,-2.8943,-2.8664,-2.8395,-2.8301,-2.8092,-2.7809,-2.7631,-2.7547,-2.7452,-2.7272,-2.7167,-2.7081,-2.689,-2.6794,-2.6699,-2.6496,-2.64,-2.6304,-2.611,-2.6014,-2.6014,-2.6014,-2.6014,-2.5917,-2.583,-2.5732,-2.5732,-2.5732,-2.5732,-2.5732,-2.5732,-2.5635,-2.5635,-2.5538,-2.5342,-2.5235,-2.5137,-2.5039,-2.4941,-2.4843,-2.4833,-2.4735,-2.4646,-2.4557,-2.4585,-2.4585,-2.4548,-2.4421,-2.4304,-2.4214,-2.4233,-2.4044,-2.3854,-2.3655,-2.3546,-2.3447,-2.3256,-2.3046,-2.2846,-2.2754,-2.2745,-2.2644,-2.2576,-2.2407,-2.1528,-2.0506,-2.0111,-1.991,-1.9852,-1.989,-1.9698,-1.9507,-1.9418,-1.9236,-1.9039,-1.8867,-1.8827,-1.8827,-3.6582,-3.6611,-3.6567,-3.6207,-3.5714,-3.5624,-3.5669,-3.5804,-3.5729,-3.5744,-3.5833,-3.5648,-3.5215,-3.4051,-3.3225,-3.2331,-3.1153,-3.0381,-3.031,-3.0244,-3.0118,-3.1022,-3.1549,-3.1976,-3.219,-3.2857,-3.2649,-3.2487,-3.2225,-3.1496,-3.1151,-3.0984,-3.0601,-3.0329,-2.9874,-2.9508,-2.9139,-2.8664,-2.8395,-2.8196,-2.8008,-2.7809,-2.7631,-2.7547,-2.7357,-2.7177,-2.7006,-2.69,-2.6794,-2.6592,-2.6506,-2.64,-2.6197,-2.61,-2.6014,-2.583,-2.583,-2.582,-2.582,-2.582,-2.5732,-2.5732,-2.5732,-2.5732,-2.5732,-2.5742,-2.5742,-2.5635,-2.544,-2.5333,-2.5235,-2.5137,-2.4932,-2.4932,-2.4833,-2.4646,-2.4646,-2.4538,-2.444,-2.435,-2.427,-2.4288,-2.4198,-2.417,-2.4044,-2.3917,-2.3917,-2.3845,-2.3746,-2.3555,-2.3356,-2.3155,-2.3147,-2.2946,-2.2745,-2.2544,-2.2552,-2.2636,-2.2619,-2.249,-2.2352,-2.1205,-1.9747,-1.963,-1.9344,-1.9247,-1.9103,-1.9212,-1.9095,-1.8899,-1.8827,-1.8827,-1.8827,-1.8827,-1.8827,-3.5878,-3.5878,-3.5878,-3.5744,-3.5489,-3.5489,-3.5489,-3.5489,-3.5489,-3.5489,-3.5489,-3.5424,-3.492,-3.3959,-3.3017,-3.2105,-3.1233,-3.0611,-3.0284,-3.0419,-3.0696,-3.121,-3.1712,-3.1913,-3.2328,-3.2794,-3.2698,-3.2463,-3.23,-3.1524,-3.1139,-3.0883,-3.0397,-3.0057,-2.96,-2.9139,-2.8675,-2.8395,-2.8113,-2.782,-2.7726,-2.7536,-2.7357,-2.7177,-2.7081,-2.689,-2.6699,-2.6699,-2.6496,-2.6294,-2.6304,-2.611,-2.5917,-2.5917,-2.582,-2.5732,-2.5732,-2.5732,-2.5732,-2.5732,-2.5732,-2.5732,-2.5732,-2.5732,-2.5635,-2.5547,-2.544,-2.5333,-2.5235,-2.503,-2.503,-2.4843,-2.4637,-2.4637,-2.4538,-2.4449,-2.4341,-2.4341,-2.4143,-2.4053,-2.3972,-2.4089,-2.39,-2.38,-2.3773,-2.3646,-2.3546,-2.3447,-2.3347,-2.3256,-2.3055,-2.2955,-2.2846,-2.2745,-2.2544,-2.2451,-2.235,-2.24,-2.2458,-2.2119,-2.1649,-2.0305,-1.9122,-1.8942,-1.8934,-1.8994,-1.8899,-1.8851,-1.8827,-1.8827,-1.8827,-1.8827,-1.8827,-1.8827,-1.8767,-3.5489,-3.5489,-3.5489,-3.5489,-3.5489,-3.5489,-3.5489,-3.5489,-3.5489,-3.5489,-3.5489,-3.5424,-3.4758,-3.3671,-3.2961,-3.1829,-3.0924,-3.0392,-3.036,-3.0407,-3.062,-3.1235,-3.1562,-3.175,-3.1813,-3.2381,-3.2324,-3.2091,-3.1798,-3.1336,-3.0844,-3.0446,-3.0068,-2.9669,-2.9312,-2.8664,-2.8196,-2.8102,-2.782,-2.7441,-2.7452,-2.7262,-2.7071,-2.6805,-2.6794,-2.6592,-2.6496,-2.64,-2.6207,-2.611,-2.5917,-2.5927,-2.5732,-2.5732,-2.5732,-2.5732,-2.5732,-2.5732,-2.5732,-2.5732,-2.5732,-2.5732,-2.5732,-2.5635,-2.5538,-2.544,-2.5333,-2.5137,-2.4932,-2.4833,-2.4735,-2.4538,-2.444,-2.444,-2.435,-2.4251,-2.4152,-2.4044,-2.3854,-2.3755,-2.3773,-2.3682,-2.3591,-2.34,-2.3373,-2.3247,-2.3347,-2.3247,-2.3046,-2.2946,-2.2846,-2.2745,-2.2644,-2.2544,-2.2443,-2.2224,-2.1971,-2.1753,-2.1653,-2.1188,-2.0557,-1.936,-1.8856,-1.8855,-1.8862,-1.8859,-1.8743,-1.8743,-1.8743,-1.8827,-1.8751,-1.8775,-1.8827,-1.8835,-1.8838,-3.5489,-3.5489,-3.5489,-3.5489,-3.5489,-3.5489,-3.5489,-3.5489,-3.5489,-3.5489,-3.5489,-3.5424,-3.4476,-3.3101,-3.2678,-3.1623,-3.0495,-2.9997,-2.9905,-2.998,-3.008,-3.0306,-3.062,-3.0922,-3.126,-3.1304,-3.1472,-3.1335,-3.0987,-3.0819,-3.043,-2.9978,-2.9625,-2.9312,-2.9035,-2.8373,-2.7904,-2.7631,-2.7641,-2.7262,-2.6986,-2.69,-2.6794,-2.6592,-2.6496,-2.64,-2.6207,-2.611,-2.6014,-2.583,-2.583,-2.5732,-2.5732,-2.5732,-2.5732,-2.5732,-2.5732,-2.5732,-2.5732,-2.5732,-2.5635,-2.5635,-2.5635,-2.5528,-2.5333,-2.5235,-2.5147,-2.4941,-2.4637,-2.4538,-2.444,-2.4341,-2.4242,-2.4143,-2.4152,-2.4053,-2.3854,-2.3746,-2.3655,-2.3456,-2.3456,-2.3364,-2.3182,-2.3081,-2.2963,-2.2955,-2.2946,-2.2946,-2.2745,-2.2644,-2.2636,-2.2544,-2.2333,-2.2131,-2.2022,-2.1862,-2.1585,-2.1337,-2.095,-2.0468,-1.9999,-1.913,-1.8785,-1.8822,-1.8775,-1.8651,-1.8658,-1.8666,-1.8644,-1.8715,-1.8737,-1.8822,-1.8775,-1.8854,-1.8856,-3.5489,-3.5489,-3.5489,-3.5489,-3.5489,-3.5489,-3.5489,-3.5489,-3.5489,-3.5489,-3.5344,-3.4839,-3.4327,-3.338,-3.2164,-3.1328,-3.0771,-2.9934,-2.9779,-2.9779,-2.9779,-3.0143,-3.0444,-3.062,-3.0846,-3.1248,-3.1317,-3.1009,-3.0827,-3.0579,-3.0253,-2.985,-2.9114,-2.8735,-2.8477,-2.8008,-2.7631,-2.7452,-2.7272,-2.6986,-2.6699,-2.6602,-2.6506,-2.6304,-2.6207,-2.611,-2.5917,-2.5917,-2.583,-2.5732,-2.5732,-2.5732,-2.5732,-2.5732,-2.5732,-2.5732,-2.5732,-2.5732,-2.5732,-2.5635,-2.5635,-2.5538,-2.544,-2.5333,-2.5039,-2.4833,-2.4735,-2.4637,-2.444,-2.4341,-2.4242,-2.4044,-2.3945,-2.3845,-2.3845,-2.3646,-2.3546,-2.3546,-2.3447,-2.3247,-2.3155,-2.2911,-2.2802,-2.2464,-2.2321,-2.2389,-2.249,-2.2693,-2.2627,-2.2426,-2.2224,-2.2131,-2.2005,-2.1753,-2.1578,-2.1303,-2.1047,-2.0868,-2.0386,-1.991,-1.9344,-1.884,-1.8621,-1.8473,-1.8566,-1.8566,-1.8458,-1.8442,-1.8573,-1.8619,-1.865,-1.8737,-1.8816,-1.8884,-1.8931,-3.4801,-3.4831,-3.5055,-3.5145,-3.519,-3.54,-3.5489,-3.5489,-3.5489,-3.5489,-3.5279,-3.4476,-3.3754,-3.3101,-3.2033,-3.0895,-3.0696,-3.0139,-2.9779,-2.9779,-2.9779,-2.9993,-3.0206,-3.0369,-3.0407,-3.0796,-3.0859,-3.0568,-3.0126,-3.0181,-2.9762,-2.9037,-2.8598,-2.8132,-2.782,-2.7441,-2.7262,-2.7081,-2.689,-2.6699,-2.64,-2.6304,-2.6207,-2.6014,-2.5917,-2.5917,-2.5732,-2.5732,-2.5732,-2.5732,-2.5732,-2.5732,-2.5732,-2.5732,-2.5732,-2.5732,-2.5732,-2.5732,-2.5732,-2.5732,-2.5528,-2.5235,-2.5235,-2.5137,-2.4833,-2.4627,-2.4529,-2.444,-2.4214,-2.4106,-2.3989,-2.3791,-2.3547,-2.344,-2.3225,-2.301,-2.2858,-2.2832,-2.2742,-2.2589,-2.2525,-2.2352,-2.2212,-2.1968,-2.1734,-2.1827,-2.2019,-2.213,-2.2332,-2.203,-2.1879,-2.1737,-2.1578,-2.1204,-2.0941,-2.0629,-2.0443,-2.0297,-1.9965,-1.9557,-1.9067,-1.8598,-1.8404,-1.8249,-1.828,-1.8342,-1.83,-1.8328,-1.8399,-1.858,-1.8634,-1.8686,-1.8796,-1.8851,-1.9079,-3.3514,-3.3604,-3.4173,-3.4442,-3.4562,-3.5115,-3.5429,-3.5489,-3.5489,-3.5424,-3.5359,-3.4259,-3.338,-3.2464,-3.1549,-3.0696,-3.0075,-2.9856,-2.9779,-2.9779,-2.9779,-2.9854,-2.9854,-2.9892,-3.0018,-2.9917,-2.9877,-2.992,-2.9211,-2.9177,-2.8758,-2.8274,-2.8097,-2.7767,-2.7431,-2.7071,-2.6986,-2.6794,-2.6592,-2.6304,-2.611,-2.61,-2.6014,-2.583,-2.5732,-2.5732,-2.5732,-2.5732,-2.5732,-2.5732,-2.5732,-2.5732,-2.5732,-2.5732,-2.5732,-2.5693,-2.5664,-2.5625,-2.5518,-2.5488,-2.5218,-2.4851,-2.4946,-2.4846,-2.4534,-2.4235,-2.4036,-2.3956,-2.3849,-2.3744,-2.37,-2.3367,-2.2956,-2.2725,-2.2373,-2.2206,-2.1944,-2.183,-2.1752,-2.1681,-2.1619,-2.1599,-2.1475,-2.1318,-2.1112,-2.1228,-2.1312,-2.137,-2.1478,-2.1512,-2.1329,-2.1172,-2.0908,-2.0687,-2.0345,-2.0087,-1.987,-1.9716,-1.9692,-1.9421,-1.8925,-1.8412,-1.8071,-1.787,-1.8009,-1.8115,-1.8108,-1.8141,-1.8364,-1.8459,-1.8696,-1.8688,-1.879,-1.9048,-1.9122,-3.3499,-3.3529,-3.3694,-3.3769,-3.3873,-3.4487,-3.504,-3.5474,-3.5489,-3.5133,-3.4394,-3.3463,-3.2579,-3.1536,-3.0633,-3.0139,-2.9934,-2.9779,-2.9779,-2.9779,-2.9779,-2.9779,-2.9779,-2.9779,-2.9779,-2.9727,-2.9739,-2.9489,-2.9015,-2.8645,-2.8406,-2.8288,-2.7817,-2.7537,-2.7295,-2.6965,-2.6688,-2.64,-2.6304,-2.611,-2.5917,-2.582,-2.5732,-2.5732,-2.5732,-2.5732,-2.5732,-2.5732,-2.5723,-2.5713,-2.5723,-2.5732,-2.5732,-2.5713,-2.5664,-2.5283,-2.5215,-2.5146,-2.4883,-2.4805,-2.4656,-2.4411,-2.4288,-2.4059,-2.3808,-2.3607,-2.3478,-2.3455,-2.3368,-2.3211,-2.2991,-2.2619,-2.2276,-2.197,-2.164,-2.1354,-2.1113,-2.1026,-2.094,-2.0948,-2.0965,-2.0937,-2.0807,-2.0434,-2.0361,-2.0597,-2.0679,-2.0703,-2.072,-2.0843,-2.0736,-2.0573,-2.037,-2.0071,-1.9878,-1.9614,-1.9288,-1.909,-1.9207,-1.9207,-1.8699,-1.8295,-1.777,-1.7636,-1.7864,-1.7903,-1.7853,-1.8118,-1.8372,-1.8628,-1.8746,-1.8811,-1.8898,-1.9021,-1.9182,-3.2721,-3.2751,-3.3006,-3.3245,-3.3544,-3.3918,-3.4352,-3.4771,-3.5265,-3.5014,-3.4126,-3.3128,-3.2113,-3.1302,-3.0353,-2.9779,-2.9779,-2.9779,-2.9779,-2.9779,-2.9779,-2.9779,-2.9779,-2.9727,-2.9617,-2.9576,-2.9303,-2.8967,-2.8539,-2.8195,-2.7999,-2.7831,-2.7515,-2.7514,-2.7285,-2.6832,-2.6476,-2.6197,-2.6004,-2.582,-2.5703,-2.5713,-2.5732,-2.5693,-2.5693,-2.5693,-2.5693,-2.5684,-2.5644,-2.5518,-2.5478,-2.5361,-2.5283,-2.5176,-2.5156,-2.4824,-2.4795,-2.4707,-2.4551,-2.4492,-2.4249,-2.3986,-2.3696,-2.3475,-2.3251,-2.3119,-2.3024,-2.2975,-2.2817,-2.2573,-2.2218,-2.1863,-2.1613,-2.1268,-2.0882,-2.0498,-2.0395,-2.0301,-2.0309,-2.0404,-2.0342,-2.0297,-2.0099,-1.9733,-1.9621,-1.9829,-1.9892,-1.9676,-1.9886,-2.0144,-2.0127,-2.0015,-1.9838,-1.9662,-1.9368,-1.9115,-1.8887,-1.8784,-1.8893,-1.8784,-1.8512,-1.814,-1.7665,-1.7603,-1.7669,-1.786,-1.8101,-1.8316,-1.8535,-1.8752,-1.8772,-1.8633,-1.8619,-1.8654,-1.8948,-3.1332,-3.1435,-3.2078,-3.2721,-3.3365,-3.3425,-3.3484,-3.3634,-3.4756,-3.4916,-3.4006,-3.2942,-3.1969,-3.111,-3.0108,-2.9768,-2.9754,-2.9779,-2.9779,-2.9779,-2.9779,-2.9779,-2.9779,-2.9804,-2.9617,-2.9141,-2.8879,-2.8901,-2.7969,-2.7741,-2.7757,-2.7305,-2.7523,-2.7415,-2.6907,-2.6692,-2.6313,-2.5924,-2.5698,-2.5545,-2.5557,-2.5635,-2.5635,-2.5566,-2.5547,-2.5557,-2.5566,-2.5527,-2.5449,-2.5166,-2.4971,-2.4814,-2.4668,-2.4541,-2.4512,-2.4394,-2.4365,-2.4248,-2.416,-2.4092,-2.4059,-2.3799,-2.3602,-2.3195,-2.2969,-2.2714,-2.2649,-2.2389,-2.2149,-2.1955,-2.1622,-2.1162,-2.0814,-2.0585,-2.0238,-1.9893,-1.969,-1.9597,-1.9605,-1.9605,-1.9706,-1.9662,-1.9507,-1.9161,-1.9239,-1.9311,-1.9271,-1.8994,-1.9105,-1.9439,-1.9455,-1.9383,-1.9233,-1.9154,-1.8926,-1.8792,-1.8551,-1.8504,-1.8621,-1.8543,-1.8334,-1.7897,-1.7566,-1.7581,-1.7717,-1.8149,-1.8332,-1.8477,-1.8561,-1.8594,-1.8589,-1.8408,-1.8415,-1.8408,-1.8541,-3.0058,-3.0118,-3.0717,-3.1659,-3.2677,-3.2751,-3.3036,-3.3499,-3.3799,-3.3469,-3.2637,-3.1724,-3.1046,-3.0453,-2.9638,-2.9377,-2.9741,-2.9779,-2.9779,-2.9779,-2.9779,-2.9779,-2.9779,-2.9792,-2.9671,-2.9671,-2.9401,-2.8889,-2.8286,-2.8065,-2.7849,-2.7511,-2.7457,-2.7112,-2.6843,-2.6645,-2.6085,-2.5568,-2.5208,-2.5159,-2.5127,-2.4893,-2.4727,-2.4766,-2.4795,-2.4844,-2.4834,-2.4775,-2.4707,-2.458,-2.457,-2.4502,-2.4424,-2.4404,-2.4228,-2.4014,-2.3926,-2.3799,-2.3662,-2.3603,-2.3514,-2.3347,-2.3133,-2.2986,-2.272,-2.2438,-2.2143,-2.188,-2.1626,-2.1352,-2.1059,-2.0514,-2.0079,-1.9854,-1.9645,-1.9328,-1.902,-1.8936,-1.8944,-1.8944,-1.902,-1.8968,-1.8923,-1.8923,-1.8899,-1.8899,-1.8915,-1.8867,-1.879,-1.8887,-1.8926,-1.8879,-1.8832,-1.8652,-1.8473,-1.8381,-1.8288,-1.8202,-1.8233,-1.8148,-1.8062,-1.7923,-1.7684,-1.7732,-1.7788,-1.8103,-1.8375,-1.8377,-1.8442,-1.8422,-1.8331,-1.8115,-1.801,-1.7996,-1.8233,-2.9594,-2.9654,-3.0253,-3.1106,-3.1958,-3.2078,-3.2302,-3.2587,-3.2632,-3.2105,-3.1386,-3.0932,-3.0459,-2.9876,-2.9147,-2.9214,-2.9679,-2.9779,-2.9779,-2.9779,-2.9779,-2.9779,-2.9779,-2.9792,-2.9455,-2.9413,-2.897,-2.8467,-2.8445,-2.8147,-2.7827,-2.7884,-2.7502,-2.7151,-2.6998,-2.6523,-2.5944,-2.5381,-2.4887,-2.4673,-2.4653,-2.4404,-2.4394,-2.4424,-2.4404,-2.4394,-2.4424,-2.4394,-2.4297,-2.4111,-2.3945,-2.3838,-2.3779,-2.3779,-2.3701,-2.3574,-2.3467,-2.3389,-2.3213,-2.3144,-2.3144,-2.3047,-2.3047,-2.294,-2.2763,-2.2485,-2.2128,-2.1788,-2.1329,-2.1148,-2.062,-2.0195,-1.972,-1.9328,-1.9052,-1.8759,-1.8558,-1.8458,-1.8666,-1.8875,-1.8867,-1.8867,-1.8806,-1.8875,-1.8759,-1.8682,-1.8658,-1.855,-1.8465,-1.8465,-1.8458,-1.8365,-1.828,-1.8288,-1.828,-1.8094,-1.7916,-1.7923,-1.7845,-1.7557,-1.7406,-1.7684,-1.7821,-1.7731,-1.7789,-1.8122,-1.8267,-1.822,-1.8171,-1.822,-1.801,-1.7793,-1.7694,-1.7589,-1.7707,-2.94,-2.9654,-3.0148,-3.0776,-3.1345,-3.1405,-3.142,-3.1435,-3.1362,-3.094,-3.0287,-3.0434,-2.9998,-2.946,-2.8979,-2.9277,-2.9541,-2.9716,-2.9767,-2.9779,-2.9779,-2.9779,-2.9779,-2.9727,-2.951,-2.9117,-2.874,-2.8669,-2.869,-2.8433,-2.8397,-2.8426,-2.8117,-2.7683,-2.7227,-2.6726,-2.6077,-2.5104,-2.4506,-2.4088,-2.4057,-2.4043,-2.4111,-2.4189,-2.4248,-2.4258,-2.4248,-2.418,-2.4004,-2.3789,-2.3447,-2.3369,-2.331,-2.334,-2.3301,-2.3232,-2.3242,-2.3203,-2.3144,-2.3144,-2.3144,-2.3057,-2.3144,-2.2969,-2.2794,-2.253,-2.2176,-2.1731,-2.1275,-2.0736,-2.0292,-1.9845,-1.9296,-1.8928,-1.8651,-1.8373,-1.8179,-1.8079,-1.8295,-1.8605,-1.869,-1.8682,-1.8666,-1.8643,-1.8643,-1.8473,-1.8388,-1.828,-1.8179,-1.8087,-1.8087,-1.7994,-1.7815,-1.7908,-1.79,-1.7815,-1.7542,-1.7456,-1.7369,-1.6986,-1.6876,-1.7173,-1.7449,-1.7577,-1.7649,-1.8004,-1.8054,-1.7969,-1.801,-1.7911,-1.7701,-1.7483,-1.7483,-1.7378,-1.7166,-2.8607,-2.9594,-2.9714,-3.0118,-3.0657,-3.0702,-3.0687,-3.0702,-3.0675,-3.0178,-2.9448,-2.9281,-2.9034,-2.8615,-2.8405,-2.8599,-2.9227,-2.9553,-2.9767,-2.9779,-2.9779,-2.9779,-2.9779,-2.9792,-2.9686,-2.9455,-2.926,-2.9352,-2.9083,-2.901,-2.8913,-2.8761,-2.8534,-2.7778,-2.6529,-2.6105,-2.5572,-2.4707,-2.4017,-2.3614,-2.3399,-2.3398,-2.335,-2.3379,-2.3369,-2.3379,-2.3379,-2.3389,-2.333,-2.3252,-2.3203,-2.3154,-2.3144,-2.3144,-2.3144,-2.3144,-2.3144,-2.3144,-2.3144,-2.3144,-2.3144,-2.3144,-2.3144,-2.3057,-2.2882,-2.2618,-2.2264,-2.182,-2.1275,-2.0637,-2.0102,-1.9563,-1.9104,-1.8643,-1.8272,-1.8087,-1.79,-1.7807,-1.7916,-1.8109,-1.8295,-1.828,-1.8172,-1.8257,-1.8156,-1.8079,-1.8187,-1.8087,-1.7908,-1.7807,-1.7714,-1.7527,-1.734,-1.734,-1.7426,-1.7347,-1.7167,-1.708,-1.6892,-1.6697,-1.6552,-1.6599,-1.6844,-1.712,-1.7503,-1.7893,-1.7905,-1.7799,-1.7694,-1.7701,-1.7384,-1.7279,-1.7173,-1.706,-1.6849]},{"header":{"parameterUnit":"m.s-1","parameterCategory":1,"la1":31.0,"la2":29.5877,"lo1":-88.7671,"lo2":-86.6584,"dy":0.0162,"dx":0.0185,"nx":115,"ny":88,"refTime":"2023-07-20T12:00:00:Z","depth":0,"parameterNumber":3,"parameterNumberName":"V-component_of_WINDS"},"data":[0.0,0.0,0.0,0.0,0.0,0.0,0.0,0.0,0.0,0.0,0.0,0.0,0.0,0.0,0.0,0.0,0.0,0.0,0.0,0.0,0.0,0.0,0.0,0.0,0.0,0.0,0.0,0.0,0.0,0.0,0.0,0.0,0.0,0.0,0.0,0.0,0.0,0.0,0.0,0.0,0.0,0.0,0.0,0.0,0.0,0.0,0.0,0.0,0.0,0.0,0.0,0.0,0.0,0.0,0.0,0.0,0.0,0.0,0.0,0.0,0.0,0.0,0.0,0.0,0.0,0.0,0.0,0.0,0.0,0.0,0.0,0.0,0.0,0.0,0.0,0.0,0.0,0.0,0.0,0.0,0.0,0.0,0.0,0.0,0.0,0.0,0.0,0.0,0.0,0.0,0.0,0.0,0.0,0.0,0.0,0.0,0.0,0.0,0.0,0.0,0.0,0.0,0.0,0.0,0.0,0.0,0.0,0.0,0.0,0.0,0.0,0.0,0.0,0.0,0.0,0.0,0.0,0.0,0.0,0.0,0.0,0.0,0.0,0.0,0.0,0.0,0.0,0.0,0.0,0.0,0.0,0.0,0.0,0.0,0.0,0.0,0.0,0.0,0.0,0.0,0.0,0.0,0.0,0.0,0.0,0.0,0.0,0.0,0.0,0.0,0.0,0.0,0.0,0.0,0.0,0.0,0.0,0.0,0.0,0.0,0.0,0.0,0.0,0.0,0.0,0.0,0.0,0.0,0.0,0.0,0.0,0.0,0.0,0.0,0.0,0.0,0.0,0.0,0.0,0.0,0.0,0.0,0.0,0.0,0.0,0.0,0.0,0.0,0.0,0.0,0.0,0.0,0.0,0.0,0.0,0.0,0.0,0.0,0.0,0.0,0.0,0.0,0.0,0.0,0.0,0.0,0.0,0.0,0.0,0.0,0.0,0.0,0.0,0.0,0.0,0.0,0.0,0.0,0.0,0.0,0.0,0.0,0.0,0.0,0.0,0.0,0.0,0.0,0.0,0.0,0.0,0.0,0.0,0.0,0.0,0.0,0.0,0.0,0.0,0.0,0.0,0.0,0.0,0.0,0.0,0.0,0.0,0.0,0.0,0.0,0.0,0.0,0.0,0.0,0.0,0.0,0.0,0.0,0.0,0.0,0.0,0.0,0.0,0.0,0.0,0.0,0.0,0.0,0.0,0.0,0.0,0.0,0.0,0.0,0.0,0.0,0.0,0.0,0.0,0.0,0.0,0.0,0.0,0.0,0.0,0.0,0.0,0.0,0.0,0.0,0.0,0.0,0.0,0.0,0.0,0.0,0.0,0.0,0.0,0.0,0.0,0.0,0.0,0.0,0.0,0.0,0.0,0.0,0.0,0.0,0.0,0.0,0.0,0.0,0.0,0.0,0.0,0.0,0.0,0.0,0.0,0.0,0.0,0.0,0.0,0.0,0.0,0.0,0.0,0.0,0.0,0.0,0.0,0.0,0.0,0.0,0.0,0.0,0.0,0.0,0.0,0.0,0.0,0.0,0.0,0.0,0.0,0.0,0.0,0.0,0.0,0.0,0.0,0.0,0.0,0.0,0.0,0.0,0.0,0.0,0.0,0.0,0.0,0.0,0.0,0.0,0.0,0.0,0.0,0.0,0.0,0.0,0.0,0.0,0.0,0.0,0.0,0.0,0.0,0.0,0.0,0.0,0.0,0.0,0.0,0.0,0.0,0.0,0.0,0.0,0.0,0.0,0.0,0.0,0.0,0.0,0.0,0.0,0.0,0.0,0.0,0.0,0.0,0.0,0.0,0.0,0.0,0.0,0.0,0.0,0.0,0.0,0.0,0.0,0.0,0.0,0.0,0.0,0.0,0.0,0.0,0.0,0.0,0.0,0.0,0.0,0.0,0.0,0.0,0.0,0.0,0.0,0.0,0.0,0.0,0.0,0.0,0.0,0.0,0.0,0.0,0.0,0.0,0.0,0.0,0.0,0.0,0.0,0.0,0.0,0.0,0.0,0.0,0.0,0.0,0.0,0.0,0.0,0.0,0.0,0.0,0.0,0.0,0.0,0.0,0.0,0.0,0.0,0.0,0.0,0.0,0.0,0.0,0.0,0.0,0.0,0.0,0.0,0.0,0.0,0.0,0.0,0.0,0.0,0.0,0.0,0.0,0.0,0.0,0.0,0.0,0.0,0.0,0.0,0.0,0.0,0.0,0.0,0.0,0.0,0.0,0.0,0.0,0.0,0.0,0.0,0.0,0.0,0.0,0.0,0.0,0.0,0.0,0.0,0.0,0.0,0.0,0.0,0.0,0.0,0.0,0.0,0.0,0.0,0.0,0.0,0.0,0.0,0.0,0.0,0.0,0.0,0.0,0.0,0.0,0.0,0.0,0.0,0.0,0.0,0.0,0.0,0.0,0.0,0.0,0.0,0.0,0.0,0.0,0.0,0.0,0.0,0.0,0.0,0.0,0.0,0.0,0.0,0.0,0.0,0.0,0.0,0.0,0.0,0.0,0.0,0.0,0.0,0.0,0.0,0.0,0.0,0.0,0.0,0.0,0.0,0.0,0.0,0.0,0.0,0.0,0.0,0.0,0.0,0.0,0.0,0.0,0.0,0.0,0.0,0.0,0.0,0.0,0.0,0.0,0.0,0.0,0.0,0.0,0.0,0.0,0.0,0.0,0.0,0.0,0.0,0.0,0.0,0.0,0.0,0.0,0.0,0.0,0.0,0.0,0.0,0.0,0.0,0.0,0.0,0.0,0.0,0.0,0.0,0.0,0.0,0.0,0.0,0.0,0.0,0.0,0.0,0.0,0.0,0.0,0.0,0.0,0.0,0.0,0.0,0.0,0.0,0.0,0.0,0.0,0.0,0.0,0.0,0.0,0.0,0.0,0.0,0.0,0.0,0.0,0.0,0.0,0.0,0.0,0.0,0.0,0.0,0.0,0.0,0.0,0.0,0.0,0.0,0.0,0.0,0.0,0.0,0.0,0.0,0.0,0.0,0.0,0.0,0.0,0.0,0.0,0.0,0.0,0.0,0.0,0.0,0.0,0.0,0.0,0.0,0.0,0.0,0.0,0.0,0.0,0.0,0.0,0.0,0.0,0.0,0.0,0.0,0.0,0.0,0.0,0.0,0.0,0.0,0.0,0.0,0.0,0.0,0.0,0.0,0.0,0.0,0.0,0.0,0.0,0.0,0.0,0.0,0.0,0.0,0.0,0.0,0.0,0.0,0.0,0.0,0.0,0.0,0.0,0.0,0.0,0.0,0.0,0.0,0.0,0.0,0.0,0.0,0.0,0.0,0.0,0.0,0.0,0.0,0.0,0.0,0.0,0.0,0.0,0.0,0.0,0.0,0.0,0.0,0.0,0.0,0.0,0.0,0.0,0.0,0.0,0.0,0.0,0.0,0.0,0.0,0.0,0.0,0.0,0.0,0.0,0.0,0.0,0.0,0.0,0.0,0.0,0.0,0.0,0.0,0.0,0.0,0.0,0.0,0.0,0.0,0.0,0.0,0.0,0.0,0.0,0.0,0.0,0.0,0.0,0.0,0.0,0.0,0.0,0.0,0.0,0.0,0.0,0.0,0.0,0.0,0.0,0.0,0.0,0.0,0.0,0.0,0.0,0.0,0.0,0.0,0.0,0.0,0.0,0.0,0.0,0.0,0.0,0.0,0.0,0.0,0.0,0.0,0.0,0.0,0.0,0.0,0.0,0.0,0.0,0.0,0.0,0.0,0.0,0.0,0.0,0.0,0.0,0.0,0.0,0.0,0.0,0.0,0.0,0.0,0.0,0.0,0.0,0.0,0.0,0.0,0.0,0.0,0.0,0.0,0.0,0.0,0.0,0.0,0.0,0.0,0.0,0.0,0.0,0.0,0.0,0.0,0.0,0.0,0.0,0.0,0.0,0.0,0.0,0.0,0.0,0.0,0.0,0.0,0.0,0.0,0.0,0.0,0.0,0.0,0.0,0.0,0.0,0.0,0.0,0.0,0.0,0.0,0.0,0.0,0.0,0.0,0.0,0.0,0.0,0.0,0.0,0.0,0.0,0.0,0.0,0.0,0.0,0.0,0.0,0.0,0.0,0.0,0.0,0.0,0.0,0.0,0.0,0.0,0.0,0.0,0.0,0.0,0.0,0.0,0.0,0.0,0.0,0.0,0.0,0.0,0.0,0.0,0.0,0.0,0.0,0.0,0.0,0.0,0.0,0.0,0.0,0.0,0.0,0.0,0.0,0.0,0.0,0.0,0.0,0.0,0.0,0.0,0.0,0.0,0.0,0.0,-2.6659,0.0,0.0,0.0,0.0,0.0,0.0,0.0,0.0,0.0,0.0,0.0,0.0,0.0,0.0,0.0,0.0,0.0,0.0,0.0,0.0,0.0,0.0,0.0,0.0,0.0,0.0,0.0,0.0,0.0,0.0,0.0,0.0,0.0,0.0,0.0,0.0,0.0,0.0,0.0,0.0,0.0,0.0,0.0,0.0,0.0,0.0,0.0,0.0,0.0,0.0,0.0,0.0,0.0,0.0,0.0,0.0,0.0,0.0,0.0,0.0,0.0,0.0,0.0,0.0,0.0,0.0,0.0,0.0,0.0,0.0,0.0,0.0,0.0,0.0,0.0,0.0,0.0,0.0,0.0,0.0,0.0,0.0,0.0,0.0,0.0,0.0,0.0,0.0,0.0,0.0,0.0,0.0,0.0,0.0,0.0,0.0,0.0,0.0,0.0,0.0,0.0,0.0,0.0,0.0,0.0,0.0,0.0,0.0,0.0,0.0,-2.731,-2.5948,-2.651,-2.6566,-2.5948,0.0,0.0,0.0,0.0,0.0,0.0,0.0,0.0,0.0,0.0,0.0,0.0,0.0,0.0,0.0,0.0,0.0,0.0,0.0,0.0,0.0,0.0,0.0,0.0,0.0,0.0,0.0,0.0,0.0,0.0,0.0,0.0,0.0,0.0,0.0,0.0,0.0,0.0,0.0,0.0,0.0,0.0,0.0,0.0,0.0,0.0,0.0,0.0,0.0,0.0,0.0,0.0,0.0,0.0,0.0,0.0,0.0,0.0,0.0,0.0,0.0,0.0,0.0,0.0,0.0,0.0,0.0,0.0,0.0,0.0,0.0,0.0,0.0,0.0,0.0,0.0,0.0,0.0,0.0,0.0,0.0,0.0,0.0,0.0,0.0,0.0,0.0,0.0,0.0,0.0,0.0,0.0,0.0,0.0,0.0,0.0,0.0,0.0,0.0,0.0,0.0,0.0,0.0,0.0,0.0,0.0,0.0,0.0,0.0,0.0,0.0,0.0,-2.668,-2.6734,-2.598,0.0,0.0,0.0,0.0,0.0,0.0,0.0,0.0,0.0,0.0,0.0,0.0,0.0,0.0,0.0,0.0,0.0,0.0,0.0,0.0,0.0,0.0,0.0,0.0,0.0,0.0,0.0,0.0,0.0,0.0,0.0,0.0,0.0,0.0,0.0,0.0,0.0,0.0,0.0,0.0,0.0,0.0,0.0,0.0,0.0,0.0,0.0,0.0,0.0,0.0,0.0,0.0,0.0,0.0,0.0,0.0,0.0,0.0,0.0,0.0,0.0,0.0,0.0,0.0,0.0,0.0,0.0,0.0,0.0,0.0,0.0,0.0,0.0,0.0,0.0,0.0,0.0,0.0,0.0,0.0,0.0,0.0,0.0,0.0,0.0,0.0,0.0,0.0,0.0,0.0,0.0,0.0,0.0,0.0,0.0,0.0,0.0,0.0,0.0,0.0,0.0,0.0,0.0,0.0,0.0,0.0,0.0,0.0,0.0,0.0,-2.5555,-2.7353,-2.6876,0.0,-2.7301,0.0,0.0,0.0,0.0,0.0,0.0,0.0,0.0,0.0,0.0,0.0,0.0,0.0,0.0,0.0,0.0,0.0,0.0,0.0,0.0,0.0,0.0,0.0,0.0,0.0,0.0,0.0,0.0,0.0,0.0,0.0,0.0,0.0,0.0,0.0,0.0,0.0,0.0,0.0,0.0,0.0,0.0,0.0,0.0,0.0,0.0,0.0,0.0,0.0,0.0,0.0,0.0,0.0,0.0,0.0,0.0,0.0,0.0,0.0,0.0,0.0,0.0,0.0,0.0,0.0,0.0,0.0,0.0,0.0,0.0,0.0,0.0,0.0,0.0,0.0,0.0,0.0,0.0,0.0,0.0,0.0,0.0,0.0,0.0,0.0,0.0,0.0,0.0,0.0,0.0,0.0,0.0,0.0,0.0,0.0,0.0,0.0,0.0,0.0,0.0,0.0,0.0,0.0,0.0,0.0,0.0,0.0,0.0,0.0,0.0,-2.5775,-2.6934,-2.6658,-2.6354,0.0,0.0,0.0,0.0,0.0,0.0,0.0,0.0,0.0,0.0,0.0,0.0,0.0,0.0,0.0,0.0,0.0,0.0,0.0,0.0,0.0,0.0,0.0,0.0,0.0,0.0,0.0,0.0,0.0,0.0,0.0,0.0,0.0,0.0,0.0,0.0,0.0,0.0,0.0,0.0,0.0,0.0,0.0,0.0,0.0,0.0,0.0,0.0,0.0,0.0,0.0,0.0,0.0,0.0,0.0,0.0,0.0,0.0,0.0,0.0,0.0,0.0,0.0,0.0,0.0,0.0,0.0,0.0,0.0,0.0,0.0,0.0,0.0,0.0,0.0,0.0,0.0,0.0,0.0,0.0,0.0,0.0,0.0,0.0,0.0,0.0,0.0,0.0,0.0,0.0,0.0,0.0,0.0,0.0,0.0,0.0,0.0,0.0,0.0,0.0,0.0,0.0,0.0,0.0,0.0,0.0,0.0,0.0,0.0,0.0,-2.5827,-2.6231,-2.7087,-2.6773,-2.6088,-2.5297,0.0,0.0,0.0,0.0,0.0,0.0,0.0,0.0,0.0,0.0,0.0,0.0,0.0,0.0,0.0,0.0,0.0,0.0,0.0,0.0,0.0,0.0,0.0,0.0,0.0,0.0,0.0,0.0,0.0,0.0,0.0,0.0,0.0,0.0,0.0,0.0,0.0,0.0,0.0,0.0,0.0,0.0,0.0,0.0,0.0,0.0,0.0,0.0,0.0,0.0,0.0,0.0,0.0,0.0,0.0,0.0,0.0,0.0,0.0,0.0,0.0,0.0,0.0,0.0,0.0,0.0,0.0,0.0,0.0,0.0,0.0,0.0,0.0,0.0,0.0,0.0,0.0,0.0,0.0,0.0,0.0,0.0,0.0,0.0,0.0,0.0,0.0,0.0,0.0,0.0,0.0,0.0,0.0,0.0,0.0,0.0,0.0,0.0,0.0,0.0,0.0,0.0,0.0,0.0,0.0,0.0,0.0,0.0,-2.9347,-2.6977,-2.6672,-2.8674,-2.7293,-2.644,0.0,0.0,0.0,0.0,0.0,0.0,0.0,0.0,0.0,0.0,0.0,0.0,0.0,0.0,0.0,0.0,0.0,0.0,0.0,0.0,0.0,0.0,0.0,0.0,0.0,0.0,0.0,0.0,0.0,0.0,0.0,0.0,0.0,0.0,0.0,0.0,0.0,0.0,0.0,0.0,0.0,0.0,0.0,0.0,0.0,0.0,0.0,0.0,0.0,0.0,0.0,0.0,0.0,0.0,0.0,0.0,0.0,0.0,0.0,0.0,0.0,0.0,0.0,0.0,0.0,0.0,0.0,0.0,0.0,0.0,0.0,0.0,0.0,0.0,0.0,0.0,0.0,0.0,0.0,0.0,0.0,0.0,0.0,0.0,0.0,0.0,0.0,0.0,0.0,0.0,0.0,0.0,0.0,0.0,0.0,0.0,0.0,0.0,0.0,0.0,0.0,0.0,0.0,0.0,0.0,0.0,0.0,0.0,0.0,-2.5524,-2.5425,-2.651,-2.87,-2.6793,-2.6103,0.0,0.0,0.0,0.0,0.0,0.0,0.0,0.0,0.0,0.0,0.0,0.0,0.0,0.0,0.0,0.0,0.0,0.0,0.0,0.0,0.0,0.0,0.0,0.0,0.0,0.0,0.0,0.0,0.0,0.0,0.0,0.0,0.0,0.0,0.0,0.0,0.0,0.0,0.0,0.0,0.0,0.0,0.0,0.0,0.0,0.0,0.0,0.0,0.0,0.0,0.0,0.0,0.0,0.0,0.0,0.0,0.0,0.0,0.0,0.0,0.0,0.0,0.0,0.0,0.0,0.0,0.0,0.0,0.0,0.0,0.0,0.0,0.0,0.0,0.0,0.0,0.0,0.0,0.0,0.0,0.0,0.0,0.0,0.0,0.0,0.0,0.0,0.0,0.0,0.0,0.0,0.0,0.0,0.0,0.0,0.0,0.0,0.0,0.0,0.0,0.0,0.0,0.0,0.0,0.0,0.0,0.0,0.0,0.0,-2.3968,0.0,-2.6743,-2.7294,-2.602,-2.537,0.0,0.0,0.0,0.0,0.0,0.0,0.0,0.0,0.0,0.0,0.0,0.0,0.0,0.0,0.0,0.0,0.0,0.0,0.0,0.0,0.0,0.0,0.0,0.0,0.0,0.0,0.0,0.0,0.0,0.0,0.0,0.0,0.0,0.0,0.0,0.0,0.0,0.0,0.0,0.0,0.0,0.0,0.0,0.0,0.0,0.0,0.0,0.0,0.0,0.0,0.0,0.0,0.0,0.0,0.0,0.0,0.0,0.0,0.0,0.0,0.0,0.0,0.0,0.0,0.0,0.0,0.0,0.0,0.0,0.0,0.0,0.0,0.0,0.0,0.0,0.0,0.0,0.0,0.0,0.0,0.0,0.0,0.0,0.0,0.0,0.0,0.0,0.0,0.0,0.0,0.0,0.0,0.0,0.0,0.0,0.0,0.0,0.0,0.0,0.0,0.0,0.0,0.0,0.0,0.0,0.0,0.0,0.0,-2.3956,-2.5538,-2.7475,-2.7184,-2.4551,-2.5015,-2.4272,0.0,0.0,0.0,0.0,0.0,0.0,0.0,0.0,0.0,0.0,0.0,0.0,0.0,0.0,0.0,0.0,0.0,0.0,0.0,0.0,0.0,0.0,0.0,0.0,0.0,0.0,0.0,0.0,0.0,0.0,0.0,0.0,0.0,0.0,0.0,0.0,0.0,0.0,0.0,0.0,0.0,0.0,0.0,0.0,0.0,0.0,0.0,0.0,0.0,0.0,0.0,0.0,0.0,0.0,0.0,0.0,0.0,0.0,0.0,0.0,0.0,0.0,0.0,0.0,0.0,0.0,0.0,0.0,0.0,0.0,0.0,0.0,0.0,0.0,0.0,0.0,0.0,0.0,0.0,0.0,0.0,0.0,0.0,0.0,0.0,0.0,0.0,0.0,0.0,0.0,0.0,0.0,0.0,0.0,0.0,0.0,0.0,0.0,0.0,0.0,0.0,0.0,0.0,0.0,0.0,0.0,0.0,0.0,0.0,-2.3965,-2.501,-2.5939,-2.6485,-2.4543,-2.4196,0.0,0.0,0.0,0.0,0.0,0.0,0.0,0.0,0.0,0.0,0.0,0.0,0.0,0.0,0.0,0.0,0.0,0.0,0.0,0.0,0.0,0.0,0.0,0.0,0.0,0.0,0.0,0.0,0.0,0.0,0.0,0.0,0.0,0.0,0.0,0.0,0.0,0.0,0.0,0.0,0.0,0.0,0.0,0.0,0.0,0.0,0.0,0.0,0.0,0.0,0.0,0.0,0.0,0.0,0.0,0.0,0.0,0.0,0.0,0.0,0.0,0.0,0.0,0.0,0.0,0.0,0.0,0.0,0.0,0.0,0.0,0.0,0.0,0.0,0.0,0.0,0.0,0.0,0.0,0.0,0.0,0.0,0.0,0.0,0.0,0.0,0.0,0.0,0.0,0.0,0.0,0.0,0.0,0.0,0.0,0.0,0.0,0.0,0.0,0.0,0.0,0.0,0.0,0.0,0.0,0.0,0.0,0.0,0.0,-2.4636,-2.5666,-2.6242,-2.6165,-2.474,-2.4535,-2.5612,0.0,0.0,0.0,0.0,0.0,0.0,0.0,0.0,0.0,0.0,0.0,0.0,0.0,0.0,0.0,0.0,0.0,0.0,0.0,0.0,0.0,0.0,0.0,0.0,0.0,0.0,0.0,0.0,0.0,0.0,0.0,0.0,0.0,0.0,0.0,0.0,0.0,0.0,0.0,0.0,0.0,0.0,0.0,0.0,0.0,0.0,0.0,0.0,0.0,0.0,0.0,0.0,0.0,0.0,0.0,0.0,0.0,0.0,0.0,0.0,0.0,0.0,0.0,0.0,0.0,0.0,0.0,0.0,0.0,0.0,0.0,0.0,0.0,0.0,0.0,0.0,0.0,0.0,0.0,0.0,0.0,0.0,0.0,0.0,0.0,0.0,0.0,0.0,0.0,0.0,0.0,0.0,0.0,0.0,0.0,0.0,0.0,0.0,0.0,0.0,0.0,0.0,0.0,0.0,0.0,0.0,0.0,0.0,-2.6885,-2.894,-2.8247,-2.4453,-2.577,-2.5322,0.0,0.0,0.0,0.0,0.0,0.0,0.0,0.0,0.0,0.0,0.0,0.0,0.0,0.0,0.0,0.0,0.0,0.0,0.0,0.0,0.0,0.0,0.0,0.0,0.0,0.0,0.0,0.0,0.0,0.0,0.0,0.0,0.0,0.0,0.0,0.0,0.0,0.0,0.0,0.0,0.0,0.0,0.0,0.0,0.0,0.0,0.0,0.0,0.0,0.0,0.0,0.0,0.0,0.0,0.0,0.0,0.0,0.0,0.0,0.0,0.0,0.0,0.0,0.0,0.0,0.0,0.0,0.0,0.0,0.0,0.0,0.0,0.0,0.0,0.0,0.0,0.0,0.0,0.0,0.0,0.0,0.0,0.0,0.0,0.0,0.0,0.0,0.0,0.0,0.0,0.0,0.0,0.0,0.0,0.0,0.0,0.0,0.0,0.0,0.0,0.0,0.0,0.0,0.0,0.0,0.0,0.0,0.0,0.0,-2.8385,-3.1042,-3.1392,-2.9237,-2.7457,-2.683,0.0,0.0,0.0,0.0,0.0,0.0,0.0,0.0,0.0,0.0,0.0,0.0,0.0,0.0,0.0,0.0,0.0,0.0,0.0,0.0,0.0,0.0,0.0,0.0,0.0,0.0,0.0,0.0,0.0,0.0,0.0,0.0,0.0,0.0,0.0,0.0,0.0,0.0,0.0,0.0,0.0,0.0,0.0,0.0,0.0,0.0,0.0,0.0,0.0,0.0,0.0,0.0,0.0,0.0,0.0,0.0,0.0,0.0,0.0,0.0,0.0,0.0,0.0,0.0,0.0,0.0,0.0,0.0,0.0,0.0,0.0,0.0,0.0,0.0,0.0,0.0,0.0,0.0,0.0,0.0,0.0,0.0,0.0,0.0,0.0,0.0,0.0,0.0,0.0,0.0,0.0,0.0,0.0,0.0,0.0,0.0,0.0,0.0,0.0,0.0,0.0,0.0,0.0,0.0,0.0,0.0,0.0,0.0,-3.035,-2.9532,-3.2881,-3.4274,-3.3226,-3.0701,-2.8921,0.0,0.0,0.0,0.0,0.0,0.0,0.0,0.0,0.0,0.0,0.0,0.0,0.0,0.0,0.0,0.0,0.0,0.0,0.0,0.0,0.0,0.0,0.0,0.0,0.0,0.0,0.0,0.0,0.0,0.0,0.0,0.0,0.0,0.0,0.0,0.0,0.0,0.0,0.0,0.0,0.0,0.0,0.0,0.0,0.0,0.0,0.0,0.0,0.0,0.0,0.0,0.0,0.0,0.0,0.0,0.0,0.0,0.0,0.0,0.0,0.0,0.0,0.0,0.0,0.0,0.0,0.0,0.0,0.0,0.0,0.0,0.0,0.0,0.0,0.0,0.0,0.0,0.0,0.0,0.0,0.0,0.0,0.0,0.0,0.0,0.0,0.0,0.0,0.0,0.0,0.0,0.0,0.0,0.0,0.0,0.0,0.0,0.0,0.0,0.0,0.0,0.0,0.0,0.0,0.0,0.0,0.0,0.0,-3.1749,-3.0641,-3.4597,-3.6565,-3.596,-3.4285,-3.1461,0.0,0.0,0.0,0.0,0.0,0.0,0.0,0.0,0.0,0.0,0.0,0.0,0.0,0.0,0.0,0.0,0.0,0.0,0.0,0.0,0.0,0.0,0.0,0.0,0.0,0.0,0.0,0.0,0.0,0.0,0.0,0.0,0.0,0.0,0.0,0.0,0.0,0.0,0.0,0.0,0.0,0.0,0.0,0.0,0.0,0.0,0.0,0.0,0.0,0.0,0.0,0.0,0.0,0.0,0.0,0.0,0.0,0.0,0.0,0.0,0.0,0.0,0.0,0.0,0.0,0.0,0.0,0.0,0.0,0.0,0.0,0.0,0.0,0.0,0.0,0.0,0.0,0.0,0.0,0.0,0.0,0.0,0.0,0.0,0.0,0.0,0.0,0.0,0.0,0.0,0.0,0.0,0.0,0.0,0.0,0.0,0.0,0.0,0.0,0.0,0.0,0.0,0.0,0.0,0.0,0.0,0.0,0.0,-3.284,-3.2707,-3.5647,-3.6657,-3.5544,-3.4062,-3.3007,0.0,0.0,0.0,0.0,0.0,0.0,0.0,0.0,0.0,0.0,0.0,0.0,0.0,0.0,0.0,0.0,0.0,0.0,0.0,0.0,0.0,0.0,0.0,0.0,0.0,0.0,0.0,0.0,0.0,0.0,0.0,0.0,0.0,0.0,0.0,0.0,0.0,0.0,0.0,0.0,0.0,0.0,0.0,0.0,0.0,0.0,0.0,0.0,-3.3272,0.0,0.0,0.0,0.0,0.0,0.0,0.0,0.0,0.0,0.0,0.0,0.0,0.0,0.0,0.0,0.0,0.0,0.0,0.0,0.0,0.0,0.0,0.0,0.0,0.0,0.0,0.0,0.0,0.0,0.0,0.0,0.0,0.0,0.0,0.0,0.0,0.0,0.0,0.0,0.0,0.0,0.0,0.0,0.0,0.0,0.0,0.0,0.0,0.0,0.0,0.0,0.0,0.0,0.0,0.0,0.0,0.0,0.0,0.0,-3.3091,-3.3007,-3.6283,-3.745,-3.6418,-3.6099,-3.4856,0.0,0.0,0.0,0.0,0.0,0.0,0.0,0.0,0.0,0.0,0.0,0.0,0.0,0.0,0.0,0.0,0.0,0.0,0.0,0.0,0.0,0.0,0.0,0.0,0.0,0.0,0.0,0.0,0.0,0.0,0.0,0.0,0.0,0.0,0.0,0.0,0.0,0.0,0.0,0.0,0.0,0.0,0.0,0.0,0.0,0.0,0.0,0.0,0.0,0.0,0.0,0.0,0.0,0.0,0.0,0.0,0.0,0.0,0.0,0.0,0.0,0.0,0.0,0.0,0.0,0.0,0.0,0.0,0.0,0.0,0.0,0.0,0.0,0.0,0.0,0.0,0.0,0.0,0.0,0.0,0.0,0.0,0.0,0.0,0.0,0.0,0.0,0.0,0.0,0.0,0.0,0.0,0.0,0.0,0.0,0.0,0.0,0.0,0.0,0.0,0.0,0.0,0.0,0.0,0.0,0.0,0.0,-3.1198,-3.2995,-3.311,-3.6764,-3.8448,-3.7757,-3.8531,-3.6651,-3.161,0.0,0.0,0.0,0.0,0.0,0.0,0.0,0.0,0.0,0.0,0.0,0.0,0.0,0.0,0.0,0.0,0.0,0.0,0.0,0.0,0.0,0.0,0.0,0.0,0.0,0.0,0.0,0.0,0.0,0.0,0.0,0.0,0.0,0.0,0.0,0.0,0.0,0.0,-3.5102,-3.7316,0.0,0.0,0.0,0.0,0.0,0.0,0.0,0.0,-3.4445,0.0,0.0,0.0,0.0,0.0,0.0,0.0,0.0,0.0,0.0,0.0,0.0,0.0,0.0,0.0,0.0,0.0,0.0,0.0,0.0,0.0,0.0,0.0,0.0,0.0,0.0,0.0,0.0,0.0,0.0,0.0,0.0,0.0,0.0,0.0,0.0,0.0,0.0,0.0,0.0,0.0,0.0,0.0,0.0,0.0,0.0,0.0,0.0,0.0,0.0,0.0,0.0,0.0,0.0,0.0,0.0,-3.0018,-3.1587,-3.3171,-3.4984,-3.7089,-3.8304,-3.8652,-3.9256,-3.7628,-3.3707,0.0,0.0,0.0,0.0,0.0,0.0,0.0,0.0,0.0,0.0,0.0,0.0,0.0,0.0,0.0,0.0,0.0,0.0,0.0,0.0,0.0,0.0,0.0,0.0,0.0,0.0,0.0,0.0,0.0,0.0,0.0,0.0,0.0,0.0,0.0,0.0,0.0,0.0,0.0,-3.9888,-4.1115,0.0,0.0,0.0,0.0,0.0,0.0,0.0,0.0,-3.4477,0.0,0.0,0.0,0.0,0.0,0.0,0.0,0.0,0.0,0.0,0.0,0.0,0.0,0.0,0.0,0.0,0.0,0.0,0.0,0.0,0.0,0.0,0.0,0.0,0.0,0.0,0.0,0.0,0.0,0.0,0.0,0.0,0.0,0.0,0.0,0.0,0.0,0.0,0.0,0.0,0.0,0.0,0.0,0.0,0.0,0.0,0.0,0.0,0.0,0.0,0.0,0.0,0.0,0.0,0.0,-2.9691,-3.1662,-3.3458,-3.5102,-3.6734,-3.7852,-3.8379,-3.8153,-3.6822,0.0,0.0,0.0,0.0,0.0,0.0,0.0,0.0,0.0,0.0,0.0,0.0,0.0,0.0,0.0,0.0,0.0,0.0,0.0,0.0,0.0,0.0,0.0,0.0,0.0,0.0,0.0,0.0,0.0,0.0,0.0,0.0,0.0,0.0,0.0,0.0,0.0,0.0,0.0,0.0,-4.1564,-4.2746,-4.3748,0.0,0.0,0.0,0.0,0.0,0.0,-3.5735,-3.544,0.0,0.0,0.0,0.0,0.0,0.0,0.0,0.0,0.0,0.0,0.0,0.0,0.0,0.0,0.0,0.0,0.0,0.0,0.0,0.0,0.0,0.0,0.0,0.0,0.0,0.0,0.0,0.0,0.0,0.0,0.0,0.0,0.0,0.0,0.0,0.0,0.0,0.0,0.0,0.0,0.0,0.0,0.0,0.0,0.0,0.0,0.0,0.0,0.0,0.0,0.0,0.0,0.0,0.0,0.0,-2.9114,-3.1612,-3.3495,-3.4726,-3.6332,-3.74,-3.7801,-3.7123,-3.6044,0.0,0.0,0.0,0.0,0.0,0.0,0.0,0.0,0.0,0.0,0.0,0.0,0.0,0.0,0.0,0.0,0.0,0.0,0.0,0.0,0.0,0.0,0.0,0.0,0.0,0.0,0.0,0.0,0.0,0.0,0.0,0.0,0.0,0.0,0.0,0.0,0.0,0.0,0.0,0.0,0.0,-4.4421,-4.5185,-4.484,0.0,0.0,0.0,0.0,-3.7893,-3.7947,0.0,0.0,0.0,0.0,0.0,0.0,0.0,0.0,0.0,0.0,0.0,0.0,0.0,0.0,0.0,0.0,0.0,0.0,0.0,0.0,0.0,0.0,0.0,0.0,0.0,0.0,0.0,0.0,0.0,0.0,0.0,0.0,0.0,0.0,0.0,0.0,0.0,0.0,0.0,0.0,0.0,0.0,0.0,0.0,0.0,0.0,0.0,0.0,0.0,0.0,0.0,0.0,0.0,0.0,0.0,0.0,-2.9666,-3.1424,-3.3106,-3.47,-3.632,-3.7211,-3.7287,-3.7626,-3.6621,0.0,0.0,0.0,0.0,0.0,0.0,0.0,0.0,0.0,0.0,0.0,0.0,0.0,0.0,0.0,0.0,0.0,0.0,0.0,0.0,0.0,0.0,0.0,0.0,0.0,0.0,0.0,0.0,0.0,0.0,0.0,0.0,0.0,0.0,0.0,0.0,0.0,0.0,0.0,0.0,0.0,-4.6471,-4.5439,-4.5244,-4.4802,0.0,0.0,-4.2315,-4.0602,-4.2193,0.0,0.0,0.0,0.0,0.0,0.0,0.0,0.0,0.0,0.0,0.0,0.0,0.0,0.0,0.0,0.0,0.0,0.0,0.0,0.0,0.0,0.0,0.0,0.0,0.0,0.0,0.0,0.0,0.0,0.0,0.0,0.0,0.0,0.0,0.0,0.0,0.0,0.0,0.0,0.0,0.0,0.0,0.0,0.0,0.0,0.0,0.0,0.0,0.0,0.0,0.0,0.0,0.0,0.0,0.0,-2.7871,-2.9779,-3.1712,-3.3357,-3.47,-3.6019,-3.686,-3.7174,-3.6219,-3.5127,0.0,0.0,0.0,0.0,0.0,0.0,0.0,0.0,0.0,0.0,0.0,0.0,0.0,0.0,0.0,0.0,0.0,0.0,0.0,0.0,0.0,0.0,0.0,0.0,0.0,0.0,0.0,0.0,0.0,0.0,0.0,0.0,0.0,0.0,0.0,0.0,0.0,0.0,0.0,0.0,0.0,0.0,-4.6905,-4.6995,0.0,0.0,0.0,-4.4589,-4.3273,0.0,0.0,0.0,0.0,0.0,0.0,0.0,0.0,0.0,0.0,0.0,0.0,0.0,0.0,0.0,0.0,0.0,0.0,0.0,0.0,0.0,0.0,0.0,0.0,0.0,0.0,0.0,0.0,0.0,0.0,0.0,0.0,0.0,0.0,0.0,0.0,0.0,0.0,0.0,0.0,0.0,0.0,0.0,0.0,0.0,0.0,0.0,0.0,0.0,0.0,0.0,0.0,0.0,0.0,0.0,0.0,0.0,-2.9792,-3.1951,-3.3608,-3.47,-3.5793,-3.6496,-3.6734,-3.5039,0.0,0.0,0.0,0.0,0.0,0.0,0.0,0.0,0.0,0.0,0.0,0.0,0.0,0.0,0.0,0.0,0.0,0.0,0.0,0.0,0.0,0.0,0.0,0.0,0.0,0.0,0.0,-3.1258,0.0,0.0,0.0,0.0,0.0,0.0,0.0,0.0,0.0,0.0,0.0,0.0,0.0,0.0,-4.5948,-4.7788,-4.8446,-4.8955,0.0,0.0,-4.6976,-4.5953,-4.6206,-4.4982,0.0,0.0,0.0,0.0,0.0,0.0,0.0,0.0,0.0,0.0,0.0,0.0,0.0,0.0,0.0,0.0,0.0,0.0,0.0,0.0,0.0,0.0,0.0,0.0,0.0,0.0,0.0,0.0,0.0,0.0,0.0,0.0,0.0,0.0,0.0,0.0,0.0,0.0,0.0,0.0,0.0,0.0,0.0,0.0,0.0,0.0,0.0,0.0,0.0,0.0,0.0,0.0,0.0,0.0,-2.8637,-2.9817,-3.1964,-3.3608,-3.47,-3.5805,-3.6132,-3.5667,-3.5014,-3.3935,0.0,0.0,0.0,0.0,0.0,0.0,0.0,0.0,0.0,0.0,0.0,0.0,0.0,0.0,0.0,0.0,0.0,0.0,0.0,0.0,0.0,0.0,0.0,0.0,0.0,0.0,0.0,0.0,0.0,0.0,0.0,0.0,0.0,0.0,0.0,0.0,0.0,0.0,0.0,0.0,0.0,-4.5798,-4.7174,-4.894,-5.075,0.0,-5.1214,-4.9675,-4.9049,-5.0313,-4.9149,-4.2253,0.0,0.0,0.0,0.0,0.0,0.0,0.0,0.0,0.0,0.0,0.0,0.0,0.0,0.0,0.0,0.0,0.0,0.0,0.0,0.0,0.0,0.0,0.0,0.0,0.0,0.0,0.0,0.0,0.0,0.0,0.0,0.0,0.0,0.0,0.0,0.0,0.0,0.0,0.0,0.0,0.0,0.0,0.0,0.0,0.0,0.0,0.0,0.0,0.0,0.0,0.0,0.0,0.0,-2.8662,-2.9792,-3.1599,-3.3244,-3.4675,-3.5466,-3.5918,-3.6044,-3.5775,-3.4999,0.0,0.0,0.0,0.0,0.0,0.0,0.0,0.0,0.0,0.0,0.0,0.0,0.0,0.0,0.0,0.0,0.0,0.0,0.0,0.0,0.0,0.0,0.0,0.0,0.0,0.0,0.0,0.0,-3.2258,-3.2183,-3.1794,0.0,0.0,0.0,0.0,0.0,0.0,0.0,0.0,0.0,0.0,-4.6711,-4.882,-5.0107,0.0,0.0,-5.1798,-5.0549,-5.1468,-5.0191,-4.7859,-4.4299,-4.1878,0.0,0.0,0.0,0.0,0.0,0.0,0.0,0.0,0.0,0.0,0.0,0.0,0.0,0.0,0.0,0.0,0.0,0.0,0.0,0.0,0.0,0.0,0.0,0.0,0.0,0.0,0.0,0.0,0.0,0.0,0.0,0.0,0.0,0.0,0.0,0.0,0.0,0.0,0.0,0.0,0.0,0.0,0.0,0.0,0.0,0.0,0.0,0.0,0.0,0.0,0.0,0.0,-2.8662,-2.9779,-3.1562,-3.3206,-3.4688,-3.5758,-3.6412,-3.6695,-3.6819,-3.6169,0.0,0.0,0.0,0.0,0.0,0.0,0.0,0.0,0.0,0.0,0.0,0.0,0.0,0.0,0.0,0.0,0.0,0.0,0.0,0.0,0.0,0.0,0.0,0.0,0.0,0.0,0.0,0.0,-3.317,-3.3021,-3.2557,0.0,0.0,0.0,0.0,0.0,0.0,0.0,0.0,0.0,0.0,-4.7354,-4.9359,-5.0556,-5.1708,-5.3114,-5.1409,-5.0421,-5.1798,-4.9853,-4.7384,-4.508,0.0,0.0,0.0,0.0,0.0,0.0,0.0,0.0,0.0,0.0,0.0,0.0,0.0,0.0,0.0,0.0,0.0,0.0,0.0,0.0,0.0,0.0,0.0,0.0,0.0,0.0,0.0,0.0,0.0,0.0,-2.8875,0.0,0.0,0.0,0.0,0.0,0.0,0.0,0.0,0.0,0.0,0.0,0.0,0.0,0.0,0.0,0.0,0.0,0.0,0.0,0.0,0.0,0.0,-2.8674,-2.9804,-3.2009,-3.367,-3.4803,-3.6897,-3.7817,-3.7391,-3.7874,-3.7287,-3.5515,0.0,0.0,0.0,0.0,0.0,0.0,0.0,0.0,0.0,0.0,0.0,0.0,0.0,0.0,0.0,0.0,0.0,0.0,0.0,0.0,0.0,0.0,0.0,0.0,0.0,0.0,-3.4397,-3.3305,-3.2557,0.0,0.0,0.0,0.0,0.0,0.0,0.0,0.0,0.0,0.0,-4.4392,-4.7549,-4.8267,-4.9987,-5.1259,-5.1334,-5.0197,-4.9359,-4.9494,-4.9793,-4.8626,0.0,0.0,0.0,0.0,0.0,0.0,0.0,0.0,0.0,0.0,0.0,0.0,0.0,0.0,0.0,0.0,0.0,0.0,0.0,0.0,0.0,0.0,0.0,0.0,0.0,0.0,0.0,-3.0846,-3.0834,0.0,0.0,0.0,0.0,0.0,0.0,0.0,0.0,0.0,0.0,0.0,-3.0595,-3.1148,0.0,0.0,0.0,0.0,0.0,0.0,0.0,0.0,0.0,0.0,0.0,0.0,-3.0394,-3.2045,-3.3728,-3.5586,-3.7477,-3.8269,-3.8842,-3.9046,-3.9578,-3.9083,-3.7478,0.0,0.0,0.0,0.0,0.0,0.0,0.0,0.0,0.0,0.0,0.0,0.0,0.0,0.0,0.0,0.0,0.0,0.0,0.0,0.0,0.0,0.0,0.0,0.0,0.0,-3.4966,0.0,0.0,0.0,0.0,0.0,0.0,0.0,0.0,0.0,0.0,0.0,-3.9839,-4.207,-4.5214,-4.7698,-4.879,-5.0242,-5.1379,0.0,0.0,0.0,0.0,0.0,0.0,0.0,0.0,0.0,0.0,0.0,0.0,0.0,0.0,-4.7863,-4.3509,-4.2162,-4.1773,-4.1983,0.0,0.0,0.0,0.0,0.0,0.0,0.0,0.0,0.0,0.0,0.0,0.0,0.0,0.0,-3.1901,0.0,-3.1838,0.0,0.0,0.0,0.0,0.0,0.0,0.0,0.0,-3.2485,-3.3123,-3.2918,-3.4056,-3.4653,0.0,-3.3967,-3.2684,0.0,0.0,0.0,0.0,0.0,0.0,0.0,0.0,-3.195,-3.336,-3.4904,-3.6515,-3.8242,-3.9159,-3.9747,-4.0153,-4.0665,-4.0444,-3.9484,-3.7958,-3.6641,0.0,0.0,0.0,0.0,0.0,0.0,0.0,0.0,0.0,0.0,0.0,0.0,0.0,0.0,0.0,0.0,0.0,0.0,0.0,0.0,0.0,0.0,0.0,-3.5235,0.0,0.0,0.0,0.0,0.0,0.0,0.0,0.0,0.0,-3.7548,-3.9416,-4.1553,-4.3728,-4.6112,-4.7952,-4.8805,0.0,0.0,0.0,0.0,0.0,0.0,0.0,-4.8416,-4.8596,-4.7558,-4.7008,-4.7839,-5.0201,-5.1611,-5.072,0.0,0.0,-4.686,-4.5379,-4.4915,-4.5364,-4.5768,-4.6037,-4.6037,-4.692,-4.7103,0.0,0.0,0.0,0.0,0.0,0.0,0.0,0.0,-3.2378,-3.2968,0.0,-3.2805,0.0,0.0,0.0,0.0,0.0,-3.2386,0.0,0.0,-3.642,-3.736,-3.596,-3.8043,-3.8602,-3.756,-3.6953,-3.6291,-3.5621,-3.3322,0.0,0.0,0.0,0.0,0.0,0.0,-3.311,-3.3775,-3.5468,-3.6595,-3.7368,-3.9491,-4.0637,-4.0651,-4.1145,-4.1354,-4.1265,-3.9394,-3.8048,-3.7389,-3.6776,0.0,0.0,0.0,0.0,0.0,0.0,0.0,0.0,0.0,0.0,0.0,0.0,0.0,0.0,0.0,0.0,0.0,0.0,0.0,0.0,-3.51,0.0,0.0,0.0,0.0,0.0,0.0,0.0,0.0,0.0,0.0,-3.9722,-4.1782,-4.3838,-4.5132,0.0,0.0,0.0,0.0,-4.9075,-4.8521,-4.9449,-5.0077,-4.9494,-5.0855,-5.1379,-4.9613,0.0,0.0,-4.9595,-5.1511,-5.2748,-5.1538,-5.1798,-5.2396,-5.2905,-5.0705,-4.9629,-5.0753,-4.9989,-4.9404,-4.9449,-4.9734,-4.9716,-3.5968,0.0,0.0,0.0,0.0,-3.3935,-3.4449,-3.5165,-3.5177,-3.514,-3.5027,-3.4311,0.0,0.0,0.0,0.0,0.0,0.0,-3.4842,-3.475,-3.7646,-3.8591,-3.8054,-3.9178,-3.9942,-4.0356,-3.9742,-3.9296,-3.8942,-3.7827,-3.5552,-3.2375,0.0,0.0,0.0,0.0,-3.4953,-3.6025,-3.7636,-3.9073,-4.0158,-4.0801,-4.1385,-4.1829,-4.1545,-4.1175,-4.0696,-3.9215,-3.7883,-3.6806,-3.6582,0.0,0.0,0.0,0.0,0.0,0.0,0.0,0.0,0.0,0.0,0.0,0.0,0.0,0.0,0.0,0.0,0.0,0.0,0.0,-3.516,-3.54,-3.5429,0.0,0.0,0.0,0.0,0.0,0.0,0.0,0.0,0.0,-4.3456,-4.4661,-4.5551,0.0,0.0,-4.8297,-4.8297,-4.8835,-4.9359,-4.9628,-5.0391,0.0,-5.069,-5.0331,-5.0242,-5.0586,-5.1401,-5.1982,-5.2053,-5.2738,-5.3053,-5.2665,-5.2381,-5.2396,-5.2905,-5.1454,-5.0668,-5.1939,-5.1107,-5.0638,-5.2213,-5.1835,-5.0672,-3.873,-3.6923,-3.5843,-3.5391,-3.5403,-3.5604,-3.6069,-3.6684,-3.6684,-3.6759,-3.6797,-3.5805,-3.4813,-3.3784,-3.2591,0.0,0.0,0.0,-3.6756,-3.7398,-3.9814,-4.0647,-4.014,-4.117,-4.1846,-4.2179,-4.1213,-4.0719,-4.0786,-3.9713,-3.7799,-3.5095,0.0,0.0,-3.4106,-3.5572,-3.6772,-3.7564,-3.8763,-3.9813,-4.0576,-4.0846,-4.1309,-4.1923,-4.1594,-4.1205,-4.0786,-3.9753,-3.8721,-3.7704,-3.7135,-3.6252,0.0,0.0,0.0,0.0,0.0,0.0,0.0,0.0,0.0,0.0,0.0,-3.3784,-3.2602,0.0,0.0,0.0,-3.4337,-3.5145,-3.5818,-3.6342,0.0,0.0,0.0,0.0,0.0,0.0,0.0,-4.0708,-4.2423,-4.3948,-4.5123,-4.6329,-4.7185,-4.7417,-4.7952,-4.8461,-4.8985,0.0,-4.9793,-5.0182,-5.102,-5.1618,-5.1603,-5.0945,-5.0553,-5.0728,-5.1348,-5.1768,-5.1972,-5.2437,-5.2657,-5.2492,-5.2431,-5.247,-5.2592,-5.1727,-5.1417,-5.278,-5.2196,-5.2057,-5.368,-5.278,-5.1742,-4.1015,-4.03,-3.7751,-3.6659,-3.6671,-3.7174,-3.7374,-3.7374,-3.7387,-3.7939,-3.873,-3.7149,-3.6477,-3.6344,-3.4388,0.0,-3.695,-3.7704,-3.8857,-4.0385,-4.2711,-4.3054,-4.1883,-4.3442,-4.3928,-4.3235,-4.169,-4.1155,-4.1368,-3.9817,-3.8852,-3.8556,-3.7943,-3.7569,-3.7449,-3.8048,-3.8377,-3.8392,-3.9065,-3.9424,-3.9439,-4.0053,-4.0681,-4.128,-4.1309,-4.1294,-4.128,-4.0651,-4.0008,-3.9334,-3.8093,-3.6851,-3.5639,0.0,0.0,0.0,0.0,0.0,0.0,0.0,0.0,0.0,0.0,0.0,0.0,0.0,0.0,0.0,-3.4876,0.0,-3.6573,-3.7698,0.0,0.0,0.0,-4.0362,-3.9243,-4.1419,-4.2709,-4.2035,0.0,0.0,-4.5666,-4.7148,-4.8543,-4.9284,-4.8775,-4.8745,-4.9987,-5.0107,-5.0167,-5.0122,-5.1184,-5.1992,-5.1723,-5.1678,-5.1294,-5.0331,-5.0602,-5.0837,-5.0381,-5.1258,-5.1742,-5.1374,-5.1986,-5.2591,-5.194,-5.2052,-5.2487,-5.2943,-5.3034,-5.3262,-5.3827,-5.3279,-5.2765,-4.1015,-4.0425,-3.9358,-3.8906,-3.8919,-3.9032,-3.9094,-3.9094,-3.9094,-3.9019,-3.8781,-3.755,-3.7049,-3.7192,-3.7088,-3.8105,-4.006,-4.1966,-4.2834,-4.2811,-4.4259,-4.4427,-4.3642,-4.3558,-4.3479,-4.325,-4.2912,-4.251,-4.2117,-4.1216,-4.0487,-3.9963,-3.9768,-3.8931,-3.7494,-3.8063,-3.8377,-3.8377,-3.9065,-3.9424,-3.9439,-4.0053,-4.0472,-4.0621,-4.0636,-4.0636,-4.0621,-4.0008,-3.9334,-3.8661,-3.7853,-3.7045,-3.6282,-3.4981,0.0,0.0,0.0,0.0,0.0,0.0,0.0,0.0,0.0,-3.4651,-3.2662,0.0,-3.4622,0.0,-3.6355,-3.7315,-3.7585,-3.8038,0.0,0.0,-4.0405,-4.1515,-4.2934,-4.3609,-4.4622,-4.6532,-4.6366,-4.6831,-4.8921,-4.8196,-4.8064,-4.9452,-4.889,-4.8581,-4.9374,-4.9494,-4.9508,-4.9583,-5.0212,-5.0511,-5.0122,-4.9957,-4.9942,-4.9625,-4.9685,-4.9734,-4.9546,-5.0434,-5.1042,-5.0962,-5.1731,-5.2305,-5.2229,-5.2218,-5.2379,-5.2466,-5.2539,-5.3002,-5.439,-5.3534,-5.2463,-4.1015,-4.0488,-4.0187,-3.991,-3.9697,-3.9697,-3.9697,-3.9697,-3.9697,-3.9521,-3.917,-3.8052,-3.7432,-3.735,-3.8254,-3.9766,-4.1869,-4.3767,-4.4647,-4.4846,-4.5173,-4.4945,-4.4302,-4.3643,-4.3344,-4.3344,-4.3344,-4.3,-4.2357,-4.1698,-4.1055,-4.0412,-4.0098,-3.9409,-3.8392,-3.896,-3.929,-3.929,-3.9364,-3.9424,-3.9439,-3.9768,-3.9963,-3.9948,-3.9664,-3.9514,-3.9499,-3.8871,-3.8347,-3.7958,-3.7345,-3.6836,-3.6477,-3.522,-3.4322,0.0,0.0,0.0,0.0,0.0,0.0,0.0,0.0,0.0,0.0,0.0,-3.5819,-3.6562,-3.7624,-3.8349,-3.8417,-3.9444,-4.0355,-4.0909,-4.2809,-4.4362,-4.512,-4.6076,-4.7119,-4.82,-4.7948,-4.8224,-4.9687,-4.919,-4.9111,-5.0313,-4.976,-4.9227,-4.9298,-4.9254,-4.9254,-4.9269,-4.9583,-4.9583,-4.8925,-4.8835,-4.873,-4.8535,-4.8762,-4.9105,-4.9146,-5.02,-5.0957,-5.072,-5.1694,-5.2434,-5.2236,-5.2552,-5.2712,-5.2368,-5.2286,-5.2868,-5.4267,-5.353,-5.2624,-4.0915,-4.04,-4.0413,-4.0136,-3.9697,-3.9697,-3.9697,-3.9697,-3.9697,-3.9609,-3.9421,-3.8354,-3.7761,-3.766,-3.8911,-4.0719,-4.3074,-4.4403,-4.5507,-4.6326,-4.5738,-4.5065,-4.4421,-4.3763,-4.3419,-4.3344,-4.3344,-4.303,-4.2476,-4.1743,-4.1085,-4.0516,-3.9873,-3.9544,-3.9574,-4.0113,-4.0441,-4.0262,-3.9783,-3.9514,-3.9424,-3.9499,-3.9469,-3.9275,-3.8706,-3.8347,-3.8257,-3.7704,-3.7404,-3.7389,-3.6806,-3.6522,-3.6648,-3.5404,-3.4655,0.0,-3.404,0.0,0.0,0.0,0.0,0.0,0.0,0.0,0.0,-3.6235,-3.7313,-3.812,-3.8774,-3.9253,-3.9329,-4.1158,-4.232,-4.2303,-4.5403,-4.7297,-4.6564,-4.8329,-4.9398,-4.8839,-4.9142,-4.9442,-4.991,-5.0186,-5.0591,-5.1102,-5.0525,-4.9882,-4.9433,-4.9357,-4.9387,-4.9298,-4.9179,-4.8908,-4.8458,-4.8323,-4.8085,-4.7662,-4.8225,-4.8779,-4.8837,-5.0257,-5.1189,-5.0848,-5.1857,-5.2719,-5.2181,-5.2819,-5.3061,-5.2437,-5.2185,-5.2404,-5.3263,-5.304,-5.3025,-4.0337,-3.986,-3.9848,-3.9798,-3.9697,-3.9697,-3.9697,-3.9697,-3.9697,-3.9182,-3.8291,-3.7626,-3.8069,-3.9488,-4.0757,-4.2621,-4.4929,-4.6182,-4.6927,-4.71,-4.6441,-4.5768,-4.5095,-4.4436,-4.3853,-4.3359,-4.3344,-4.3269,-4.312,-4.1953,-4.1324,-4.119,-4.0531,-4.0217,-4.0217,0.0,0.0,0.0,-4.0081,-4.0021,-3.967,-4.0021,-3.9694,-3.8631,-3.8452,0.0,-3.7629,-3.7479,-3.7404,-3.7389,-3.6821,0.0,0.0,0.0,0.0,0.0,0.0,0.0,0.0,0.0,0.0,0.0,-3.7658,-3.7243,-3.6687,-3.781,-3.8713,-3.9001,-3.9734,-4.0486,-4.1233,-4.2106,-4.3041,-4.415,-4.5516,-4.6795,-4.7863,-4.8594,-4.9505,-5.1193,-5.0396,-5.0383,-5.1933,-5.1048,-5.038,-5.1168,-5.017,-4.9362,-4.9512,-4.9594,-4.9581,-4.9248,-4.876,-4.8258,-4.8107,-4.8092,-4.8127,-4.8142,-4.837,-4.8795,-4.9192,-5.0259,-5.127,-5.1369,-5.234,-5.314,-5.311,-5.2842,-5.2503,-5.2317,-5.1826,-5.1474,-5.1681,-5.1597,-5.158,-3.9961,0.0,-3.9697,-3.9697,0.0,-3.9697,-3.9546,-3.9283,-3.9283,-3.8642,-3.76,-3.76,-3.8104,-3.9123,-4.1245,-4.2837,-4.4083,-4.5962,-4.6636,-4.6277,-4.5633,-4.514,-4.4796,-4.4152,-4.3658,-4.3344,-4.3344,-4.3344,-4.3269,-4.2028,-4.1384,-4.1369,-4.0382,-3.9976,-4.0049,-4.0281,-4.0187,-3.9839,-4.01,-4.0115,-3.9869,-4.01,-3.9877,-3.9214,-3.8852,0.0,0.0,0.0,0.0,0.0,0.0,0.0,0.0,0.0,0.0,-3.6945,-3.6641,-3.6675,-3.706,-3.7121,-3.7597,-3.8656,-3.9174,-3.9014,-3.8208,-3.8907,-3.9579,-4.0001,-4.0839,-4.1503,-4.2069,-4.3057,-4.4113,-4.4983,-4.6346,-4.7663,-4.8469,-4.8919,-4.9624,-5.0659,-5.0308,-5.0369,-5.1497,-5.1061,-5.0742,-5.116,-5.0578,-4.9942,-5.0026,-4.9519,-4.8973,-4.8805,-4.8438,-4.8149,-4.8133,-4.8118,-4.8225,-4.8414,-4.9016,-4.9552,-4.9961,-5.1043,-5.1959,-5.2295,-5.2886,-5.3179,-5.2893,-5.257,-5.208,-5.1386,-5.0913,-5.0524,-5.027,-5.0693,-5.1234,-3.9697,-3.9697,-3.9697,-3.9697,-3.9697,-3.9697,-3.932,-3.8705,0.0,0.0,0.0,-3.7563,-3.7776,-3.8073,-4.1032,-4.233,-4.2533,-4.4953,-4.5828,-4.5274,-4.4736,-4.4421,-4.4287,-4.3748,-4.3449,-4.3344,-4.3344,-4.3344,-4.3284,-4.2013,-4.1384,-4.1265,-4.0068,-3.9553,-3.9839,-3.9996,-4.0081,-4.0066,-4.0117,-4.0117,-4.0081,-4.0117,-4.0071,-3.9829,-3.9267,-3.8903,-3.885,-3.8318,-3.7962,-3.7962,-3.7962,-3.8089,-3.8196,-3.8105,-3.8156,-3.833,-3.8223,-3.8305,-3.856,-3.8642,-3.8949,-3.973,-4.0529,-4.0638,-3.9634,-3.9951,-4.0432,-4.1059,-4.1866,-4.2526,-4.2858,-4.4107,-4.5094,-4.5539,-4.7245,-4.8341,-4.8577,-4.9128,-4.9558,-4.9785,-4.9888,-5.0022,-5.0209,-5.0708,-5.1075,-5.1041,-5.0742,-5.0641,-5.0225,-4.9256,-4.8451,-4.8183,-4.7983,-4.8024,-4.807,-4.8009,-4.8239,-4.837,-4.9311,-5.0099,-5.0612,-5.1375,-5.2154,-5.2485,-5.2706,-5.2573,-5.2183,-5.1944,-5.1505,-5.0338,-4.9982,-4.9729,-4.9272,-4.9949,-5.0727,-3.9697,-3.9697,-3.9697,-3.9697,-3.9697,-3.9697,-3.9107,-3.8103,-3.7638,-3.7324,-3.7161,-3.6759,-3.686,-3.7493,-3.9995,-4.1321,-4.2001,-4.4352,-4.5379,-4.5289,-4.52,-4.4855,-4.4317,-4.4227,-4.3883,-4.3359,-4.3344,-4.3344,-4.3195,-4.2013,-4.1384,-4.1295,-4.0199,-3.9839,-4.0207,-4.0277,-4.0331,-4.0401,-4.07,-4.0644,-4.0292,-4.0629,-4.0284,-3.9161,-3.9093,-3.8743,-3.8129,-3.8105,-3.7962,-3.7962,-3.7962,-3.8287,-3.9054,-3.8595,-3.8637,-3.9411,-3.9013,-3.9032,-3.9753,-3.9882,-4.0177,-4.0847,-4.1501,-4.1526,-4.0684,-4.1324,-4.1919,-4.2181,-4.2984,-4.3785,-4.4548,-4.5181,-4.5842,-4.6565,-4.7251,-4.7668,-4.7902,-4.863,-4.926,-4.9441,-4.9875,-5.0158,-5.0236,-5.0422,-5.0447,-5.0413,-5.0032,-4.9559,-4.9055,-4.8745,-4.8286,-4.7621,-4.734,-4.734,-4.7496,-4.7371,-4.7634,-4.7839,-4.8278,-4.8914,-4.9539,-4.9984,-5.0545,-5.1042,-5.1212,-5.1195,-5.1305,-5.0811,-5.0439,-5.0016,-4.961,-4.9171,-4.9018,-4.9289,-4.9407,-3.9697,-3.9697,-3.9697,-3.9697,-3.9647,-3.9032,-3.8492,-3.7939,-3.7098,-3.6734,-3.6747,-3.6772,-3.6948,-3.7475,-4.0024,-4.1225,-4.1273,-4.3679,-4.4571,-4.4242,-4.4227,-4.4077,-4.3793,-4.3778,-4.3629,-4.3344,-4.3344,-4.315,-4.2746,-4.1833,-4.128,-4.1024,-4.0379,-4.0121,-4.0277,-4.0331,-4.0401,-4.0524,-4.0637,-4.0653,-4.0555,-4.0777,-4.0624,-4.0161,-4.0146,-4.0007,-3.9699,-3.9601,-3.9601,-3.9683,-3.9601,-3.9739,-4.0198,-4.0003,-4.0039,-4.0453,-4.0189,-4.024,-4.0618,-4.0649,-4.093,-4.1585,-4.2118,-4.2406,-4.2401,-4.2736,-4.2994,-4.3163,-4.3971,-4.4788,-4.5415,-4.5975,-4.6552,-4.715,-4.7454,-4.7654,-4.7721,-4.8249,-4.8678,-4.8907,-4.9142,-4.9358,-4.9483,-4.9506,-4.9497,-4.9367,-4.9002,-4.8564,-4.8046,-4.7863,-4.7782,-4.7716,-4.7678,-4.7678,-4.7662,-4.7678,-4.7806,-4.8106,-4.8383,-4.8781,-4.9224,-4.9542,-4.9991,-5.0575,-5.0642,-5.0658,-5.0663,-5.0355,-4.9982,-4.9526,-4.9289,-4.9035,-4.9018,-4.9018,-4.9018,-3.9697,-3.9697,-3.9697,-3.9622,-3.9433,-3.858,-3.8065,-3.7739,-3.6923,-3.6483,-3.6433,-3.681,-3.6998,-3.7311,-4.0011,-4.1018,-4.0868,-4.3021,-4.3808,-4.3374,-4.3344,-4.3344,-4.3344,-4.3344,-4.3269,-4.3135,-4.3105,-4.2791,-4.2132,-4.1489,-4.0965,-4.0553,-4.038,-4.0347,-4.0331,-4.047,-4.0524,-4.0593,-4.0593,-4.0662,-4.0799,-4.0867,-4.0966,-4.1117,-4.1117,-4.1117,-4.1117,-4.095,-4.095,-4.1102,-4.095,-4.095,-4.1102,-4.1117,-4.1102,-4.1169,-4.1325,-4.1617,-4.181,-4.1841,-4.2045,-4.2548,-4.3011,-4.3548,-4.3971,-4.4262,-4.4347,-4.4299,-4.5048,-4.5794,-4.618,-4.6689,-4.7183,-4.747,-4.7654,-4.7787,-4.7836,-4.8033,-4.8227,-4.8373,-4.8425,-4.8444,-4.8604,-4.862,-4.8651,-4.8503,-4.8179,-4.7935,-4.7604,-4.7251,-4.741,-4.7638,-4.7818,-4.7607,-4.767,-4.7622,-4.7686,-4.7956,-4.8211,-4.8433,-4.8764,-4.9144,-4.954,-4.9947,-5.0135,-5.0068,-4.9886,-4.983,-4.9593,-4.9171,-4.9035,-4.9018,-4.9018,-4.8877,-4.8781,-3.9697,-3.9697,-3.9672,-3.9408,-3.8944,-3.8793,-3.8178,-3.7324,-3.7123,-3.6822,-3.6395,-3.642,-3.6458,-3.6798,-3.9016,-4.0078,-4.0156,-4.2392,-4.3389,-4.3314,-4.3344,-4.3344,-4.3299,-4.3299,-4.3015,-4.2506,-4.2447,-4.2117,-4.1459,-4.0801,-4.0377,-4.0076,-4.0237,-4.0331,-4.0455,-4.0524,-4.0593,-4.0799,-4.0799,-4.0799,-4.0799,-4.0966,-4.1102,-4.1117,-4.1133,-4.1117,-4.1164,-4.1102,-4.1049,-4.1117,-4.1117,-4.1117,-4.1117,-4.1117,-4.1169,-4.1303,-4.2055,-4.2956,-4.3882,-4.3994,-4.3962,-4.4122,-4.4617,-4.5069,-4.5197,-4.6019,-4.6253,-4.5745,-4.6237,-4.6783,-4.7085,-4.7286,-4.7521,-4.7721,-4.7853,-4.8001,-4.8115,-4.8163,-4.8227,-4.8227,-4.8158,-4.8075,-4.8179,-4.8214,-4.8279,-4.8244,-4.8163,-4.8033,-4.7721,-4.7654,-4.747,-4.7257,-4.6926,-4.6621,-4.6669,-4.6486,-4.6836,-4.6924,-4.7004,-4.741,-4.785,-4.8018,-4.8131,-4.8983,-4.8929,-4.9026,-4.9147,-4.912,-4.9137,-4.9086,-4.9001,-4.9001,-4.8917,-4.8633,-4.831,-3.9496,-3.9207,-3.9207,-3.8881,-3.8366,-3.8015,-3.7613,-3.7174,-3.6835,-3.6558,-3.6383,-3.637,-3.637,-3.6546,-3.8841,-3.9706,-3.9546,-4.2129,-4.312,-4.2776,-4.2776,-4.2761,-4.2716,-4.2342,-4.2028,-4.1803,-4.1788,-4.1429,-4.086,-4.0362,-4.0111,-4.0026,-4.0277,-4.047,-4.0524,-4.0593,-4.073,-4.0814,-4.1544,-4.1951,-4.1935,-4.2019,-4.2291,-4.2737,-4.292,-4.2699,-4.2201,-4.1951,-4.1695,-4.1402,-4.1236,-4.1169,-4.1421,-4.1866,-4.222,-4.2319,-4.3154,-4.3799,-4.4305,-4.4321,-4.4497,-4.4829,-4.5339,-4.5798,-4.6217,-4.6884,-4.712,-4.6873,-4.702,-4.7386,-4.7588,-4.7721,-4.7935,-4.8115,-4.8179,-4.8179,-4.8163,-4.8227,-4.8163,-4.8211,-4.8125,-4.8105,-4.8094,-4.8098,-4.8099,-4.8179,-4.8179,-4.7968,-4.777,-4.7704,-4.7571,-4.7403,-4.7131,-4.6977,-4.6839,-4.6839,-4.6941,-4.7107,-4.7286,-4.7476,-4.7556,-4.7865,-4.8142,-4.845,-4.8547,-4.8753,-4.899,-4.9001,-4.9018,-4.8968,-4.9012,-4.9006,-4.8565,-4.8362,-4.7971,-3.9007,-3.8668,-3.863,-3.8304,-3.7764,-3.7525,-3.7236,-3.696,-3.6684,-3.6521,-3.637,-3.637,-3.6282,-3.6413,-3.8332,-3.9029,-3.9199,-4.1294,-4.2287,-4.2117,-4.2087,-4.2102,-4.2043,-4.1624,-4.128,-4.1145,-4.11,-4.086,-4.0216,-4.0126,-4.0011,-4.0137,-4.0316,-4.0539,-4.0608,-4.073,-4.096,-4.1382,-4.2259,-4.2873,-4.3357,-4.3488,-4.3715,-4.407,-4.4237,-4.3981,-4.3368,-4.3067,-4.2762,-4.2338,-4.2122,-4.2055,-4.2322,-4.2916,-4.34,-4.3639,-4.4289,-4.4825,-4.5069,-4.5085,-4.5311,-4.5862,-4.6215,-4.6578,-4.6984,-4.7386,-4.7537,-4.7521,-4.7604,-4.7737,-4.7869,-4.7984,-4.8179,-4.8356,-4.8292,-4.8292,-4.8373,-4.8292,-4.8292,-4.8275,-4.8208,-4.8142,-4.8175,-4.8048,-4.8066,-4.8115,-4.8049,-4.7935,-4.7836,-4.777,-4.7721,-4.7604,-4.7537,-4.747,-4.7335,-4.7251,-4.7368,-4.7449,-4.7528,-4.7664,-4.7737,-4.7982,-4.8232,-4.8442,-4.8623,-4.8832,-4.894,-4.9001,-4.886,-4.8775,-4.8768,-4.8651,-4.7954,-4.7892,-4.7363,-3.8065,-3.8052,-3.804,-3.7726,-3.7262,-3.7688,-3.7337,-3.6483,-3.6885,-3.6835,-3.6358,-3.6332,-3.6069,-3.5709,-3.6972,-3.7954,-3.8849,-3.9753,-4.0612,-4.1338,-4.1414,-4.1429,-4.1429,-4.1384,-4.1025,-4.0472,-4.0442,-4.0201,-3.9802,-3.9955,-4.0066,-4.0277,-4.0385,-4.0593,-4.073,-4.0799,-4.1398,-4.239,-4.2715,-4.3468,-4.4973,-4.5508,-4.5233,-4.4565,-4.4353,-4.4385,-4.4257,-4.4189,-4.4157,-4.4125,-4.3994,-4.4077,-4.4125,-4.4173,-4.4629,-4.5359,-4.5504,-4.6031,-4.6822,-4.6903,-4.702,-4.7304,-4.7272,-4.7404,-4.7437,-4.7588,-4.7721,-4.7704,-4.7869,-4.7935,-4.7787,-4.8033,-4.8244,-4.8292,-4.842,-4.8547,-4.8707,-4.8564,-4.8483,-4.842,-4.8227,-4.8033,-4.8033,-4.8001,-4.8001,-4.8001,-4.8001,-4.8001,-4.8001,-4.8001,-4.7853,-4.7787,-4.7704,-4.7654,-4.7537,-4.747,-4.747,-4.7586,-4.7735,-4.7718,-4.782,-4.7951,-4.8236,-4.8483,-4.8714,-4.8877,-4.894,-4.886,-4.8504,-4.8344,-4.8226,-4.7928,-4.7363,-4.6742,-4.6388,-3.7801,-3.7475,-3.7475,-3.7161,-3.6709,-3.6872,-3.6722,-3.6395,-3.6558,-3.6358,-3.5893,-3.5843,-3.573,-3.5516,-3.6439,-3.716,-3.7827,-3.9121,-4.0154,-4.0711,-4.0756,-4.0756,-4.0711,-4.0352,-4.0023,-3.9813,-3.9783,-3.9721,-3.9727,-3.9925,-4.0066,-4.0277,-4.0385,-4.0593,-4.0799,-4.0966,-4.1565,-4.2616,-4.3345,-4.4401,-4.5604,-4.6361,-4.661,-4.6366,-4.635,-4.6004,-4.5365,-4.5182,-4.4905,-4.4337,-4.417,-4.417,-4.4353,-4.4973,-4.5724,-4.6491,-4.6741,-4.699,-4.7354,-4.7386,-4.7403,-4.747,-4.7604,-4.7671,-4.7654,-4.7803,-4.7869,-4.7935,-4.8049,-4.8049,-4.8001,-4.8179,-4.8483,-4.8673,-4.869,-4.8707,-4.8707,-4.85,-4.8292,-4.8292,-4.8131,-4.8001,-4.8001,-4.8001,-4.8001,-4.8001,-4.8001,-4.8001,-4.8001,-4.8001,-4.7886,-4.7919,-4.7935,-4.7869,-4.7886,-4.7721,-4.7654,-4.782,-4.7952,-4.8002,-4.81,-4.8227,-4.8522,-4.8456,-4.8641,-4.8534,-4.8426,-4.8056,-4.7844,-4.7631,-4.7486,-4.7352,-4.6781,-4.6378,-4.6124,-3.7262,-3.6948,-3.691,-3.6709,-3.6383,-3.637,-3.637,-3.637,-3.6358,-3.6144,-3.5855,-3.5818,-3.5629,-3.5344,-3.5723,-3.6284,-3.6971,-3.8609,-3.973,-4.0039,-4.0083,-4.0083,-4.0023,-3.9634,-3.9424,-3.9424,-3.9424,-3.9553,-3.9768,-3.9925,-4.0137,-4.0331,-4.047,-4.0677,-4.0882,-4.1049,-4.1778,-4.3221,-4.4131,-4.5142,-4.6452,-4.7191,-4.7588,-4.7737,-4.7787,-4.7374,-4.655,-4.6366,-4.6021,-4.5449,-4.525,-4.525,-4.5398,-4.6004,-4.6694,-4.7186,-4.7386,-4.7537,-4.7537,-4.7537,-4.7604,-4.7671,-4.7721,-4.7787,-4.7787,-4.7919,-4.8001,-4.8001,-4.8049,-4.8115,-4.8115,-4.8227,-4.8483,-4.869,-4.8627,-4.8644,-4.8707,-4.8356,-4.8227,-4.8098,-4.8049,-4.8001,-4.8001,-4.8001,-4.8001,-4.8001,-4.8001,-4.7951,-4.7768,-4.7636,-4.7585,-4.7467,-4.7317,-4.7284,-4.7218,-4.7071,-4.7522,-4.7817,-4.7984,-4.8132,-4.8096,-4.8333,-4.8444,-4.8399,-4.824,-4.802,-4.7691,-4.7284,-4.7003,-4.6845,-4.6823,-4.673,-4.6378,-4.6126,-4.5868,-3.6408,-3.6408,-3.637,-3.6395,-3.6358,-3.6307,-3.6332,-3.6295,-3.627,-3.6107,-3.5931,-3.6157,-3.5504,-3.4864,-3.4894,-3.5404,-3.656,-3.814,-3.9098,-3.9471,-3.9499,-3.9499,-3.9499,-3.9454,-3.9424,-3.9424,-3.9424,-3.964,-3.9925,-4.0011,-4.0137,-4.047,-4.0455,-4.0677,-4.1102,-4.1164,-4.2284,-4.4039,-4.4592,-4.575,-4.7704,-4.7934,-4.8033,-4.8115,-4.8275,-4.8146,-4.7655,-4.7572,-4.7506,-4.7506,-4.744,-4.7538,-4.7223,-4.7372,-4.7454,-4.7437,-4.7537,-4.7604,-4.7721,-4.7704,-4.7787,-4.7935,-4.8001,-4.8001,-4.8001,-4.8001,-4.8001,-4.8001,-4.8001,-4.8033,-4.8113,-4.8046,-4.8144,-4.8227,-4.8292,-4.8356,-4.842,-4.8356,-4.8146,-4.7934,-4.7918,-4.7984,-4.7951,-4.7801,-4.7718,-4.7751,-4.7768,-4.765,-4.7182,-4.7018,-4.6766,-4.6474,-4.6491,-4.6612,-4.6486,-4.638,-4.7154,-4.7728,-4.7882,-4.8048,-4.7791,-4.7888,-4.7767,-4.7691,-4.7327,-4.7089,-4.7104,-4.6669,-4.6442,-4.6315,-4.6272,-4.6244,-4.5971,-4.5715,-4.5629,-3.6709,-3.6383,-3.637,-3.637,-3.6307,-3.5956,-3.5793,-3.5742,-3.5403,-3.5027,-3.4713,-3.4663,-3.4462,-3.4401,-3.4976,-3.5841,-3.6874,-3.8182,-3.8996,-3.9354,-3.9424,-3.9424,-3.9424,-3.9424,-3.9424,-3.9424,-3.9424,-3.964,-3.994,-4.0011,-4.0207,-4.047,-4.0524,-4.0677,-4.1117,-4.1148,-4.2043,-4.3488,-4.4198,-4.5241,-4.6601,-4.7258,-4.7571,-4.7721,-4.7836,-4.7902,-4.7935,-4.7919,-4.7787,-4.7571,-4.7537,-4.7537,-4.7537,-4.7588,-4.7654,-4.7654,-4.7803,-4.7869,-4.7853,-4.7902,-4.7869,-4.7984,-4.7984,-4.8001,-4.8001,-4.7951,-4.7951,-4.7968,-4.8001,-4.7835,-4.7419,-4.7287,-4.7597,-4.8289,-4.842,-4.8336,-4.8286,-4.8225,-4.7932,-4.739,-4.7276,-4.7077,-4.6659,-4.6587,-4.6762,-4.6782,-4.6845,-4.6758,-4.6619,-4.6457,-4.6457,-4.6296,-4.6246,-4.6029,-4.5972,-4.5992,-4.6411,-4.6943,-4.7254,-4.7625,-4.7479,-4.7248,-4.7114,-4.6822,-4.6459,-4.6272,-4.6266,-4.6174,-4.5942,-4.5757,-4.5728,-4.5593,-4.5457,-4.5441,-4.5441,-3.6671,-3.637,-3.637,-3.6232,-3.6044,-3.5667,-3.5416,-3.5203,-3.4876,-3.4525,-3.4261,-3.4223,-3.4085,-3.4098,-3.4632,-3.5641,-3.6739,-3.7521,-3.8446,-3.9309,-3.9424,-3.9424,-3.9424,-3.9424,-3.9424,-3.9424,-3.9424,-3.964,-4.0011,-4.0011,-4.0191,-4.047,-4.0524,-4.0677,-4.1049,-4.1133,-4.1834,-4.3149,-4.3812,-4.4641,-4.5751,-4.6389,-4.6766,-4.6832,-4.6946,-4.7027,-4.7108,-4.7141,-4.7192,-4.7292,-4.7095,-4.6865,-4.6865,-4.6946,-4.6962,-4.7043,-4.7092,-4.7156,-4.7189,-4.709,-4.7189,-4.7173,-4.7173,-4.7173,-4.7173,-4.7189,-4.7173,-4.7189,-4.7139,-4.699,-4.6576,-4.6477,-4.6836,-4.7408,-4.7408,-4.7475,-4.7475,-4.7475,-4.7204,-4.6748,-4.6634,-4.6347,-4.6034,-4.6039,-4.6056,-4.6085,-4.6168,-4.614,-4.6039,-4.5905,-4.5898,-4.5714,-4.5438,-4.5371,-4.5581,-4.5639,-4.5681,-4.6043,-4.6378,-4.6753,-4.6976,-4.6641,-4.6447,-4.6049,-4.5653,-4.5674,-4.5682,-4.5549,-4.54,-4.5264,-4.5371,-4.5423,-4.5476,-4.5476,-4.5546,-3.637,-3.637,-3.632,-3.6019,-3.5592,-3.5429,-3.509,-3.4713,-3.4575,-3.4487,-3.45,-3.4387,-3.4223,-3.3897,-3.3934,-3.4816,-3.607,-3.636,-3.7567,-3.8958,-3.9424,-3.9424,-3.9424,-3.9424,-3.9424,-3.9424,-3.9424,-3.964,-4.0011,-4.0011,-4.0191,-4.0455,-4.0539,-4.0693,-4.1049,-4.1117,-4.1803,-4.3023,-4.3525,-4.422,-4.5337,-4.5643,-4.5739,-4.5708,-4.5788,-4.5758,-4.5713,-4.5647,-4.6052,-4.6802,-4.6278,-4.595,-4.5864,-4.5798,-4.593,-4.5997,-4.5847,-4.593,-4.5864,-4.6046,-4.6013,-4.603,-4.603,-4.5798,-4.6013,-4.6096,-4.6096,-4.6063,-4.6013,-4.5881,-4.5798,-4.5732,-4.5732,-4.5682,-4.5976,-4.6059,-4.591,-4.6067,-4.6175,-4.6073,-4.6085,-4.6079,-4.5781,-4.585,-4.5883,-4.5855,-4.5878,-4.5757,-4.5513,-4.5244,-4.505,-4.4882,-4.4855,-4.4889,-4.5091,-4.5149,-4.5206,-4.5432,-4.5689,-4.5951,-4.6279,-4.6039,-4.5874,-4.5443,-4.5255,-4.5189,-4.5192,-4.5264,-4.53,-4.5423,-4.5476,-4.5476,-4.5528,-4.5581,-4.5667,-3.637,-3.6332,-3.5918,-3.568,-3.5429,-3.47,-3.4274,-3.406,-3.3684,-3.3596,-3.3533,-3.3508,-3.3495,-3.3307,-3.3393,-3.4379,-3.5842,-3.6198,-3.7329,-3.9104,-3.9424,-3.9424,-3.9424,-3.9424,-3.9424,-3.9424,-3.9424,-3.964,-4.0011,-4.0011,-4.0207,-4.0455,-4.0524,-4.0677,-4.1049,-4.1117,-4.1516,-4.2298,-4.2892,-4.3329,-4.3848,-4.4414,-4.4673,-4.4673,-4.4756,-4.4805,-4.4723,-4.4528,-4.4865,-4.5697,-4.5758,-4.5626,-4.5544,-4.5636,-4.5665,-4.5665,-4.5715,-4.5765,-4.5748,-4.5732,-4.5748,-4.5798,-4.5649,-4.5798,-4.5798,-4.5781,-4.5798,-4.5798,-4.5781,-4.5533,-4.5119,-4.4986,-4.4771,-4.4423,-4.5069,-4.5711,-4.5851,-4.5934,-4.5839,-4.55,-4.5507,-4.525,-4.4942,-4.4832,-4.4908,-4.4884,-4.5033,-4.5091,-4.4963,-4.4862,-4.4744,-4.4716,-4.4632,-4.4654,-4.4654,-4.4637,-4.4727,-4.4851,-4.5055,-4.5185,-4.5382,-4.5316,-4.5329,-4.5194,-4.5226,-4.5228,-4.5282,-4.5371,-4.5423,-4.5528,-4.5581,-4.5581,-4.5684,-4.577,-4.5822,-3.637,-3.6332,-3.6019,-3.5617,-3.5152,-3.4512,-3.3985,-3.3545,-3.3232,-3.3081,-3.3081,-3.3081,-3.3081,-3.3081,-3.3167,-3.4249,-3.6039,-3.6198,-3.7391,-3.9104,-3.9424,-3.9424,-3.9424,-3.9424,-3.9424,-3.9424,-3.9481,-3.9696,-4.0011,-4.0066,-4.0277,-4.047,-4.0524,-4.0693,-4.1049,-4.1117,-4.1303,-4.1765,-4.223,-4.2537,-4.2666,-4.3117,-4.3343,-4.3391,-4.3457,-4.3507,-4.3573,-4.346,-4.386,-4.4603,-4.4697,-4.4578,-4.4578,-4.4624,-4.4686,-4.4764,-4.4809,-4.4792,-4.487,-4.487,-4.487,-4.487,-4.4887,-4.487,-4.4854,-4.4887,-4.4887,-4.4837,-4.4887,-4.4671,-4.4373,-4.4241,-4.4042,-4.3876,-4.439,-4.4948,-4.5113,-4.5107,-4.5057,-4.495,-4.4858,-4.4758,-4.4238,-4.435,-4.4344,-4.4377,-4.4575,-4.4632,-4.4621,-4.457,-4.457,-4.457,-4.4626,-4.4626,-4.4682,-4.4682,-4.4737,-4.4865,-4.4954,-4.4967,-4.5012,-4.5054,-4.5125,-4.5266,-4.5283,-4.5318,-4.5423,-4.5476,-4.5563,-4.5615,-4.5667,-4.5718,-4.5821,-4.5871,-4.5974,-3.627,-3.6257,-3.6157,-3.5542,-3.47,-3.4537,-3.3909,-3.3219,-3.3093,-3.3081,-3.3081,-3.3081,-3.3081,-3.3081,-3.3167,-3.4262,-3.6198,-3.6198,-3.7558,-3.8855,-3.9424,-3.9424,-3.9424,-3.9424,-3.9424,-3.9424,-3.961,-3.9768,-3.9996,-4.0207,-4.0331,-4.047,-4.0524,-4.0746,-4.1034,-4.1117,-4.1272,-4.1588,-4.1799,-4.1944,-4.201,-4.2154,-4.2267,-4.2252,-4.2317,-4.2414,-4.2558,-4.2668,-4.31,-4.4,-4.3379,-4.3293,-4.3195,-4.3146,-4.3317,-4.3597,-4.3723,-4.369,-4.3635,-4.3843,-4.3744,-4.3827,-4.3794,-4.3645,-4.381,-4.3876,-4.3893,-4.391,-4.3661,-4.3777,-4.3761,-4.3678,-4.3678,-4.3661,-4.3711,-4.3796,-4.3881,-4.4039,-4.4131,-4.433,-4.4541,-4.448,-4.4468,-4.4485,-4.457,-4.4457,-4.4497,-4.457,-4.457,-4.457,-4.457,-4.457,-4.4626,-4.4665,-4.4737,-4.4793,-4.4903,-4.4975,-4.5101,-4.5172,-4.5213,-4.525,-4.5284,-4.5372,-4.5406,-4.5476,-4.5581,-4.5632,-4.5667,-4.577,-4.5821,-4.5871,-4.5972,-4.6023,-4.6058,-3.573,-3.5642,-3.4776,-3.4299,-3.4022,-3.3621,-3.3307,-3.3093,-3.3081,-3.3081,-3.3081,-3.3081,-3.3081,-3.3081,-3.324,-3.4262,-3.6039,-3.6355,-3.7391,-3.9177,-3.9424,-3.9424,-3.9424,-3.9424,-3.9424,-3.9424,-3.961,-3.9768,-3.9996,-4.0207,-4.0416,-4.0524,-4.0662,-4.0882,-4.1049,-4.1221,-4.1323,-4.1588,-4.167,-4.167,-4.167,-4.172,-4.1785,-4.1785,-4.1866,-4.2125,-4.2302,-4.2429,-4.2573,-4.2842,-4.2997,-4.3007,-4.3113,-4.3235,-4.3372,-4.3492,-4.3509,-4.3552,-4.3568,-4.3645,-4.3645,-4.3645,-4.3645,-4.3645,-4.3645,-4.3645,-4.3645,-4.3645,-4.3645,-4.3645,-4.3628,-4.3628,-4.3704,-4.3763,-4.3822,-4.3939,-4.4155,-4.4155,-4.4229,-4.4474,-4.453,-4.4553,-4.4519,-4.4536,-4.457,-4.457,-4.457,-4.457,-4.457,-4.457,-4.4626,-4.4626,-4.4682,-4.472,-4.4886,-4.494,-4.5066,-4.5138,-4.528,-4.5388,-4.5442,-4.5442,-4.5477,-4.5529,-4.5581,-4.5632,-4.5736,-4.5787,-4.5821,-4.5871,-4.5972,-4.6023,-4.6073,-4.6122,-4.6014,-3.5391,-3.5115,-3.4525,-3.4135,-3.3872,-3.3583,-3.3319,-3.3119,-3.3081,-3.3081,-3.3081,-3.3081,-3.3081,-3.3167,-3.3628,-3.4802,-3.6212,-3.7329,-3.8294,-3.9265,-3.9424,-3.9424,-3.9424,-3.9424,-3.9424,-3.9424,-3.9711,-3.9925,-4.0066,-4.0261,-4.0455,-4.0524,-4.073,-4.0882,-4.1102,-4.1205,-4.139,-4.1588,-4.1588,-4.1588,-4.1588,-4.1654,-4.1801,-4.1851,-4.1996,-4.2254,-4.2381,-4.2571,-4.2634,-4.2759,-4.2883,-4.3007,-4.3007,-4.3174,-4.3312,-4.3432,-4.3509,-4.3552,-4.3552,-4.3645,-4.3645,-4.3645,-4.3645,-4.3645,-4.3645,-4.3645,-4.3645,-4.3628,-4.3687,-4.3747,-4.3805,-4.3864,-4.3939,-4.3939,-4.3998,-4.4114,-4.4253,-4.4253,-4.427,-4.4514,-4.457,-4.457,-4.457,-4.457,-4.457,-4.457,-4.457,-4.457,-4.457,-4.4626,-4.4682,-4.4682,-4.4737,-4.4831,-4.4978,-4.5103,-4.5228,-4.5316,-4.5404,-4.5476,-4.5511,-4.5597,-4.5648,-4.5666,-4.5684,-4.577,-4.5821,-4.5871,-4.5922,-4.6023,-4.6122,-4.6122,-4.6032,-4.5817,-4.569,-3.5027,-3.4575,-3.4512,-3.4198,-3.3822,-3.3734,-3.347,-3.3119,-3.3081,-3.3081,-3.3081,-3.3081,-3.3081,-3.3326,-3.3869,-3.5034,-3.6526,-3.8204,-3.9265,-3.9352,-3.9424,-3.9424,-3.9424,-3.9424,-3.9424,-3.9424,-3.9798,-4.0011,-4.0066,-4.0316,-4.0524,-4.0593,-4.0746,-4.095,-4.1153,-4.1272,-4.1456,-4.1588,-4.1588,-4.167,-4.167,-4.1817,-4.1947,-4.2125,-4.2254,-4.2381,-4.2508,-4.2713,-4.2899,-4.2961,-4.3068,-4.3068,-4.3068,-4.3052,-4.3235,-4.3432,-4.3432,-4.3509,-4.3568,-4.3645,-4.3645,-4.3645,-4.3645,-4.3628,-4.3628,-4.3704,-4.3747,-4.3747,-4.3805,-4.3939,-4.4114,-4.4039,-4.4097,-4.4097,-4.4155,-4.4196,-4.431,-4.4367,-4.444,-4.457,-4.457,-4.457,-4.457,-4.457,-4.457,-4.457,-4.457,-4.4626,-4.4626,-4.4626,-4.4737,-4.4793,-4.4886,-4.4995,-4.514,-4.5247,-4.5388,-4.544,-4.5527,-4.5632,-4.5683,-4.5732,-4.58,-4.5819,-4.5821,-4.5922,-4.5972,-4.6023,-4.6073,-4.6172,-4.6028,-4.5866,-4.5686,-4.5505,-4.5323,-3.411,-3.3997,-3.3545,-3.3294,-3.3232,-3.3219,-3.3181,-3.3093,-3.3081,-3.3081,-3.3081,-3.3081,-3.3081,-3.324,-3.324,-3.4485,-3.6604,-3.8457,-3.9424,-3.9424,-3.9424,-3.9424,-3.9424,-3.9424,-3.9424,-3.9496,-3.9798,-4.0011,-4.0081,-4.0331,-4.0593,-4.073,-4.0966,-4.1102,-4.1272,-4.1456,-4.1522,-4.1604,-4.167,-4.167,-4.1817,-4.1882,-4.2077,-4.2318,-4.2445,-4.2571,-4.2759,-4.2837,-4.2961,-4.3052,-4.3251,-4.3295,-4.3312,-4.3312,-4.3432,-4.3492,-4.3552,-4.3568,-4.3645,-4.3628,-4.3645,-4.3645,-4.3763,-4.3822,-4.3881,-4.3939,-4.3923,-4.3981,-4.4039,-4.4114,-4.4097,-4.4155,-4.4155,-4.427,-4.4327,-4.4327,-4.4514,-4.4514,-4.4497,-4.457,-4.457,-4.457,-4.457,-4.4626,-4.4626,-4.4626,-4.4682,-4.4682,-4.4665,-4.472,-4.4776,-4.4886,-4.5032,-4.5157,-4.5371,-4.5423,-4.5546,-4.558,-4.5702,-4.5788,-4.5837,-4.595,-4.595,-4.5988,-4.5972,-4.6023,-4.6073,-4.6087,-4.6032,-4.6007,-4.5756,-4.5452,-4.52,-4.4947,-4.4643,-3.3734,-3.3458,-3.3181,-3.3081,-3.3081,-3.3081,-3.3081,-3.3081,-3.3081,-3.3081,-3.3081,-3.3081,-3.3081,-3.3398,-3.4402,-3.5828,-3.7634,-3.8767,-3.9424,-3.9424,-3.9424,-3.9424,-3.9394,-3.9409,-3.9424,-3.9496,-3.9783,-4.0011,-4.0011,-4.0331,-4.0593,-4.0814,-4.1034,-4.1169,-4.1323,-4.1522,-4.167,-4.1736,-4.1752,-4.1801,-4.2012,-4.2077,-4.2334,-4.2587,-4.265,-4.2759,-4.2929,-4.3129,-4.319,-4.3312,-4.3432,-4.3492,-4.3492,-4.3509,-4.3552,-4.3628,-4.3628,-4.3687,-4.3763,-4.3763,-4.3822,-4.3864,-4.3923,-4.3998,-4.3998,-4.4056,-4.4155,-4.4196,-4.4196,-4.4253,-4.4327,-4.4344,-4.44,-4.444,-4.444,-4.4514,-4.457,-4.457,-4.4626,-4.4626,-4.4626,-4.4626,-4.457,-4.4626,-4.4626,-4.4682,-4.4737,-4.472,-4.4776,-4.4831,-4.4923,-4.5032,-4.5194,-4.5318,-4.5476,-4.5581,-4.565,-4.5736,-4.5806,-4.5941,-4.599,-4.6035,-4.6084,-4.6105,-4.6105,-4.5982,-4.5979,-4.5923,-4.5848,-4.5668,-4.52,-4.4816,-4.4604,-4.4377,-4.3988,-3.3345,-3.2742,-3.2867,-3.2842,-3.2754,-3.2729,-3.2717,-3.2729,-3.2704,-3.2679,-3.2742,-3.2704,-3.2679,-3.3257,-3.4794,-3.6674,-3.8471,-3.8557,-3.8901,-3.8886,-3.8886,-3.899,-3.9185,-3.9245,-3.9245,-3.9481,-3.9783,-4.0011,-4.0066,-4.0331,-4.0593,-4.0882,-4.1049,-4.1236,-4.139,-4.1604,-4.1736,-4.1817,-4.1947,-4.1996,-4.219,-4.2381,-4.2571,-4.2899,-4.2899,-4.3007,-4.319,-4.3312,-4.3388,-4.3432,-4.3492,-4.3628,-4.3645,-4.3645,-4.3704,-4.3687,-4.3687,-4.3763,-4.3881,-4.3956,-4.3998,-4.4056,-4.4097,-4.4155,-4.4155,-4.4212,-4.427,-4.431,-4.4367,-4.4423,-4.4497,-4.457,-4.457,-4.457,-4.457,-4.4643,-4.4626,-4.4682,-4.4682,-4.4682,-4.4699,-4.466,-4.4677,-4.4759,-4.4814,-4.481,-4.4865,-4.4886,-4.4869,-4.4978,-4.5086,-4.5247,-4.5406,-4.5476,-4.5632,-4.5667,-4.5753,-4.5822,-4.5925,-4.6075,-4.6073,-4.6119,-4.6116,-4.5971,-4.5901,-4.5761,-4.5791,-4.5563,-4.5288,-4.4894,-4.4456,-4.4147,-4.4015,-4.3633,-4.3213,-3.2541,-3.1637,-3.2114,-3.2039,-3.1662,-3.165,-3.1625,-3.165,-3.1675,-3.1587,-3.1738,-3.1637,-3.1757,-3.2384,-3.3813,-3.483,-3.5691,-3.7151,-3.7988,-3.8048,-3.8063,-3.8362,-3.8542,-3.8512,-3.902,-3.9406,-3.9783,-4.0011,-4.0081,-4.0331,-4.0677,-4.0966,-4.1102,-4.1221,-4.1538,-4.1752,-4.1882,-4.1898,-4.1996,-4.2174,-4.2381,-4.2634,-4.2837,-4.2945,-4.3007,-4.319,-4.3312,-4.3449,-4.3449,-4.3568,-4.3628,-4.3704,-4.3839,-4.3839,-4.3939,-4.3939,-4.3939,-4.3956,-4.4056,-4.4114,-4.4114,-4.4155,-4.4196,-4.4253,-4.4327,-4.4384,-4.4514,-4.457,-4.457,-4.457,-4.457,-4.4626,-4.457,-4.4626,-4.4626,-4.4682,-4.4737,-4.4776,-4.4776,-4.4848,-4.4848,-4.4861,-4.4856,-4.492,-4.4961,-4.5012,-4.4992,-4.5012,-4.5032,-4.514,-4.5247,-4.5406,-4.5511,-4.5632,-4.5736,-4.5821,-4.5906,-4.5959,-4.6042,-4.614,-4.6137,-4.6112,-4.5781,-4.567,-4.5564,-4.527,-4.507,-4.4816,-4.4526,-4.4182,-4.3828,-4.358,-4.3429,-4.2981,-4.2585,-3.2014,-3.1851,-3.1775,-3.1612,-3.1399,-3.1386,-3.1386,-3.1386,-3.1386,-3.1386,-3.1386,-3.1386,-3.1996,-3.2907,-3.4101,-3.5099,-3.6129,-3.7312,-3.7943,-3.7973,-3.8182,-3.8601,-3.8945,-3.8975,-3.9215,-3.9376,-3.9783,-4.0011,-4.0137,-4.047,-4.0814,-4.1049,-4.1236,-4.1421,-4.167,-4.1833,-4.2012,-4.2206,-4.2445,-4.2555,-4.2696,-4.2883,-4.3068,-4.3129,-4.3235,-4.3355,-4.3432,-4.3509,-4.3628,-4.3704,-4.3763,-4.3822,-4.3939,-4.3998,-4.4114,-4.4212,-4.4155,-4.4155,-4.4212,-4.4196,-4.427,-4.4327,-4.444,-4.444,-4.4497,-4.4497,-4.457,-4.457,-4.457,-4.457,-4.4626,-4.4682,-4.4682,-4.4737,-4.4737,-4.4831,-4.4886,-4.4886,-4.494,-4.4995,-4.5066,-4.5026,-4.5005,-4.5029,-4.5106,-4.5106,-4.514,-4.5211,-4.5247,-4.5371,-4.5476,-4.5511,-4.5667,-4.5787,-4.5871,-4.5922,-4.6023,-4.6075,-4.6125,-4.6172,-4.6182,-4.6033,-4.5669,-4.5088,-4.4653,-4.4395,-4.4253,-4.405,-4.3775,-4.35,-4.3205,-4.3052,-4.2875,-4.2739,-4.2412,-3.1436,-3.1775,-3.1361,-3.1122,-3.0997,-3.0997,-3.0972,-3.0972,-3.0959,-3.0959,-3.0984,-3.1027,-3.1928,-3.3349,-3.3804,-3.4638,-3.6374,-3.7297,-3.7629,-3.7868,-3.8182,-3.8422,-3.8556,-3.8781,-3.899,-3.9424,-3.9798,-4.0011,-4.0207,-4.0539,-4.095,-4.1117,-4.1221,-4.1488,-4.1817,-4.1963,-4.2141,-4.2508,-4.2696,-4.2899,-4.2961,-4.3052,-4.3235,-4.3372,-4.3449,-4.3509,-4.3645,-4.3687,-4.3763,-4.3881,-4.3939,-4.3998,-4.4097,-4.4155,-4.4212,-4.4327,-4.4384,-4.4384,-4.4384,-4.4384,-4.444,-4.4514,-4.457,-4.457,-4.457,-4.457,-4.457,-4.457,-4.4626,-4.4626,-4.4682,-4.4793,-4.4831,-4.4886,-4.494,-4.4995,-4.5049,-4.5032,-4.5086,-4.5157,-4.5228,-4.528,-4.528,-4.5211,-4.5213,-4.5232,-4.5302,-4.5336,-4.5459,-4.5581,-4.5684,-4.5718,-4.577,-4.5889,-4.5972,-4.6073,-4.614,-4.6122,-4.6172,-4.6032,-4.594,-4.5647,-4.5258,-4.4644,-4.3942,-4.3561,-4.3393,-4.3223,-4.3052,-4.2857,-4.2703,-4.2513,-4.2376,-4.2287,-4.2287,-3.0696,-3.0721,-3.0683,-3.0382,-2.9967,-2.9892,-2.993,-3.0043,-2.998,-2.9993,-3.0068,-3.0045,-3.0612,-3.1615,-3.265,-3.348,-3.4448,-3.5259,-3.5962,-3.6043,-3.5893,-3.6971,-3.7599,-3.8108,-3.8362,-3.9331,-3.9783,-3.994,-4.0152,-4.0677,-4.0966,-4.1117,-4.1355,-4.1554,-4.1882,-4.2141,-4.2397,-4.2696,-4.2899,-4.3007,-4.3129,-4.3235,-4.3372,-4.3449,-4.3568,-4.3704,-4.3855,-4.3898,-4.3939,-4.4039,-4.4114,-4.4155,-4.4253,-4.431,-4.4384,-4.4514,-4.4514,-4.4497,-4.4497,-4.4497,-4.457,-4.457,-4.457,-4.457,-4.457,-4.4587,-4.4587,-4.4626,-4.4737,-4.4776,-4.4831,-4.4886,-4.4978,-4.4978,-4.5032,-4.5157,-4.5157,-4.5194,-4.5247,-4.5318,-4.5405,-4.544,-4.551,-4.5458,-4.5459,-4.5459,-4.5459,-4.5563,-4.5615,-4.5736,-4.5838,-4.5939,-4.5922,-4.6023,-4.6122,-4.6221,-4.6239,-4.6154,-4.6119,-4.5856,-4.5576,-4.5216,-4.4614,-4.4089,-4.3447,-4.2977,-4.2656,-4.265,-4.2638,-4.2448,-4.2287,-4.2287,-4.2287,-4.2287,-4.2287,-3.0105,-3.0105,-3.0105,-2.9993,-2.9779,-2.9779,-2.9779,-2.9779,-2.9779,-2.9779,-2.9779,-2.9856,-3.0355,-3.1254,-3.2164,-3.3101,-3.4085,-3.5526,-3.5932,-3.6252,-3.6582,-3.7195,-3.7793,-3.8033,-3.8527,-3.9257,-3.9666,-3.991,-4.0066,-4.0531,-4.095,-4.1169,-4.1456,-4.1752,-4.2077,-4.2397,-4.2713,-4.2899,-4.3084,-4.3251,-4.3312,-4.3432,-4.3568,-4.3704,-4.3763,-4.3881,-4.3998,-4.3998,-4.4097,-4.4196,-4.4212,-4.4327,-4.444,-4.444,-4.4497,-4.457,-4.457,-4.457,-4.457,-4.457,-4.457,-4.457,-4.457,-4.457,-4.4626,-4.4699,-4.4737,-4.4776,-4.4831,-4.4923,-4.4923,-4.5049,-4.514,-4.514,-4.5194,-4.5264,-4.53,-4.53,-4.5406,-4.5476,-4.5563,-4.5545,-4.5667,-4.5719,-4.5667,-4.5667,-4.5718,-4.577,-4.5821,-4.5889,-4.599,-4.604,-4.6073,-4.6122,-4.6221,-4.6288,-4.6337,-4.6182,-4.6046,-4.5602,-4.5135,-4.4299,-4.3716,-4.3304,-4.303,-4.2662,-4.2448,-4.2341,-4.2287,-4.2287,-4.2287,-4.2287,-4.2287,-4.2287,-4.2399,-2.9779,-2.9779,-2.9779,-2.9779,-2.9779,-2.9779,-2.9779,-2.9779,-2.9779,-2.9779,-2.9779,-2.9856,-3.0482,-3.1536,-3.2249,-3.3394,-3.4496,-3.5585,-3.6022,-3.6237,-3.6492,-3.7225,-3.7614,-3.7838,-3.7913,-3.8762,-3.9038,-3.9103,-3.9267,-4.0108,-4.0562,-4.0959,-4.1575,-4.198,-4.2254,-4.2696,-4.3007,-4.3068,-4.3251,-4.3492,-4.3509,-4.3628,-4.3747,-4.3956,-4.3939,-4.4039,-4.4097,-4.4155,-4.427,-4.4327,-4.444,-4.4457,-4.457,-4.457,-4.457,-4.457,-4.457,-4.457,-4.457,-4.457,-4.457,-4.457,-4.457,-4.4626,-4.4682,-4.4737,-4.4776,-4.4886,-4.4978,-4.5032,-4.5086,-4.5194,-4.5247,-4.5247,-4.5318,-4.5371,-4.5423,-4.5459,-4.5581,-4.5632,-4.5667,-4.5736,-4.5805,-4.5925,-4.5873,-4.5871,-4.5821,-4.5871,-4.5972,-4.6023,-4.6073,-4.6122,-4.6172,-4.6221,-4.627,-4.6332,-4.6323,-4.5864,-4.5652,-4.5181,-4.4591,-4.3739,-4.3107,-4.2851,-4.2614,-4.2358,-4.2346,-4.2346,-4.2346,-4.2287,-4.2364,-4.2417,-4.2287,-4.2305,-4.256,-2.9779,-2.9779,-2.9779,-2.9779,-2.9779,-2.9779,-2.9779,-2.9779,-2.9779,-2.9779,-2.9779,-2.9856,-3.0771,-3.2105,-3.2536,-3.3616,-3.4773,-3.5434,-3.5639,-3.5729,-3.5848,-3.6118,-3.6492,-3.6851,-3.7255,-3.7473,-3.7841,-3.8182,-3.8265,-3.9447,-4.0018,-4.0698,-4.1533,-4.2254,-4.2445,-4.2867,-4.3174,-4.3372,-4.3388,-4.3628,-4.3822,-4.3898,-4.3939,-4.4039,-4.4097,-4.4155,-4.427,-4.4327,-4.4384,-4.4514,-4.4514,-4.457,-4.457,-4.457,-4.457,-4.457,-4.457,-4.457,-4.457,-4.457,-4.4626,-4.4626,-4.4626,-4.4665,-4.4776,-4.4831,-4.4903,-4.4995,-4.514,-4.5194,-4.5247,-4.53,-4.5353,-4.5406,-4.5423,-4.5476,-4.5581,-4.5615,-4.5684,-4.5787,-4.5787,-4.5855,-4.5992,-4.6042,-4.6058,-4.604,-4.6023,-4.6023,-4.6122,-4.6172,-4.6154,-4.6221,-4.6301,-4.6139,-4.6169,-4.6353,-4.6289,-4.5758,-4.5184,-4.4654,-4.4138,-4.3477,-4.2946,-4.2524,-4.2417,-4.2387,-4.2405,-4.2422,-4.2624,-4.2785,-4.2583,-4.2524,-4.2417,-4.2596,-4.3107,-2.9779,-2.9779,-2.9779,-2.9779,-2.9779,-2.9779,-2.9779,-2.9779,-2.9779,-2.9779,-2.9921,-3.0419,-3.0908,-3.1815,-3.3017,-3.3891,-3.4476,-3.5359,-3.5489,-3.5489,-3.5489,-3.5923,-3.6282,-3.6492,-3.6761,-3.724,-3.7488,-3.7617,-3.8068,-3.8964,-3.9784,-4.0525,-4.1773,-4.2601,-4.2821,-4.3129,-4.3372,-4.3509,-4.3645,-4.3822,-4.3998,-4.4056,-4.4114,-4.4212,-4.427,-4.4327,-4.444,-4.444,-4.4514,-4.457,-4.457,-4.457,-4.457,-4.457,-4.457,-4.457,-4.457,-4.457,-4.457,-4.4626,-4.4626,-4.4682,-4.4737,-4.4776,-4.494,-4.5032,-4.5086,-4.514,-4.5247,-4.53,-4.5353,-4.5459,-4.5511,-4.5563,-4.5563,-4.5667,-4.5718,-4.5718,-4.577,-4.5871,-4.5939,-4.5953,-4.5985,-4.5804,-4.5765,-4.5905,-4.5856,-4.6017,-4.6137,-4.6235,-4.6332,-4.6398,-4.6394,-4.6124,-4.6012,-4.5946,-4.5655,-4.5007,-4.4476,-4.3942,-4.3447,-4.3071,-4.2826,-4.2486,-4.2445,-4.2445,-4.2705,-4.2925,-4.323,-4.3337,-4.3409,-4.335,-4.3274,-4.3691,-4.433,-2.9202,-2.9227,-2.9415,-2.949,-2.9528,-2.9704,-2.9779,-2.9779,-2.9779,-2.9779,-2.9998,-3.0771,-3.1476,-3.2105,-3.3171,-3.4312,-3.4543,-3.5133,-3.5489,-3.5489,-3.5489,-3.5744,-3.5998,-3.6193,-3.6237,-3.6701,-3.6776,-3.6917,-3.7203,-3.8284,-3.9495,-4.0896,-4.2199,-4.2909,-4.3251,-4.3492,-4.3628,-4.3763,-4.3881,-4.3998,-4.4155,-4.4212,-4.427,-4.4384,-4.444,-4.444,-4.457,-4.457,-4.457,-4.457,-4.457,-4.457,-4.457,-4.457,-4.457,-4.457,-4.457,-4.457,-4.457,-4.457,-4.4665,-4.4831,-4.4831,-4.4886,-4.5032,-4.5123,-4.5177,-4.5247,-4.5302,-4.5337,-4.5355,-4.5459,-4.5234,-4.5268,-4.5093,-4.5159,-4.5105,-4.5053,-4.512,-4.5306,-4.5425,-4.5576,-4.5796,-4.5545,-4.5311,-4.5505,-4.5651,-4.5879,-4.6042,-4.6187,-4.6129,-4.6088,-4.6012,-4.5733,-4.5425,-4.5267,-4.4858,-4.4281,-4.381,-4.3415,-4.3078,-4.2772,-4.258,-4.2476,-4.2548,-4.2691,-4.3113,-4.344,-4.3876,-4.4309,-4.471,-4.4561,-4.4281,-4.4682,-4.5222,-2.8122,-2.8197,-2.8674,-2.89,-2.9001,-2.9465,-2.9729,-2.9779,-2.9779,-2.9856,-2.9934,-3.0983,-3.1815,-3.2749,-3.3685,-3.4543,-3.5213,-3.5424,-3.5489,-3.5489,-3.5489,-3.5579,-3.5579,-3.5624,-3.5774,-3.5654,-3.5764,-3.6135,-3.6234,-3.7853,-3.9582,-4.1332,-4.2651,-4.3169,-4.3476,-4.3747,-4.3822,-4.3939,-4.4039,-4.4212,-4.4327,-4.431,-4.4384,-4.4514,-4.457,-4.457,-4.457,-4.457,-4.457,-4.457,-4.457,-4.457,-4.457,-4.457,-4.457,-4.4502,-4.4451,-4.4384,-4.4198,-4.4147,-4.4347,-4.4374,-4.4545,-4.4824,-4.4952,-4.4869,-4.4733,-4.4819,-4.4854,-4.5131,-4.5286,-4.4887,-4.4572,-4.4362,-4.4147,-4.4056,-4.4012,-4.4025,-4.4108,-4.4208,-4.4325,-4.453,-4.5023,-4.4947,-4.4763,-4.5011,-4.5187,-4.5311,-4.5541,-4.587,-4.574,-4.5404,-4.5354,-4.5133,-4.4903,-4.4591,-4.411,-4.3515,-4.3462,-4.3113,-4.2757,-4.2597,-4.2573,-4.2616,-4.2685,-4.2936,-4.3448,-4.4068,-4.461,-4.512,-4.5698,-4.568,-4.5364,-4.5425,-4.5882,-2.8109,-2.8134,-2.8273,-2.8335,-2.8423,-2.8938,-2.9402,-2.9767,-2.9779,-3.0139,-3.0833,-3.1756,-3.2579,-3.3671,-3.4624,-3.5133,-3.5359,-3.5489,-3.5489,-3.5489,-3.5489,-3.5489,-3.5489,-3.5489,-3.5489,-3.5584,-3.5599,-3.5933,-3.6641,-3.8013,-4.0194,-4.2337,-4.2834,-4.3224,-4.3469,-4.3789,-4.3981,-4.4155,-4.4212,-4.4327,-4.444,-4.4497,-4.457,-4.457,-4.457,-4.457,-4.457,-4.457,-4.4553,-4.4536,-4.4553,-4.457,-4.457,-4.4536,-4.4451,-4.3792,-4.3673,-4.3555,-4.3098,-4.2963,-4.3139,-4.3367,-4.3369,-4.3853,-4.4079,-4.4165,-4.3924,-4.4113,-4.4181,-4.4352,-4.4401,-4.4153,-4.3955,-4.3825,-4.364,-4.3541,-4.3529,-4.3592,-4.3656,-4.3673,-4.3708,-4.3895,-4.4367,-4.4325,-4.4165,-4.4422,-4.4599,-4.4653,-4.4946,-4.5212,-4.524,-4.4884,-4.4698,-4.4555,-4.4128,-4.3797,-4.3322,-4.2876,-4.2888,-4.2888,-4.2749,-4.2584,-4.2637,-4.284,-4.3126,-4.349,-4.3912,-4.4563,-4.5472,-4.6106,-4.669,-4.6558,-4.6481,-4.6494,-4.6597,-2.7457,-2.7482,-2.7695,-2.7896,-2.8147,-2.8461,-2.8825,-2.9176,-2.9591,-3.0037,-3.0459,-3.1852,-3.2821,-3.3275,-3.4611,-3.5489,-3.5489,-3.5489,-3.5489,-3.5489,-3.5489,-3.5489,-3.5489,-3.5584,-3.5929,-3.6039,-3.6511,-3.7076,-3.7701,-3.8807,-4.0739,-4.1067,-4.2168,-4.2775,-4.3036,-4.3573,-4.4064,-4.4253,-4.4367,-4.4497,-4.4519,-4.4536,-4.457,-4.4502,-4.4502,-4.4502,-4.4502,-4.4485,-4.4418,-4.4198,-4.413,-4.3927,-4.3792,-4.3606,-4.3572,-4.2997,-4.2946,-4.2794,-4.2523,-4.2422,-4.2426,-4.2396,-4.2313,-4.2569,-4.3048,-4.3252,-4.3302,-4.3439,-4.3368,-4.3363,-4.3371,-4.3376,-4.3348,-4.3366,-4.3293,-4.3217,-4.3244,-4.3289,-4.3306,-4.3262,-4.3377,-4.3527,-4.3598,-4.3551,-4.3558,-4.3764,-4.365,-4.3426,-4.3889,-4.4458,-4.4422,-4.4173,-4.4039,-4.3904,-4.35,-4.3185,-4.2923,-4.2691,-4.2685,-4.2691,-4.2575,-4.2735,-4.2912,-4.3297,-4.3733,-4.4204,-4.4802,-4.562,-4.6459,-4.7003,-4.7352,-4.7302,-4.7266,-4.7357,-4.7493,-2.6408,-2.6377,-2.6917,-2.7457,-2.7996,-2.8047,-2.8097,-2.8222,-2.9164,-2.9428,-2.9561,-3.1397,-3.225,-3.2783,-3.4332,-3.532,-3.5459,-3.5489,-3.5489,-3.5489,-3.5489,-3.5489,-3.5489,-3.5519,-3.5929,-3.6965,-3.7466,-3.7326,-3.9211,-3.9802,-3.9457,-3.9177,-4.0804,-4.1814,-4.2235,-4.2924,-4.3363,-4.3574,-4.3844,-4.4024,-4.4265,-4.4401,-4.4401,-4.4282,-4.4248,-4.4265,-4.4282,-4.4215,-4.4079,-4.3589,-4.325,-4.298,-4.2726,-4.2506,-4.2455,-4.2252,-4.2202,-4.1999,-4.1847,-4.1728,-4.1882,-4.1851,-4.1716,-4.163,-4.1867,-4.2272,-4.2373,-4.2555,-4.2549,-4.2628,-4.2666,-4.2678,-4.2675,-4.2678,-4.267,-4.266,-4.2711,-4.2754,-4.2772,-4.2772,-4.2746,-4.2896,-4.3052,-4.3036,-4.2959,-4.3119,-4.303,-4.2662,-4.2912,-4.3661,-4.3697,-4.3536,-4.3453,-4.3275,-4.3012,-4.2708,-4.2665,-4.2557,-4.257,-4.2647,-4.2673,-4.2943,-4.3206,-4.379,-4.4409,-4.5204,-4.5951,-4.6608,-4.712,-4.7506,-4.7802,-4.7955,-4.7974,-4.7955,-4.7988,-2.5222,-2.5272,-2.5774,-2.6565,-2.7419,-2.7482,-2.772,-2.8109,-2.836,-2.8839,-2.9516,-3.0635,-3.187,-3.2944,-3.4095,-3.5011,-3.5444,-3.5489,-3.5489,-3.5489,-3.5489,-3.5489,-3.5489,-3.5504,-3.5834,-3.5834,-3.6307,-3.7311,-3.8402,-3.8806,-3.9224,-3.9842,-4.0707,-4.0961,-4.1138,-4.1824,-4.2359,-4.2763,-4.2795,-4.3141,-4.3521,-4.3115,-4.2828,-4.2895,-4.2946,-4.3031,-4.3014,-4.2912,-4.2794,-4.2574,-4.2557,-4.2439,-4.2303,-4.2269,-4.1965,-4.1593,-4.1441,-4.1221,-4.0984,-4.0882,-4.0934,-4.0849,-4.0679,-4.0628,-4.0777,-4.1111,-4.1426,-4.1587,-4.1764,-4.1905,-4.2009,-4.2061,-4.2097,-4.2096,-4.2129,-4.2168,-4.2222,-4.2282,-4.2299,-4.2299,-4.2222,-4.2353,-4.2501,-4.2501,-4.2448,-4.2448,-4.2483,-4.2376,-4.2453,-4.2923,-4.3012,-4.2905,-4.2798,-4.2642,-4.2486,-4.2526,-4.2566,-4.2624,-4.2695,-4.2753,-4.2811,-4.3271,-4.3769,-4.4445,-4.5158,-4.5957,-4.6648,-4.7256,-4.7733,-4.7992,-4.8068,-4.813,-4.8169,-4.8132,-4.8126,-2.4833,-2.4883,-2.5385,-2.6101,-2.6816,-2.6917,-2.7105,-2.7344,-2.7381,-2.7908,-2.8887,-3.0133,-3.1541,-3.289,-3.3976,-3.4816,-3.537,-3.5489,-3.5489,-3.5489,-3.5489,-3.5489,-3.5489,-3.5504,-3.6213,-3.6322,-3.7247,-3.8122,-3.7919,-3.8213,-3.8832,-3.8912,-3.9278,-3.9876,-4.0027,-4.0647,-4.1319,-4.1827,-4.1624,-4.1887,-4.2486,-4.2269,-4.2252,-4.2303,-4.2269,-4.2252,-4.2303,-4.2252,-4.2083,-4.1762,-4.1474,-4.1288,-4.1187,-4.1187,-4.1052,-4.0832,-4.0646,-4.051,-4.0206,-4.0087,-4.0087,-4.0121,-4.0121,-4.034,-4.044,-4.0774,-4.0968,-4.1194,-4.1412,-4.1505,-4.1813,-4.1868,-4.2051,-4.2168,-4.2294,-4.2382,-4.2427,-4.245,-4.2422,-4.2394,-4.2376,-4.2376,-4.2489,-4.2394,-4.2382,-4.2458,-4.2405,-4.2409,-4.2468,-4.2468,-4.245,-4.249,-4.2548,-4.2566,-4.2548,-4.2627,-4.2724,-4.2742,-4.2817,-4.2915,-4.3081,-4.3769,-4.4388,-4.5012,-4.5745,-4.66,-4.7277,-4.7776,-4.7962,-4.809,-4.8169,-4.8229,-4.8286,-4.8324,-4.8323,-2.4669,-2.4883,-2.5297,-2.5824,-2.6302,-2.6352,-2.6364,-2.6377,-2.6433,-2.7015,-2.812,-2.9777,-3.1064,-3.2291,-3.3632,-3.4584,-3.5205,-3.5415,-3.5474,-3.5489,-3.5489,-3.5489,-3.5489,-3.5584,-3.6118,-3.6934,-3.7794,-3.7701,-3.739,-3.7561,-3.7344,-3.6879,-3.7482,-3.8455,-3.9065,-3.981,-4.0541,-4.0967,-4.0987,-4.0894,-4.1251,-4.1644,-4.1762,-4.1897,-4.1999,-4.2016,-4.1999,-4.188,-4.1576,-4.1204,-4.0612,-4.0476,-4.0375,-4.0426,-4.0358,-4.024,-4.0257,-4.0189,-4.0087,-4.0087,-4.0087,-4.0138,-4.0087,-4.0188,-4.0288,-4.0436,-4.0631,-4.0871,-4.1088,-4.1363,-4.1604,-4.1841,-4.2097,-4.2264,-4.2387,-4.2508,-4.257,-4.2591,-4.2584,-4.2535,-4.2476,-4.2458,-4.2422,-4.2369,-4.2369,-4.2486,-4.2544,-4.2548,-4.257,-4.2609,-4.2609,-4.2649,-4.2745,-4.2706,-4.2688,-4.2745,-4.2878,-4.2935,-4.2991,-4.3123,-4.3397,-4.4161,-4.4871,-4.5492,-4.628,-4.7211,-4.7652,-4.8059,-4.8169,-4.8226,-4.8304,-4.8363,-4.8363,-4.8401,-4.8476,-2.4004,-2.4833,-2.4933,-2.5272,-2.5724,-2.5762,-2.5749,-2.5762,-2.5854,-2.6817,-2.8438,-2.9027,-3.0066,-3.1503,-3.2966,-3.4083,-3.4831,-3.522,-3.5474,-3.5489,-3.5489,-3.5489,-3.5489,-3.5504,-3.5694,-3.6213,-3.6621,-3.6246,-3.6562,-3.6471,-3.6348,-3.632,-3.6522,-3.7369,-3.8242,-3.8886,-3.9378,-3.9927,-4.0369,-4.0289,-4.0324,-4.0527,-4.0443,-4.0493,-4.0476,-4.0493,-4.0493,-4.051,-4.0409,-4.0273,-4.0189,-4.0104,-4.0087,-4.0087,-4.0087,-4.0087,-4.0087,-4.0087,-4.0087,-4.0087,-4.0087,-4.0087,-4.0087,-4.0138,-4.0238,-4.0387,-4.0583,-4.0823,-4.1088,-4.1391,-4.1675,-4.1952,-4.2163,-4.2369,-4.253,-4.2609,-4.2688,-4.2727,-4.2724,-4.2663,-4.2584,-4.2548,-4.2552,-4.2494,-4.2516,-4.2591,-4.2588,-4.2609,-4.2706,-4.2727,-4.2765,-4.2842,-4.2918,-4.2918,-4.2862,-4.2936,-4.303,-4.3085,-4.316,-4.3215,-4.3688,-4.4693,-4.5352,-4.5791,-4.6815,-4.7858,-4.8208,-4.8247,-4.8286,-4.8304,-4.8419,-4.8457,-4.8494,-4.8513,-4.8587]}]]